<?xml version="1.0" encoding="UTF-8" standalone="no" ?>
<gpx xmlns="http://www.topografix.com/GPX/1/1" xmlns:xsi="http://www.w3.org/2001/XMLSchema-instance" xsi:schemaLocation="http://www.topografix.com/GPX/1/1 http://www.topografix.com/GPX/1/1/gpx.xsd" version="1.1" creator="VisuGPX - https://www.visugpx.com">
  <metadata>
    <name>La Randouillette 2015</name>
    <desc><![CDATA[La Randouillette 2015
/!\\ Beaucoup de chemins privés]]></desc>
  </metadata>
  <trk>
    <name><![CDATA[2015-04-12 08:53]]></name>
    <desc><![CDATA[<h1>OruxMaps</h1><br /><hr align="center" width="480" style="height: 2px; width: 517px"/><h2>Nom: 2015-04-12 08:53</h2><br /><p>Temps de départ: 04/12/2015 08:55</p><p>Temps d'arrivée: 04/12/2015 13:31</p><p>Distance: 47km (04:36)</p><p>Temps déplacement: 02:51</p><p>Vitesse moyenne: 10,2km/h</p><p>Vitesse moyenne: 16,4km/h</p><p>Vitess Max.: 30km/h</p><p>Altitude minimale: -74m</p><p>Altitude maximale: 98m</p><p>Vitesse d'élévation: 384,4m/h</p><p>Vitesse de descente: -479,1m/h</p><p>Gain Altitude: 812m</p><p>Perte Altitude: -800m</p><p>Temps d'élévation: 02:06</p><p>Temps de descente: 01:40</p><hr align="center" width="480" style="height: 2px; width: 517px"/>]]></desc>
    <trkseg>
      <trkpt lat="47.00804" lon="-1.33751">
        <ele>47.3</ele>
        <time>2015-04-12T06:55:31Z</time>
      </trkpt>
      <trkpt lat="47.00788" lon="-1.3374">
        <ele>39.3</ele>
        <time>2015-04-12T06:55:46Z</time>
      </trkpt>
      <trkpt lat="47.00778" lon="-1.33764">
        <ele>22.9</ele>
        <time>2015-04-12T06:55:58Z</time>
      </trkpt>
      <trkpt lat="47.00785" lon="-1.3379">
        <ele>-17.2</ele>
        <time>2015-04-12T06:56:09Z</time>
      </trkpt>
      <trkpt lat="47.00801" lon="-1.33804">
        <ele>-46.6</ele>
        <time>2015-04-12T06:56:13Z</time>
      </trkpt>
      <trkpt lat="47.0081" lon="-1.33828">
        <ele>-61.3</ele>
        <time>2015-04-12T06:56:20Z</time>
      </trkpt>
      <trkpt lat="47.00799" lon="-1.33852">
        <ele>-62.7</ele>
        <time>2015-04-12T06:56:27Z</time>
      </trkpt>
      <trkpt lat="47.00778" lon="-1.33846">
        <ele>-66.1</ele>
        <time>2015-04-12T06:56:36Z</time>
      </trkpt>
      <trkpt lat="47.00759" lon="-1.33845">
        <ele>-66.9</ele>
        <time>2015-04-12T06:56:41Z</time>
      </trkpt>
      <trkpt lat="47.00741" lon="-1.33855">
        <ele>-68.2</ele>
        <time>2015-04-12T06:56:46Z</time>
      </trkpt>
      <trkpt lat="47.00726" lon="-1.33873">
        <ele>-68.9</ele>
        <time>2015-04-12T06:56:51Z</time>
      </trkpt>
      <trkpt lat="47.00707" lon="-1.3389">
        <ele>-69.6</ele>
        <time>2015-04-12T06:56:56Z</time>
      </trkpt>
      <trkpt lat="47.0069" lon="-1.33905">
        <ele>-70.1</ele>
        <time>2015-04-12T06:57:00Z</time>
      </trkpt>
      <trkpt lat="47.00672" lon="-1.33919">
        <ele>-70.6</ele>
        <time>2015-04-12T06:57:05Z</time>
      </trkpt>
      <trkpt lat="47.00675" lon="-1.33948">
        <ele>-71.4</ele>
        <time>2015-04-12T06:57:12Z</time>
      </trkpt>
      <trkpt lat="47.00682" lon="-1.33976">
        <ele>-71.8</ele>
        <time>2015-04-12T06:57:17Z</time>
      </trkpt>
      <trkpt lat="47.00688" lon="-1.34002">
        <ele>-72.1</ele>
        <time>2015-04-12T06:57:21Z</time>
      </trkpt>
      <trkpt lat="47.00696" lon="-1.34027">
        <ele>-72.5</ele>
        <time>2015-04-12T06:57:25Z</time>
      </trkpt>
      <trkpt lat="47.00703" lon="-1.34054">
        <ele>-72.6</ele>
        <time>2015-04-12T06:57:30Z</time>
      </trkpt>
      <trkpt lat="47.00694" lon="-1.34079">
        <ele>-72.7</ele>
        <time>2015-04-12T06:57:35Z</time>
      </trkpt>
      <trkpt lat="47.00677" lon="-1.34091">
        <ele>-72.8</ele>
        <time>2015-04-12T06:57:39Z</time>
      </trkpt>
      <trkpt lat="47.00659" lon="-1.34102">
        <ele>-72.9</ele>
        <time>2015-04-12T06:57:43Z</time>
      </trkpt>
      <trkpt lat="47.00641" lon="-1.3411">
        <ele>-73.2</ele>
        <time>2015-04-12T06:57:48Z</time>
      </trkpt>
      <trkpt lat="47.00635" lon="-1.34081">
        <ele>-73.8</ele>
        <time>2015-04-12T06:57:56Z</time>
      </trkpt>
      <trkpt lat="47.00623" lon="-1.34048">
        <ele>-74.1</ele>
        <time>2015-04-12T06:58:01Z</time>
      </trkpt>
      <trkpt lat="47.00605" lon="-1.34033">
        <ele>-73.4</ele>
        <time>2015-04-12T06:58:05Z</time>
      </trkpt>
      <trkpt lat="47.00586" lon="-1.34029">
        <ele>-72.3</ele>
        <time>2015-04-12T06:58:09Z</time>
      </trkpt>
      <trkpt lat="47.00566" lon="-1.34018">
        <ele>-71.4</ele>
        <time>2015-04-12T06:58:13Z</time>
      </trkpt>
      <trkpt lat="47.00546" lon="-1.34009">
        <ele>-70.1</ele>
        <time>2015-04-12T06:58:17Z</time>
      </trkpt>
      <trkpt lat="47.00542" lon="-1.33976">
        <ele>-67.5</ele>
        <time>2015-04-12T06:58:24Z</time>
      </trkpt>
      <trkpt lat="47.00541" lon="-1.33947">
        <ele>-65.8</ele>
        <time>2015-04-12T06:58:29Z</time>
      </trkpt>
      <trkpt lat="47.00538" lon="-1.33921">
        <ele>-64.2</ele>
        <time>2015-04-12T06:58:34Z</time>
      </trkpt>
      <trkpt lat="47.00518" lon="-1.33915">
        <ele>-62.4</ele>
        <time>2015-04-12T06:58:40Z</time>
      </trkpt>
      <trkpt lat="47.005" lon="-1.33924">
        <ele>-59.9</ele>
        <time>2015-04-12T06:58:47Z</time>
      </trkpt>
      <trkpt lat="47.00486" lon="-1.33947">
        <ele>-57.9</ele>
        <time>2015-04-12T06:58:53Z</time>
      </trkpt>
      <trkpt lat="47.00468" lon="-1.33958">
        <ele>-56</ele>
        <time>2015-04-12T06:58:58Z</time>
      </trkpt>
      <trkpt lat="47.0045" lon="-1.33971">
        <ele>-54.4</ele>
        <time>2015-04-12T06:59:03Z</time>
      </trkpt>
      <trkpt lat="47.00434" lon="-1.3399">
        <ele>-52.5</ele>
        <time>2015-04-12T06:59:08Z</time>
      </trkpt>
      <trkpt lat="47.00423" lon="-1.34012">
        <ele>-50.1</ele>
        <time>2015-04-12T06:59:14Z</time>
      </trkpt>
      <trkpt lat="47.00407" lon="-1.34025">
        <ele>-47.7</ele>
        <time>2015-04-12T06:59:20Z</time>
      </trkpt>
      <trkpt lat="47.0039" lon="-1.34019">
        <ele>-44.2</ele>
        <time>2015-04-12T06:59:29Z</time>
      </trkpt>
      <trkpt lat="47.0037" lon="-1.34004">
        <ele>-41.9</ele>
        <time>2015-04-12T06:59:34Z</time>
      </trkpt>
      <trkpt lat="47.00352" lon="-1.33987">
        <ele>-40.3</ele>
        <time>2015-04-12T06:59:38Z</time>
      </trkpt>
      <trkpt lat="47.00334" lon="-1.33974">
        <ele>-38.6</ele>
        <time>2015-04-12T06:59:42Z</time>
      </trkpt>
      <trkpt lat="47.00314" lon="-1.33961">
        <ele>-36.3</ele>
        <time>2015-04-12T06:59:46Z</time>
      </trkpt>
      <trkpt lat="47.00296" lon="-1.3395">
        <ele>-33.7</ele>
        <time>2015-04-12T06:59:50Z</time>
      </trkpt>
      <trkpt lat="47.00278" lon="-1.33936">
        <ele>-31.3</ele>
        <time>2015-04-12T06:59:54Z</time>
      </trkpt>
      <trkpt lat="47.00261" lon="-1.33924">
        <ele>-28.7</ele>
        <time>2015-04-12T06:59:58Z</time>
      </trkpt>
      <trkpt lat="47.00244" lon="-1.33914">
        <ele>-26.3</ele>
        <time>2015-04-12T07:00:02Z</time>
      </trkpt>
      <trkpt lat="47.00225" lon="-1.33904">
        <ele>-23.7</ele>
        <time>2015-04-12T07:00:06Z</time>
      </trkpt>
      <trkpt lat="47.00208" lon="-1.33894">
        <ele>-21.1</ele>
        <time>2015-04-12T07:00:10Z</time>
      </trkpt>
      <trkpt lat="47.00188" lon="-1.33881">
        <ele>-17.9</ele>
        <time>2015-04-12T07:00:15Z</time>
      </trkpt>
      <trkpt lat="47.00168" lon="-1.33869">
        <ele>-14.4</ele>
        <time>2015-04-12T07:00:20Z</time>
      </trkpt>
      <trkpt lat="47.00151" lon="-1.3386">
        <ele>-11.6</ele>
        <time>2015-04-12T07:00:24Z</time>
      </trkpt>
      <trkpt lat="47.00131" lon="-1.33845">
        <ele>-9.6</ele>
        <time>2015-04-12T07:00:28Z</time>
      </trkpt>
      <trkpt lat="47.00116" lon="-1.33824">
        <ele>-7.5</ele>
        <time>2015-04-12T07:00:32Z</time>
      </trkpt>
      <trkpt lat="47.00118" lon="-1.33794">
        <ele>-5.3</ele>
        <time>2015-04-12T07:00:36Z</time>
      </trkpt>
      <trkpt lat="47.00126" lon="-1.33768">
        <ele>-3.6</ele>
        <time>2015-04-12T07:00:39Z</time>
      </trkpt>
      <trkpt lat="47.00129" lon="-1.33737">
        <ele>0.4</ele>
        <time>2015-04-12T07:00:42Z</time>
      </trkpt>
      <trkpt lat="47.00134" lon="-1.3371">
        <ele>1.9</ele>
        <time>2015-04-12T07:00:45Z</time>
      </trkpt>
      <trkpt lat="47.00141" lon="-1.33682">
        <ele>4.1</ele>
        <time>2015-04-12T07:00:49Z</time>
      </trkpt>
      <trkpt lat="47.00132" lon="-1.33658">
        <ele>8.2</ele>
        <time>2015-04-12T07:00:57Z</time>
      </trkpt>
      <trkpt lat="47.00112" lon="-1.33648">
        <ele>10.6</ele>
        <time>2015-04-12T07:01:02Z</time>
      </trkpt>
      <trkpt lat="47.00092" lon="-1.33641">
        <ele>12.9</ele>
        <time>2015-04-12T07:01:07Z</time>
      </trkpt>
      <trkpt lat="47.00075" lon="-1.33632">
        <ele>14.6</ele>
        <time>2015-04-12T07:01:11Z</time>
      </trkpt>
      <trkpt lat="47.00057" lon="-1.33637">
        <ele>17.1</ele>
        <time>2015-04-12T07:01:17Z</time>
      </trkpt>
      <trkpt lat="47.00036" lon="-1.33647">
        <ele>18.7</ele>
        <time>2015-04-12T07:01:22Z</time>
      </trkpt>
      <trkpt lat="47.00023" lon="-1.33627">
        <ele>19.7</ele>
        <time>2015-04-12T07:01:26Z</time>
      </trkpt>
      <trkpt lat="47.00013" lon="-1.33605">
        <ele>21.5</ele>
        <time>2015-04-12T07:01:31Z</time>
      </trkpt>
      <trkpt lat="46.99994" lon="-1.33593">
        <ele>22.6</ele>
        <time>2015-04-12T07:01:35Z</time>
      </trkpt>
      <trkpt lat="46.99977" lon="-1.33582">
        <ele>23.9</ele>
        <time>2015-04-12T07:01:39Z</time>
      </trkpt>
      <trkpt lat="46.99984" lon="-1.33552">
        <ele>25.8</ele>
        <time>2015-04-12T07:01:45Z</time>
      </trkpt>
      <trkpt lat="46.99998" lon="-1.33527">
        <ele>27.6</ele>
        <time>2015-04-12T07:01:50Z</time>
      </trkpt>
      <trkpt lat="47.00018" lon="-1.33518">
        <ele>28.2</ele>
        <time>2015-04-12T07:01:55Z</time>
      </trkpt>
      <trkpt lat="47.0004" lon="-1.33511">
        <ele>30</ele>
        <time>2015-04-12T07:02:00Z</time>
      </trkpt>
      <trkpt lat="47.00059" lon="-1.33498">
        <ele>30.8</ele>
        <time>2015-04-12T07:02:04Z</time>
      </trkpt>
      <trkpt lat="47.00065" lon="-1.33469">
        <ele>31.4</ele>
        <time>2015-04-12T07:02:08Z</time>
      </trkpt>
      <trkpt lat="47.0007" lon="-1.33443">
        <ele>32</ele>
        <time>2015-04-12T07:02:12Z</time>
      </trkpt>
      <trkpt lat="47.00078" lon="-1.33415">
        <ele>32.2</ele>
        <time>2015-04-12T07:02:16Z</time>
      </trkpt>
      <trkpt lat="47.00089" lon="-1.33387">
        <ele>32.5</ele>
        <time>2015-04-12T07:02:20Z</time>
      </trkpt>
      <trkpt lat="47.00101" lon="-1.33364">
        <ele>32.7</ele>
        <time>2015-04-12T07:02:24Z</time>
      </trkpt>
      <trkpt lat="47.00105" lon="-1.33337">
        <ele>32.4</ele>
        <time>2015-04-12T07:02:31Z</time>
      </trkpt>
      <trkpt lat="47.00091" lon="-1.33314">
        <ele>32.2</ele>
        <time>2015-04-12T07:02:36Z</time>
      </trkpt>
      <trkpt lat="47.00076" lon="-1.33296">
        <ele>32</ele>
        <time>2015-04-12T07:02:40Z</time>
      </trkpt>
      <trkpt lat="47.00064" lon="-1.33274">
        <ele>31.7</ele>
        <time>2015-04-12T07:02:44Z</time>
      </trkpt>
      <trkpt lat="47.0005" lon="-1.33254">
        <ele>31.7</ele>
        <time>2015-04-12T07:02:49Z</time>
      </trkpt>
      <trkpt lat="47.0005" lon="-1.33224">
        <ele>32.8</ele>
        <time>2015-04-12T07:02:54Z</time>
      </trkpt>
      <trkpt lat="47.00048" lon="-1.33193">
        <ele>33.1</ele>
        <time>2015-04-12T07:02:59Z</time>
      </trkpt>
      <trkpt lat="47.00029" lon="-1.33179">
        <ele>33.2</ele>
        <time>2015-04-12T07:03:04Z</time>
      </trkpt>
      <trkpt lat="47.00007" lon="-1.33169">
        <ele>33.5</ele>
        <time>2015-04-12T07:03:09Z</time>
      </trkpt>
      <trkpt lat="46.99988" lon="-1.33157">
        <ele>33.4</ele>
        <time>2015-04-12T07:03:14Z</time>
      </trkpt>
      <trkpt lat="46.99971" lon="-1.33148">
        <ele>33</ele>
        <time>2015-04-12T07:03:18Z</time>
      </trkpt>
      <trkpt lat="46.99954" lon="-1.33141">
        <ele>32.9</ele>
        <time>2015-04-12T07:03:22Z</time>
      </trkpt>
      <trkpt lat="46.99934" lon="-1.33147">
        <ele>33.3</ele>
        <time>2015-04-12T07:03:27Z</time>
      </trkpt>
      <trkpt lat="46.99915" lon="-1.33152">
        <ele>34</ele>
        <time>2015-04-12T07:03:32Z</time>
      </trkpt>
      <trkpt lat="46.99897" lon="-1.33168">
        <ele>34.3</ele>
        <time>2015-04-12T07:03:37Z</time>
      </trkpt>
      <trkpt lat="46.9988" lon="-1.33178">
        <ele>34.6</ele>
        <time>2015-04-12T07:03:41Z</time>
      </trkpt>
      <trkpt lat="46.99863" lon="-1.33187">
        <ele>35.4</ele>
        <time>2015-04-12T07:03:46Z</time>
      </trkpt>
      <trkpt lat="46.99843" lon="-1.33193">
        <ele>36</ele>
        <time>2015-04-12T07:03:50Z</time>
      </trkpt>
      <trkpt lat="46.99826" lon="-1.33185">
        <ele>36.3</ele>
        <time>2015-04-12T07:03:54Z</time>
      </trkpt>
      <trkpt lat="46.99809" lon="-1.33178">
        <ele>36.7</ele>
        <time>2015-04-12T07:03:58Z</time>
      </trkpt>
      <trkpt lat="46.99791" lon="-1.33173">
        <ele>37</ele>
        <time>2015-04-12T07:04:02Z</time>
      </trkpt>
      <trkpt lat="46.99772" lon="-1.3317">
        <ele>37.6</ele>
        <time>2015-04-12T07:04:07Z</time>
      </trkpt>
      <trkpt lat="46.99748" lon="-1.33167">
        <ele>38.1</ele>
        <time>2015-04-12T07:04:12Z</time>
      </trkpt>
      <trkpt lat="46.99726" lon="-1.33163">
        <ele>37.9</ele>
        <time>2015-04-12T07:04:17Z</time>
      </trkpt>
      <trkpt lat="46.99706" lon="-1.33153">
        <ele>37.8</ele>
        <time>2015-04-12T07:04:21Z</time>
      </trkpt>
      <trkpt lat="46.99687" lon="-1.33145">
        <ele>37.7</ele>
        <time>2015-04-12T07:04:26Z</time>
      </trkpt>
      <trkpt lat="46.99669" lon="-1.33138">
        <ele>37.5</ele>
        <time>2015-04-12T07:04:30Z</time>
      </trkpt>
      <trkpt lat="46.99651" lon="-1.33134">
        <ele>37.6</ele>
        <time>2015-04-12T07:04:34Z</time>
      </trkpt>
      <trkpt lat="46.99633" lon="-1.33127">
        <ele>37.5</ele>
        <time>2015-04-12T07:04:38Z</time>
      </trkpt>
      <trkpt lat="46.99616" lon="-1.33119">
        <ele>37.4</ele>
        <time>2015-04-12T07:04:42Z</time>
      </trkpt>
      <trkpt lat="46.99598" lon="-1.3311">
        <ele>37.3</ele>
        <time>2015-04-12T07:04:46Z</time>
      </trkpt>
      <trkpt lat="46.99581" lon="-1.33102">
        <ele>36.9</ele>
        <time>2015-04-12T07:04:50Z</time>
      </trkpt>
      <trkpt lat="46.99559" lon="-1.33094">
        <ele>36.7</ele>
        <time>2015-04-12T07:04:55Z</time>
      </trkpt>
      <trkpt lat="46.99539" lon="-1.33088">
        <ele>36.8</ele>
        <time>2015-04-12T07:04:59Z</time>
      </trkpt>
      <trkpt lat="46.99521" lon="-1.33083">
        <ele>37</ele>
        <time>2015-04-12T07:05:03Z</time>
      </trkpt>
      <trkpt lat="46.99503" lon="-1.33082">
        <ele>37.1</ele>
        <time>2015-04-12T07:05:07Z</time>
      </trkpt>
      <trkpt lat="46.99485" lon="-1.33093">
        <ele>36.9</ele>
        <time>2015-04-12T07:05:11Z</time>
      </trkpt>
      <trkpt lat="46.99466" lon="-1.33101">
        <ele>37</ele>
        <time>2015-04-12T07:05:15Z</time>
      </trkpt>
      <trkpt lat="46.99446" lon="-1.3311">
        <ele>38.9</ele>
        <time>2015-04-12T07:05:20Z</time>
      </trkpt>
      <trkpt lat="46.99426" lon="-1.33111">
        <ele>40.1</ele>
        <time>2015-04-12T07:05:27Z</time>
      </trkpt>
      <trkpt lat="46.99406" lon="-1.33108">
        <ele>39.8</ele>
        <time>2015-04-12T07:05:32Z</time>
      </trkpt>
      <trkpt lat="46.99385" lon="-1.33104">
        <ele>39.8</ele>
        <time>2015-04-12T07:05:37Z</time>
      </trkpt>
      <trkpt lat="46.99363" lon="-1.33104">
        <ele>39.6</ele>
        <time>2015-04-12T07:05:42Z</time>
      </trkpt>
      <trkpt lat="46.99342" lon="-1.33106">
        <ele>39.6</ele>
        <time>2015-04-12T07:05:47Z</time>
      </trkpt>
      <trkpt lat="46.99324" lon="-1.33104">
        <ele>39.4</ele>
        <time>2015-04-12T07:05:52Z</time>
      </trkpt>
      <trkpt lat="46.99334" lon="-1.33127">
        <ele>39.8</ele>
        <time>2015-04-12T07:06:08Z</time>
      </trkpt>
      <trkpt lat="46.9933" lon="-1.33153">
        <ele>40</ele>
        <time>2015-04-12T07:06:15Z</time>
      </trkpt>
      <trkpt lat="46.99314" lon="-1.33169">
        <ele>40</ele>
        <time>2015-04-12T07:06:21Z</time>
      </trkpt>
      <trkpt lat="46.99298" lon="-1.33185">
        <ele>40.4</ele>
        <time>2015-04-12T07:06:27Z</time>
      </trkpt>
      <trkpt lat="46.99285" lon="-1.33207">
        <ele>40.6</ele>
        <time>2015-04-12T07:06:32Z</time>
      </trkpt>
      <trkpt lat="46.99284" lon="-1.33234">
        <ele>40.9</ele>
        <time>2015-04-12T07:06:38Z</time>
      </trkpt>
      <trkpt lat="46.99287" lon="-1.33264">
        <ele>41.2</ele>
        <time>2015-04-12T07:06:43Z</time>
      </trkpt>
      <trkpt lat="46.9929" lon="-1.33292">
        <ele>41.6</ele>
        <time>2015-04-12T07:06:50Z</time>
      </trkpt>
      <trkpt lat="46.99294" lon="-1.33318">
        <ele>42.3</ele>
        <time>2015-04-12T07:06:57Z</time>
      </trkpt>
      <trkpt lat="46.993" lon="-1.33344">
        <ele>42.9</ele>
        <time>2015-04-12T07:07:03Z</time>
      </trkpt>
      <trkpt lat="46.99304" lon="-1.3337">
        <ele>43.4</ele>
        <time>2015-04-12T07:07:08Z</time>
      </trkpt>
      <trkpt lat="46.99311" lon="-1.33395">
        <ele>43.8</ele>
        <time>2015-04-12T07:07:13Z</time>
      </trkpt>
      <trkpt lat="46.99319" lon="-1.33424">
        <ele>44.3</ele>
        <time>2015-04-12T07:07:18Z</time>
      </trkpt>
      <trkpt lat="46.99332" lon="-1.33444">
        <ele>44.6</ele>
        <time>2015-04-12T07:07:23Z</time>
      </trkpt>
      <trkpt lat="46.99345" lon="-1.33464">
        <ele>44.5</ele>
        <time>2015-04-12T07:07:29Z</time>
      </trkpt>
      <trkpt lat="46.99364" lon="-1.33454">
        <ele>44.5</ele>
        <time>2015-04-12T07:07:40Z</time>
      </trkpt>
      <trkpt lat="46.99378" lon="-1.33435">
        <ele>45.7</ele>
        <time>2015-04-12T07:07:46Z</time>
      </trkpt>
      <trkpt lat="46.99398" lon="-1.33441">
        <ele>46.6</ele>
        <time>2015-04-12T07:07:51Z</time>
      </trkpt>
      <trkpt lat="46.99416" lon="-1.33451">
        <ele>47.2</ele>
        <time>2015-04-12T07:07:57Z</time>
      </trkpt>
      <trkpt lat="46.99433" lon="-1.33463">
        <ele>47.8</ele>
        <time>2015-04-12T07:08:03Z</time>
      </trkpt>
      <trkpt lat="46.99448" lon="-1.3348">
        <ele>48.7</ele>
        <time>2015-04-12T07:08:08Z</time>
      </trkpt>
      <trkpt lat="46.99446" lon="-1.33509">
        <ele>50</ele>
        <time>2015-04-12T07:08:17Z</time>
      </trkpt>
      <trkpt lat="46.9943" lon="-1.33526">
        <ele>51</ele>
        <time>2015-04-12T07:08:23Z</time>
      </trkpt>
      <trkpt lat="46.99415" lon="-1.33541">
        <ele>51.6</ele>
        <time>2015-04-12T07:08:29Z</time>
      </trkpt>
      <trkpt lat="46.99399" lon="-1.33557">
        <ele>52.6</ele>
        <time>2015-04-12T07:08:35Z</time>
      </trkpt>
      <trkpt lat="46.99381" lon="-1.33573">
        <ele>53.7</ele>
        <time>2015-04-12T07:08:40Z</time>
      </trkpt>
      <trkpt lat="46.99362" lon="-1.33588">
        <ele>54.5</ele>
        <time>2015-04-12T07:08:45Z</time>
      </trkpt>
      <trkpt lat="46.99346" lon="-1.33602">
        <ele>55.1</ele>
        <time>2015-04-12T07:08:49Z</time>
      </trkpt>
      <trkpt lat="46.99328" lon="-1.33618">
        <ele>55.7</ele>
        <time>2015-04-12T07:08:54Z</time>
      </trkpt>
      <trkpt lat="46.99309" lon="-1.33604">
        <ele>55.8</ele>
        <time>2015-04-12T07:09:02Z</time>
      </trkpt>
      <trkpt lat="46.99299" lon="-1.33578">
        <ele>55.5</ele>
        <time>2015-04-12T07:09:08Z</time>
      </trkpt>
      <trkpt lat="46.99314" lon="-1.33559">
        <ele>56.1</ele>
        <time>2015-04-12T07:09:18Z</time>
      </trkpt>
      <trkpt lat="46.9933" lon="-1.33542">
        <ele>55.8</ele>
        <time>2015-04-12T07:09:25Z</time>
      </trkpt>
      <trkpt lat="46.99321" lon="-1.33516">
        <ele>56.7</ele>
        <time>2015-04-12T07:09:33Z</time>
      </trkpt>
      <trkpt lat="46.99304" lon="-1.33506">
        <ele>58.6</ele>
        <time>2015-04-12T07:09:44Z</time>
      </trkpt>
      <trkpt lat="46.99282" lon="-1.33504">
        <ele>58.8</ele>
        <time>2015-04-12T07:09:52Z</time>
      </trkpt>
      <trkpt lat="46.99273" lon="-1.33482">
        <ele>59.5</ele>
        <time>2015-04-12T07:09:58Z</time>
      </trkpt>
      <trkpt lat="46.99276" lon="-1.33454">
        <ele>60.7</ele>
        <time>2015-04-12T07:10:10Z</time>
      </trkpt>
      <trkpt lat="46.9926" lon="-1.33437">
        <ele>62.7</ele>
        <time>2015-04-12T07:10:22Z</time>
      </trkpt>
      <trkpt lat="46.99251" lon="-1.3341">
        <ele>63.2</ele>
        <time>2015-04-12T07:10:29Z</time>
      </trkpt>
      <trkpt lat="46.99238" lon="-1.33388">
        <ele>63.9</ele>
        <time>2015-04-12T07:10:35Z</time>
      </trkpt>
      <trkpt lat="46.99228" lon="-1.33363">
        <ele>64.7</ele>
        <time>2015-04-12T07:10:41Z</time>
      </trkpt>
      <trkpt lat="46.99219" lon="-1.33338">
        <ele>65.9</ele>
        <time>2015-04-12T07:10:48Z</time>
      </trkpt>
      <trkpt lat="46.99215" lon="-1.3331">
        <ele>67.1</ele>
        <time>2015-04-12T07:10:55Z</time>
      </trkpt>
      <trkpt lat="46.99205" lon="-1.33285">
        <ele>68</ele>
        <time>2015-04-12T07:11:01Z</time>
      </trkpt>
      <trkpt lat="46.99206" lon="-1.33258">
        <ele>69.1</ele>
        <time>2015-04-12T07:11:07Z</time>
      </trkpt>
      <trkpt lat="46.99219" lon="-1.33239">
        <ele>70.8</ele>
        <time>2015-04-12T07:11:15Z</time>
      </trkpt>
      <trkpt lat="46.99228" lon="-1.33215">
        <ele>72.1</ele>
        <time>2015-04-12T07:11:22Z</time>
      </trkpt>
      <trkpt lat="46.99231" lon="-1.33186">
        <ele>73.6</ele>
        <time>2015-04-12T07:11:29Z</time>
      </trkpt>
      <trkpt lat="46.99236" lon="-1.3316">
        <ele>74.6</ele>
        <time>2015-04-12T07:11:36Z</time>
      </trkpt>
      <trkpt lat="46.99246" lon="-1.33138">
        <ele>75.9</ele>
        <time>2015-04-12T07:11:43Z</time>
      </trkpt>
      <trkpt lat="46.99255" lon="-1.33112">
        <ele>77.3</ele>
        <time>2015-04-12T07:11:51Z</time>
      </trkpt>
      <trkpt lat="46.99273" lon="-1.33096">
        <ele>78.4</ele>
        <time>2015-04-12T07:11:59Z</time>
      </trkpt>
      <trkpt lat="46.99289" lon="-1.33081">
        <ele>79.6</ele>
        <time>2015-04-12T07:12:05Z</time>
      </trkpt>
      <trkpt lat="46.99302" lon="-1.33062">
        <ele>81</ele>
        <time>2015-04-12T07:12:11Z</time>
      </trkpt>
      <trkpt lat="46.99315" lon="-1.33038">
        <ele>82.7</ele>
        <time>2015-04-12T07:12:18Z</time>
      </trkpt>
      <trkpt lat="46.99325" lon="-1.33016">
        <ele>84.9</ele>
        <time>2015-04-12T07:12:27Z</time>
      </trkpt>
      <trkpt lat="46.99335" lon="-1.3299">
        <ele>87.4</ele>
        <time>2015-04-12T07:12:37Z</time>
      </trkpt>
      <trkpt lat="46.9935" lon="-1.32972">
        <ele>89.2</ele>
        <time>2015-04-12T07:12:46Z</time>
      </trkpt>
      <trkpt lat="46.99368" lon="-1.32962">
        <ele>91.2</ele>
        <time>2015-04-12T07:13:00Z</time>
      </trkpt>
      <trkpt lat="46.99384" lon="-1.3295">
        <ele>92</ele>
        <time>2015-04-12T07:13:09Z</time>
      </trkpt>
      <trkpt lat="46.99393" lon="-1.32925">
        <ele>92.6</ele>
        <time>2015-04-12T07:13:16Z</time>
      </trkpt>
      <trkpt lat="46.99401" lon="-1.32898">
        <ele>93.2</ele>
        <time>2015-04-12T07:13:22Z</time>
      </trkpt>
      <trkpt lat="46.99404" lon="-1.32869">
        <ele>94.1</ele>
        <time>2015-04-12T07:13:28Z</time>
      </trkpt>
      <trkpt lat="46.9941" lon="-1.32843">
        <ele>95.2</ele>
        <time>2015-04-12T07:13:35Z</time>
      </trkpt>
      <trkpt lat="46.99405" lon="-1.32815">
        <ele>96.1</ele>
        <time>2015-04-12T07:13:43Z</time>
      </trkpt>
      <trkpt lat="46.99404" lon="-1.32787">
        <ele>96.3</ele>
        <time>2015-04-12T07:13:50Z</time>
      </trkpt>
      <trkpt lat="46.99397" lon="-1.32758">
        <ele>96.4</ele>
        <time>2015-04-12T07:13:56Z</time>
      </trkpt>
      <trkpt lat="46.99398" lon="-1.3273">
        <ele>96.1</ele>
        <time>2015-04-12T07:14:01Z</time>
      </trkpt>
      <trkpt lat="46.99405" lon="-1.32703">
        <ele>96.6</ele>
        <time>2015-04-12T07:14:07Z</time>
      </trkpt>
      <trkpt lat="46.99392" lon="-1.32685">
        <ele>97.3</ele>
        <time>2015-04-12T07:14:14Z</time>
      </trkpt>
      <trkpt lat="46.99376" lon="-1.3267">
        <ele>98.3</ele>
        <time>2015-04-12T07:14:23Z</time>
      </trkpt>
      <trkpt lat="46.99375" lon="-1.32643">
        <ele>97.5</ele>
        <time>2015-04-12T07:14:38Z</time>
      </trkpt>
      <trkpt lat="46.99361" lon="-1.32625">
        <ele>93.8</ele>
        <time>2015-04-12T07:15:07Z</time>
      </trkpt>
      <trkpt lat="46.99349" lon="-1.32606">
        <ele>91.5</ele>
        <time>2015-04-12T07:15:30Z</time>
      </trkpt>
      <trkpt lat="46.99336" lon="-1.32584">
        <ele>89.6</ele>
        <time>2015-04-12T07:15:34Z</time>
      </trkpt>
      <trkpt lat="46.99318" lon="-1.3258">
        <ele>58.2</ele>
        <time>2015-04-12T07:15:56Z</time>
      </trkpt>
      <trkpt lat="46.99299" lon="-1.32571">
        <ele>47.2</ele>
        <time>2015-04-12T07:16:22Z</time>
      </trkpt>
      <trkpt lat="46.99282" lon="-1.32563">
        <ele>46.6</ele>
        <time>2015-04-12T07:16:35Z</time>
      </trkpt>
      <trkpt lat="46.99265" lon="-1.32572">
        <ele>44.7</ele>
        <time>2015-04-12T07:16:48Z</time>
      </trkpt>
      <trkpt lat="46.99246" lon="-1.32579">
        <ele>43.4</ele>
        <time>2015-04-12T07:16:56Z</time>
      </trkpt>
      <trkpt lat="46.99228" lon="-1.32589">
        <ele>43.6</ele>
        <time>2015-04-12T07:17:02Z</time>
      </trkpt>
      <trkpt lat="46.99216" lon="-1.32569">
        <ele>42.1</ele>
        <time>2015-04-12T07:17:13Z</time>
      </trkpt>
      <trkpt lat="46.99197" lon="-1.32564">
        <ele>40.8</ele>
        <time>2015-04-12T07:17:22Z</time>
      </trkpt>
      <trkpt lat="46.99196" lon="-1.32537">
        <ele>39</ele>
        <time>2015-04-12T07:17:40Z</time>
      </trkpt>
      <trkpt lat="46.99178" lon="-1.32543">
        <ele>39.7</ele>
        <time>2015-04-12T07:17:48Z</time>
      </trkpt>
      <trkpt lat="46.9916" lon="-1.32559">
        <ele>39.8</ele>
        <time>2015-04-12T07:17:54Z</time>
      </trkpt>
      <trkpt lat="46.99141" lon="-1.32574">
        <ele>40.1</ele>
        <time>2015-04-12T07:18:00Z</time>
      </trkpt>
      <trkpt lat="46.99122" lon="-1.32587">
        <ele>40.1</ele>
        <time>2015-04-12T07:18:06Z</time>
      </trkpt>
      <trkpt lat="46.99107" lon="-1.32603">
        <ele>40.2</ele>
        <time>2015-04-12T07:18:12Z</time>
      </trkpt>
      <trkpt lat="46.9909" lon="-1.3262">
        <ele>40.5</ele>
        <time>2015-04-12T07:18:18Z</time>
      </trkpt>
      <trkpt lat="46.99074" lon="-1.32632">
        <ele>40.7</ele>
        <time>2015-04-12T07:18:23Z</time>
      </trkpt>
      <trkpt lat="46.99056" lon="-1.32645">
        <ele>40.7</ele>
        <time>2015-04-12T07:18:28Z</time>
      </trkpt>
      <trkpt lat="46.9904" lon="-1.32655">
        <ele>40.9</ele>
        <time>2015-04-12T07:18:34Z</time>
      </trkpt>
      <trkpt lat="46.99043" lon="-1.32683">
        <ele>41.2</ele>
        <time>2015-04-12T07:18:40Z</time>
      </trkpt>
      <trkpt lat="46.99052" lon="-1.32712">
        <ele>41.5</ele>
        <time>2015-04-12T07:18:45Z</time>
      </trkpt>
      <trkpt lat="46.99053" lon="-1.3274">
        <ele>41.8</ele>
        <time>2015-04-12T07:18:50Z</time>
      </trkpt>
      <trkpt lat="46.99051" lon="-1.32767">
        <ele>40</ele>
        <time>2015-04-12T07:18:54Z</time>
      </trkpt>
      <trkpt lat="46.9905" lon="-1.32794">
        <ele>39.8</ele>
        <time>2015-04-12T07:18:58Z</time>
      </trkpt>
      <trkpt lat="46.99046" lon="-1.3282">
        <ele>40.3</ele>
        <time>2015-04-12T07:19:02Z</time>
      </trkpt>
      <trkpt lat="46.99033" lon="-1.3284">
        <ele>40.4</ele>
        <time>2015-04-12T07:19:06Z</time>
      </trkpt>
      <trkpt lat="46.99025" lon="-1.32866">
        <ele>39.9</ele>
        <time>2015-04-12T07:19:11Z</time>
      </trkpt>
      <trkpt lat="46.99032" lon="-1.32895">
        <ele>39.8</ele>
        <time>2015-04-12T07:19:16Z</time>
      </trkpt>
      <trkpt lat="46.99021" lon="-1.32919">
        <ele>40.1</ele>
        <time>2015-04-12T07:19:21Z</time>
      </trkpt>
      <trkpt lat="46.99006" lon="-1.32937">
        <ele>40.8</ele>
        <time>2015-04-12T07:19:26Z</time>
      </trkpt>
      <trkpt lat="46.99011" lon="-1.32968">
        <ele>40.3</ele>
        <time>2015-04-12T07:19:33Z</time>
      </trkpt>
      <trkpt lat="46.99024" lon="-1.32991">
        <ele>39.5</ele>
        <time>2015-04-12T07:19:37Z</time>
      </trkpt>
      <trkpt lat="46.99036" lon="-1.33011">
        <ele>39.4</ele>
        <time>2015-04-12T07:19:41Z</time>
      </trkpt>
      <trkpt lat="46.99048" lon="-1.33036">
        <ele>39.8</ele>
        <time>2015-04-12T07:19:46Z</time>
      </trkpt>
      <trkpt lat="46.99058" lon="-1.33061">
        <ele>39.9</ele>
        <time>2015-04-12T07:19:51Z</time>
      </trkpt>
      <trkpt lat="46.99067" lon="-1.3309">
        <ele>39.1</ele>
        <time>2015-04-12T07:19:56Z</time>
      </trkpt>
      <trkpt lat="46.99073" lon="-1.33117">
        <ele>38.2</ele>
        <time>2015-04-12T07:20:00Z</time>
      </trkpt>
      <trkpt lat="46.9908" lon="-1.33144">
        <ele>36.6</ele>
        <time>2015-04-12T07:20:05Z</time>
      </trkpt>
      <trkpt lat="46.99098" lon="-1.33149">
        <ele>35.5</ele>
        <time>2015-04-12T07:20:11Z</time>
      </trkpt>
      <trkpt lat="46.99117" lon="-1.33149">
        <ele>35</ele>
        <time>2015-04-12T07:20:16Z</time>
      </trkpt>
      <trkpt lat="46.99133" lon="-1.33162">
        <ele>34.4</ele>
        <time>2015-04-12T07:20:21Z</time>
      </trkpt>
      <trkpt lat="46.99149" lon="-1.33174">
        <ele>33.8</ele>
        <time>2015-04-12T07:20:25Z</time>
      </trkpt>
      <trkpt lat="46.99161" lon="-1.33198">
        <ele>33.2</ele>
        <time>2015-04-12T07:20:29Z</time>
      </trkpt>
      <trkpt lat="46.99165" lon="-1.33231">
        <ele>32.7</ele>
        <time>2015-04-12T07:20:33Z</time>
      </trkpt>
      <trkpt lat="46.99163" lon="-1.3326">
        <ele>32.5</ele>
        <time>2015-04-12T07:20:37Z</time>
      </trkpt>
      <trkpt lat="46.99159" lon="-1.33288">
        <ele>31</ele>
        <time>2015-04-12T07:20:41Z</time>
      </trkpt>
      <trkpt lat="46.99149" lon="-1.33315">
        <ele>29.8</ele>
        <time>2015-04-12T07:20:45Z</time>
      </trkpt>
      <trkpt lat="46.99139" lon="-1.33338">
        <ele>28.3</ele>
        <time>2015-04-12T07:20:49Z</time>
      </trkpt>
      <trkpt lat="46.99132" lon="-1.33365">
        <ele>27</ele>
        <time>2015-04-12T07:20:53Z</time>
      </trkpt>
      <trkpt lat="46.99123" lon="-1.3339">
        <ele>26.5</ele>
        <time>2015-04-12T07:20:57Z</time>
      </trkpt>
      <trkpt lat="46.99115" lon="-1.33416">
        <ele>25.9</ele>
        <time>2015-04-12T07:21:01Z</time>
      </trkpt>
      <trkpt lat="46.99104" lon="-1.33439">
        <ele>25</ele>
        <time>2015-04-12T07:21:05Z</time>
      </trkpt>
      <trkpt lat="46.99089" lon="-1.33464">
        <ele>24.3</ele>
        <time>2015-04-12T07:21:10Z</time>
      </trkpt>
      <trkpt lat="46.99076" lon="-1.33486">
        <ele>22.3</ele>
        <time>2015-04-12T07:21:15Z</time>
      </trkpt>
      <trkpt lat="46.99063" lon="-1.33511">
        <ele>21</ele>
        <time>2015-04-12T07:21:20Z</time>
      </trkpt>
      <trkpt lat="46.9905" lon="-1.33537">
        <ele>19.3</ele>
        <time>2015-04-12T07:21:25Z</time>
      </trkpt>
      <trkpt lat="46.99039" lon="-1.33564">
        <ele>18.8</ele>
        <time>2015-04-12T07:21:30Z</time>
      </trkpt>
      <trkpt lat="46.99028" lon="-1.33592">
        <ele>18</ele>
        <time>2015-04-12T07:21:35Z</time>
      </trkpt>
      <trkpt lat="46.99017" lon="-1.33615">
        <ele>17.5</ele>
        <time>2015-04-12T07:21:39Z</time>
      </trkpt>
      <trkpt lat="46.99007" lon="-1.33637">
        <ele>17.3</ele>
        <time>2015-04-12T07:21:43Z</time>
      </trkpt>
      <trkpt lat="46.98995" lon="-1.33659">
        <ele>17.2</ele>
        <time>2015-04-12T07:21:47Z</time>
      </trkpt>
      <trkpt lat="46.98981" lon="-1.33682">
        <ele>17.2</ele>
        <time>2015-04-12T07:21:51Z</time>
      </trkpt>
      <trkpt lat="46.98967" lon="-1.33703">
        <ele>17.4</ele>
        <time>2015-04-12T07:21:55Z</time>
      </trkpt>
      <trkpt lat="46.98953" lon="-1.33725">
        <ele>16.6</ele>
        <time>2015-04-12T07:21:59Z</time>
      </trkpt>
      <trkpt lat="46.98939" lon="-1.3375">
        <ele>16.2</ele>
        <time>2015-04-12T07:22:03Z</time>
      </trkpt>
      <trkpt lat="46.98923" lon="-1.33776">
        <ele>15.5</ele>
        <time>2015-04-12T07:22:07Z</time>
      </trkpt>
      <trkpt lat="46.98911" lon="-1.33798">
        <ele>14.9</ele>
        <time>2015-04-12T07:22:11Z</time>
      </trkpt>
      <trkpt lat="46.98904" lon="-1.33774">
        <ele>11.1</ele>
        <time>2015-04-12T07:22:25Z</time>
      </trkpt>
      <trkpt lat="46.98884" lon="-1.33767">
        <ele>9</ele>
        <time>2015-04-12T07:22:40Z</time>
      </trkpt>
      <trkpt lat="46.98873" lon="-1.33742">
        <ele>7</ele>
        <time>2015-04-12T07:22:48Z</time>
      </trkpt>
      <trkpt lat="46.98871" lon="-1.33712">
        <ele>8.2</ele>
        <time>2015-04-12T07:22:56Z</time>
      </trkpt>
      <trkpt lat="46.98866" lon="-1.33684">
        <ele>8.4</ele>
        <time>2015-04-12T07:23:06Z</time>
      </trkpt>
      <trkpt lat="46.98859" lon="-1.33659">
        <ele>9.3</ele>
        <time>2015-04-12T07:23:14Z</time>
      </trkpt>
      <trkpt lat="46.98841" lon="-1.33649">
        <ele>11.6</ele>
        <time>2015-04-12T07:23:27Z</time>
      </trkpt>
      <trkpt lat="46.98826" lon="-1.33663">
        <ele>10.3</ele>
        <time>2015-04-12T07:23:41Z</time>
      </trkpt>
      <trkpt lat="46.98828" lon="-1.33635">
        <ele>9</ele>
        <time>2015-04-12T07:23:52Z</time>
      </trkpt>
      <trkpt lat="46.98823" lon="-1.33608">
        <ele>9.7</ele>
        <time>2015-04-12T07:24:05Z</time>
      </trkpt>
      <trkpt lat="46.98816" lon="-1.33582">
        <ele>10.6</ele>
        <time>2015-04-12T07:24:14Z</time>
      </trkpt>
      <trkpt lat="46.98814" lon="-1.33554">
        <ele>11.9</ele>
        <time>2015-04-12T07:24:22Z</time>
      </trkpt>
      <trkpt lat="46.98805" lon="-1.33527">
        <ele>13.4</ele>
        <time>2015-04-12T07:24:32Z</time>
      </trkpt>
      <trkpt lat="46.98799" lon="-1.33502">
        <ele>14.7</ele>
        <time>2015-04-12T07:24:39Z</time>
      </trkpt>
      <trkpt lat="46.98798" lon="-1.33475">
        <ele>16.5</ele>
        <time>2015-04-12T07:24:46Z</time>
      </trkpt>
      <trkpt lat="46.98801" lon="-1.33445">
        <ele>19.9</ele>
        <time>2015-04-12T07:24:54Z</time>
      </trkpt>
      <trkpt lat="46.98796" lon="-1.33417">
        <ele>22.2</ele>
        <time>2015-04-12T07:25:03Z</time>
      </trkpt>
      <trkpt lat="46.98796" lon="-1.33391">
        <ele>23.8</ele>
        <time>2015-04-12T07:25:11Z</time>
      </trkpt>
      <trkpt lat="46.98795" lon="-1.33363">
        <ele>25.6</ele>
        <time>2015-04-12T07:25:19Z</time>
      </trkpt>
      <trkpt lat="46.98808" lon="-1.33344">
        <ele>28.9</ele>
        <time>2015-04-12T07:25:29Z</time>
      </trkpt>
      <trkpt lat="46.98814" lon="-1.3332">
        <ele>31.4</ele>
        <time>2015-04-12T07:25:40Z</time>
      </trkpt>
      <trkpt lat="46.98819" lon="-1.33292">
        <ele>33.5</ele>
        <time>2015-04-12T07:25:47Z</time>
      </trkpt>
      <trkpt lat="46.98836" lon="-1.33276">
        <ele>35.5</ele>
        <time>2015-04-12T07:25:54Z</time>
      </trkpt>
      <trkpt lat="46.98847" lon="-1.33251">
        <ele>39.2</ele>
        <time>2015-04-12T07:26:02Z</time>
      </trkpt>
      <trkpt lat="46.98866" lon="-1.33239">
        <ele>40.6</ele>
        <time>2015-04-12T07:26:08Z</time>
      </trkpt>
      <trkpt lat="46.98883" lon="-1.33225">
        <ele>41.7</ele>
        <time>2015-04-12T07:26:14Z</time>
      </trkpt>
      <trkpt lat="46.98894" lon="-1.33202">
        <ele>44.8</ele>
        <time>2015-04-12T07:26:20Z</time>
      </trkpt>
      <trkpt lat="46.9889" lon="-1.33174">
        <ele>47.8</ele>
        <time>2015-04-12T07:26:28Z</time>
      </trkpt>
      <trkpt lat="46.98887" lon="-1.33145">
        <ele>49.8</ele>
        <time>2015-04-12T07:26:36Z</time>
      </trkpt>
      <trkpt lat="46.98893" lon="-1.33117">
        <ele>53</ele>
        <time>2015-04-12T07:26:50Z</time>
      </trkpt>
      <trkpt lat="46.98888" lon="-1.33089">
        <ele>53.4</ele>
        <time>2015-04-12T07:26:58Z</time>
      </trkpt>
      <trkpt lat="46.98879" lon="-1.33065">
        <ele>53.8</ele>
        <time>2015-04-12T07:27:05Z</time>
      </trkpt>
      <trkpt lat="46.98865" lon="-1.33045">
        <ele>53.8</ele>
        <time>2015-04-12T07:27:11Z</time>
      </trkpt>
      <trkpt lat="46.98847" lon="-1.33049">
        <ele>54.2</ele>
        <time>2015-04-12T07:27:19Z</time>
      </trkpt>
      <trkpt lat="46.98831" lon="-1.3306">
        <ele>54.9</ele>
        <time>2015-04-12T07:27:26Z</time>
      </trkpt>
      <trkpt lat="46.98813" lon="-1.33071">
        <ele>55.6</ele>
        <time>2015-04-12T07:27:33Z</time>
      </trkpt>
      <trkpt lat="46.98796" lon="-1.33087">
        <ele>56.7</ele>
        <time>2015-04-12T07:27:39Z</time>
      </trkpt>
      <trkpt lat="46.98777" lon="-1.33088">
        <ele>57.4</ele>
        <time>2015-04-12T07:27:46Z</time>
      </trkpt>
      <trkpt lat="46.98757" lon="-1.33085">
        <ele>57.9</ele>
        <time>2015-04-12T07:27:53Z</time>
      </trkpt>
      <trkpt lat="46.98739" lon="-1.33093">
        <ele>58</ele>
        <time>2015-04-12T07:28:05Z</time>
      </trkpt>
      <trkpt lat="46.98728" lon="-1.33117">
        <ele>58</ele>
        <time>2015-04-12T07:28:15Z</time>
      </trkpt>
      <trkpt lat="46.98719" lon="-1.33141">
        <ele>57.9</ele>
        <time>2015-04-12T07:28:24Z</time>
      </trkpt>
      <trkpt lat="46.98717" lon="-1.33169">
        <ele>57.9</ele>
        <time>2015-04-12T07:28:33Z</time>
      </trkpt>
      <trkpt lat="46.98724" lon="-1.33196">
        <ele>56.8</ele>
        <time>2015-04-12T07:28:40Z</time>
      </trkpt>
      <trkpt lat="46.98728" lon="-1.33222">
        <ele>54.8</ele>
        <time>2015-04-12T07:28:46Z</time>
      </trkpt>
      <trkpt lat="46.98738" lon="-1.3325">
        <ele>53</ele>
        <time>2015-04-12T07:28:53Z</time>
      </trkpt>
      <trkpt lat="46.98746" lon="-1.33273">
        <ele>49.3</ele>
        <time>2015-04-12T07:29:00Z</time>
      </trkpt>
      <trkpt lat="46.98737" lon="-1.33297">
        <ele>46.7</ele>
        <time>2015-04-12T07:29:10Z</time>
      </trkpt>
      <trkpt lat="46.98737" lon="-1.33324">
        <ele>41.2</ele>
        <time>2015-04-12T07:29:22Z</time>
      </trkpt>
      <trkpt lat="46.98746" lon="-1.33349">
        <ele>37.5</ele>
        <time>2015-04-12T07:29:40Z</time>
      </trkpt>
      <trkpt lat="46.98734" lon="-1.33371">
        <ele>36.4</ele>
        <time>2015-04-12T07:29:52Z</time>
      </trkpt>
      <trkpt lat="46.98733" lon="-1.33398">
        <ele>32</ele>
        <time>2015-04-12T07:30:02Z</time>
      </trkpt>
      <trkpt lat="46.98744" lon="-1.33421">
        <ele>32.8</ele>
        <time>2015-04-12T07:30:37Z</time>
      </trkpt>
      <trkpt lat="46.98768" lon="-1.33429">
        <ele>32.7</ele>
        <time>2015-04-12T07:31:06Z</time>
      </trkpt>
      <trkpt lat="46.98778" lon="-1.33453">
        <ele>33.1</ele>
        <time>2015-04-12T07:31:20Z</time>
      </trkpt>
      <trkpt lat="46.98782" lon="-1.33479">
        <ele>33.7</ele>
        <time>2015-04-12T07:31:27Z</time>
      </trkpt>
      <trkpt lat="46.98788" lon="-1.33507">
        <ele>34.9</ele>
        <time>2015-04-12T07:31:35Z</time>
      </trkpt>
      <trkpt lat="46.98798" lon="-1.33531">
        <ele>35.5</ele>
        <time>2015-04-12T07:31:42Z</time>
      </trkpt>
      <trkpt lat="46.9879" lon="-1.33555">
        <ele>37.4</ele>
        <time>2015-04-12T07:31:55Z</time>
      </trkpt>
      <trkpt lat="46.98792" lon="-1.33582">
        <ele>38.2</ele>
        <time>2015-04-12T07:32:13Z</time>
      </trkpt>
      <trkpt lat="46.98805" lon="-1.33604">
        <ele>37.5</ele>
        <time>2015-04-12T07:32:21Z</time>
      </trkpt>
      <trkpt lat="46.98805" lon="-1.33634">
        <ele>37.5</ele>
        <time>2015-04-12T07:32:26Z</time>
      </trkpt>
      <trkpt lat="46.98808" lon="-1.33662">
        <ele>37</ele>
        <time>2015-04-12T07:32:32Z</time>
      </trkpt>
      <trkpt lat="46.98817" lon="-1.33688">
        <ele>36.1</ele>
        <time>2015-04-12T07:32:40Z</time>
      </trkpt>
      <trkpt lat="46.98823" lon="-1.33715">
        <ele>36.2</ele>
        <time>2015-04-12T07:32:48Z</time>
      </trkpt>
      <trkpt lat="46.98829" lon="-1.33742">
        <ele>36.4</ele>
        <time>2015-04-12T07:32:54Z</time>
      </trkpt>
      <trkpt lat="46.98835" lon="-1.33766">
        <ele>36.7</ele>
        <time>2015-04-12T07:33:02Z</time>
      </trkpt>
      <trkpt lat="46.98846" lon="-1.3379">
        <ele>36.1</ele>
        <time>2015-04-12T07:33:08Z</time>
      </trkpt>
      <trkpt lat="46.98858" lon="-1.33814">
        <ele>36.4</ele>
        <time>2015-04-12T07:33:14Z</time>
      </trkpt>
      <trkpt lat="46.98862" lon="-1.33841">
        <ele>34.7</ele>
        <time>2015-04-12T07:33:20Z</time>
      </trkpt>
      <trkpt lat="46.98866" lon="-1.3387">
        <ele>33.2</ele>
        <time>2015-04-12T07:33:25Z</time>
      </trkpt>
      <trkpt lat="46.9886" lon="-1.33898">
        <ele>32.5</ele>
        <time>2015-04-12T07:33:29Z</time>
      </trkpt>
      <trkpt lat="46.98862" lon="-1.3393">
        <ele>31.5</ele>
        <time>2015-04-12T07:33:34Z</time>
      </trkpt>
      <trkpt lat="46.98875" lon="-1.33951">
        <ele>30.1</ele>
        <time>2015-04-12T07:33:38Z</time>
      </trkpt>
      <trkpt lat="46.98884" lon="-1.33976">
        <ele>29.8</ele>
        <time>2015-04-12T07:33:43Z</time>
      </trkpt>
      <trkpt lat="46.98892" lon="-1.34002">
        <ele>28.7</ele>
        <time>2015-04-12T07:33:48Z</time>
      </trkpt>
      <trkpt lat="46.98904" lon="-1.34022">
        <ele>28.1</ele>
        <time>2015-04-12T07:33:53Z</time>
      </trkpt>
      <trkpt lat="46.98916" lon="-1.34046">
        <ele>28.5</ele>
        <time>2015-04-12T07:33:58Z</time>
      </trkpt>
      <trkpt lat="46.98928" lon="-1.34065">
        <ele>28.9</ele>
        <time>2015-04-12T07:34:03Z</time>
      </trkpt>
      <trkpt lat="46.98937" lon="-1.34089">
        <ele>28.5</ele>
        <time>2015-04-12T07:34:08Z</time>
      </trkpt>
      <trkpt lat="46.98947" lon="-1.34117">
        <ele>27.7</ele>
        <time>2015-04-12T07:34:14Z</time>
      </trkpt>
      <trkpt lat="46.98961" lon="-1.3414">
        <ele>24.6</ele>
        <time>2015-04-12T07:34:20Z</time>
      </trkpt>
      <trkpt lat="46.98971" lon="-1.34165">
        <ele>23.8</ele>
        <time>2015-04-12T07:34:26Z</time>
      </trkpt>
      <trkpt lat="46.98982" lon="-1.34188">
        <ele>24.4</ele>
        <time>2015-04-12T07:34:32Z</time>
      </trkpt>
      <trkpt lat="46.98997" lon="-1.3421">
        <ele>22</ele>
        <time>2015-04-12T07:34:37Z</time>
      </trkpt>
      <trkpt lat="46.99013" lon="-1.34229">
        <ele>20.3</ele>
        <time>2015-04-12T07:34:43Z</time>
      </trkpt>
      <trkpt lat="46.99031" lon="-1.3424">
        <ele>20.1</ele>
        <time>2015-04-12T07:34:48Z</time>
      </trkpt>
      <trkpt lat="46.99046" lon="-1.3426">
        <ele>20.9</ele>
        <time>2015-04-12T07:34:54Z</time>
      </trkpt>
      <trkpt lat="46.99062" lon="-1.34274">
        <ele>19.9</ele>
        <time>2015-04-12T07:35:00Z</time>
      </trkpt>
      <trkpt lat="46.99083" lon="-1.34282">
        <ele>19</ele>
        <time>2015-04-12T07:35:07Z</time>
      </trkpt>
      <trkpt lat="46.99101" lon="-1.34283">
        <ele>19.6</ele>
        <time>2015-04-12T07:35:12Z</time>
      </trkpt>
      <trkpt lat="46.9912" lon="-1.34294">
        <ele>19.7</ele>
        <time>2015-04-12T07:35:19Z</time>
      </trkpt>
      <trkpt lat="46.99138" lon="-1.34302">
        <ele>19.1</ele>
        <time>2015-04-12T07:35:27Z</time>
      </trkpt>
      <trkpt lat="46.99158" lon="-1.34308">
        <ele>18.9</ele>
        <time>2015-04-12T07:35:34Z</time>
      </trkpt>
      <trkpt lat="46.99174" lon="-1.34318">
        <ele>21.3</ele>
        <time>2015-04-12T07:35:42Z</time>
      </trkpt>
      <trkpt lat="46.99187" lon="-1.34337">
        <ele>24</ele>
        <time>2015-04-12T07:35:51Z</time>
      </trkpt>
      <trkpt lat="46.99202" lon="-1.34353">
        <ele>26.3</ele>
        <time>2015-04-12T07:36:14Z</time>
      </trkpt>
      <trkpt lat="46.99218" lon="-1.34366">
        <ele>24.4</ele>
        <time>2015-04-12T07:41:21Z</time>
      </trkpt>
      <trkpt lat="46.99231" lon="-1.34389">
        <ele>30.9</ele>
        <time>2015-04-12T07:56:29Z</time>
      </trkpt>
      <trkpt lat="46.99243" lon="-1.34411">
        <ele>30.6</ele>
        <time>2015-04-12T07:56:35Z</time>
      </trkpt>
      <trkpt lat="46.99256" lon="-1.34431">
        <ele>30.6</ele>
        <time>2015-04-12T07:56:43Z</time>
      </trkpt>
      <trkpt lat="46.99267" lon="-1.34454">
        <ele>30.9</ele>
        <time>2015-04-12T07:56:54Z</time>
      </trkpt>
      <trkpt lat="46.99263" lon="-1.3448">
        <ele>30.8</ele>
        <time>2015-04-12T07:57:12Z</time>
      </trkpt>
      <trkpt lat="46.99265" lon="-1.34507">
        <ele>28</ele>
        <time>2015-04-12T07:57:58Z</time>
      </trkpt>
      <trkpt lat="46.9928" lon="-1.34528">
        <ele>27.8</ele>
        <time>2015-04-12T07:58:05Z</time>
      </trkpt>
      <trkpt lat="46.99297" lon="-1.34544">
        <ele>27</ele>
        <time>2015-04-12T07:58:15Z</time>
      </trkpt>
      <trkpt lat="46.99305" lon="-1.34577">
        <ele>26.9</ele>
        <time>2015-04-12T07:58:20Z</time>
      </trkpt>
      <trkpt lat="46.99315" lon="-1.346">
        <ele>26.4</ele>
        <time>2015-04-12T07:58:24Z</time>
      </trkpt>
      <trkpt lat="46.99322" lon="-1.34628">
        <ele>25.9</ele>
        <time>2015-04-12T07:58:30Z</time>
      </trkpt>
      <trkpt lat="46.99334" lon="-1.34651">
        <ele>25.8</ele>
        <time>2015-04-12T07:58:35Z</time>
      </trkpt>
      <trkpt lat="46.99345" lon="-1.34675">
        <ele>25.6</ele>
        <time>2015-04-12T07:58:40Z</time>
      </trkpt>
      <trkpt lat="46.99359" lon="-1.34693">
        <ele>24</ele>
        <time>2015-04-12T07:58:52Z</time>
      </trkpt>
      <trkpt lat="46.99369" lon="-1.34718">
        <ele>23.6</ele>
        <time>2015-04-12T07:58:59Z</time>
      </trkpt>
      <trkpt lat="46.99382" lon="-1.34697">
        <ele>22.6</ele>
        <time>2015-04-12T07:59:05Z</time>
      </trkpt>
      <trkpt lat="46.99395" lon="-1.34674">
        <ele>23.5</ele>
        <time>2015-04-12T07:59:12Z</time>
      </trkpt>
      <trkpt lat="46.994" lon="-1.347">
        <ele>29.2</ele>
        <time>2015-04-12T07:59:25Z</time>
      </trkpt>
      <trkpt lat="46.99395" lon="-1.34729">
        <ele>29.1</ele>
        <time>2015-04-12T07:59:31Z</time>
      </trkpt>
      <trkpt lat="46.99399" lon="-1.34758">
        <ele>29.3</ele>
        <time>2015-04-12T07:59:36Z</time>
      </trkpt>
      <trkpt lat="46.99409" lon="-1.34784">
        <ele>30.7</ele>
        <time>2015-04-12T07:59:42Z</time>
      </trkpt>
      <trkpt lat="46.99422" lon="-1.34809">
        <ele>30.4</ele>
        <time>2015-04-12T07:59:47Z</time>
      </trkpt>
      <trkpt lat="46.99431" lon="-1.34833">
        <ele>29</ele>
        <time>2015-04-12T07:59:52Z</time>
      </trkpt>
      <trkpt lat="46.99437" lon="-1.3486">
        <ele>29</ele>
        <time>2015-04-12T07:59:57Z</time>
      </trkpt>
      <trkpt lat="46.99449" lon="-1.34882">
        <ele>28.5</ele>
        <time>2015-04-12T08:00:02Z</time>
      </trkpt>
      <trkpt lat="46.99442" lon="-1.34911">
        <ele>29.1</ele>
        <time>2015-04-12T08:00:09Z</time>
      </trkpt>
      <trkpt lat="46.99438" lon="-1.34937">
        <ele>29.6</ele>
        <time>2015-04-12T08:00:13Z</time>
      </trkpt>
      <trkpt lat="46.99441" lon="-1.34965">
        <ele>30</ele>
        <time>2015-04-12T08:00:19Z</time>
      </trkpt>
      <trkpt lat="46.99456" lon="-1.3498">
        <ele>30.7</ele>
        <time>2015-04-12T08:00:29Z</time>
      </trkpt>
      <trkpt lat="46.99443" lon="-1.35005">
        <ele>29.9</ele>
        <time>2015-04-12T08:00:37Z</time>
      </trkpt>
      <trkpt lat="46.99441" lon="-1.35033">
        <ele>29.7</ele>
        <time>2015-04-12T08:00:42Z</time>
      </trkpt>
      <trkpt lat="46.99452" lon="-1.35057">
        <ele>29.5</ele>
        <time>2015-04-12T08:00:46Z</time>
      </trkpt>
      <trkpt lat="46.99467" lon="-1.35077">
        <ele>28.7</ele>
        <time>2015-04-12T08:00:50Z</time>
      </trkpt>
      <trkpt lat="46.99486" lon="-1.35094">
        <ele>28</ele>
        <time>2015-04-12T08:00:54Z</time>
      </trkpt>
      <trkpt lat="46.99502" lon="-1.35112">
        <ele>27.3</ele>
        <time>2015-04-12T08:00:58Z</time>
      </trkpt>
      <trkpt lat="46.99519" lon="-1.35126">
        <ele>27.2</ele>
        <time>2015-04-12T08:01:02Z</time>
      </trkpt>
      <trkpt lat="46.99541" lon="-1.3513">
        <ele>26.7</ele>
        <time>2015-04-12T08:01:07Z</time>
      </trkpt>
      <trkpt lat="46.99563" lon="-1.35132">
        <ele>26.1</ele>
        <time>2015-04-12T08:01:12Z</time>
      </trkpt>
      <trkpt lat="46.99583" lon="-1.35132">
        <ele>25.1</ele>
        <time>2015-04-12T08:01:17Z</time>
      </trkpt>
      <trkpt lat="46.99601" lon="-1.35131">
        <ele>24</ele>
        <time>2015-04-12T08:01:21Z</time>
      </trkpt>
      <trkpt lat="46.99623" lon="-1.35132">
        <ele>19.4</ele>
        <time>2015-04-12T08:01:26Z</time>
      </trkpt>
      <trkpt lat="46.99641" lon="-1.35126">
        <ele>16.5</ele>
        <time>2015-04-12T08:01:30Z</time>
      </trkpt>
      <trkpt lat="46.99659" lon="-1.35112">
        <ele>15.6</ele>
        <time>2015-04-12T08:01:34Z</time>
      </trkpt>
      <trkpt lat="46.99672" lon="-1.35092">
        <ele>14.6</ele>
        <time>2015-04-12T08:01:38Z</time>
      </trkpt>
      <trkpt lat="46.99688" lon="-1.35071">
        <ele>14.4</ele>
        <time>2015-04-12T08:01:42Z</time>
      </trkpt>
      <trkpt lat="46.997" lon="-1.35047">
        <ele>15.2</ele>
        <time>2015-04-12T08:01:46Z</time>
      </trkpt>
      <trkpt lat="46.9971" lon="-1.35019">
        <ele>15.7</ele>
        <time>2015-04-12T08:01:50Z</time>
      </trkpt>
      <trkpt lat="46.99715" lon="-1.34992">
        <ele>16.9</ele>
        <time>2015-04-12T08:01:54Z</time>
      </trkpt>
      <trkpt lat="46.99723" lon="-1.34967">
        <ele>17.5</ele>
        <time>2015-04-12T08:02:02Z</time>
      </trkpt>
      <trkpt lat="46.99741" lon="-1.34963">
        <ele>18.2</ele>
        <time>2015-04-12T08:02:14Z</time>
      </trkpt>
      <trkpt lat="46.99761" lon="-1.34957">
        <ele>18.6</ele>
        <time>2015-04-12T08:02:23Z</time>
      </trkpt>
      <trkpt lat="46.99781" lon="-1.34959">
        <ele>19.3</ele>
        <time>2015-04-12T08:02:30Z</time>
      </trkpt>
      <trkpt lat="46.99799" lon="-1.34965">
        <ele>20.4</ele>
        <time>2015-04-12T08:02:38Z</time>
      </trkpt>
      <trkpt lat="46.99818" lon="-1.34972">
        <ele>20.9</ele>
        <time>2015-04-12T08:02:49Z</time>
      </trkpt>
      <trkpt lat="46.99835" lon="-1.34986">
        <ele>21.1</ele>
        <time>2015-04-12T08:02:57Z</time>
      </trkpt>
      <trkpt lat="46.9985" lon="-1.35002">
        <ele>22.3</ele>
        <time>2015-04-12T08:03:09Z</time>
      </trkpt>
      <trkpt lat="46.99858" lon="-1.35028">
        <ele>23.7</ele>
        <time>2015-04-12T08:03:21Z</time>
      </trkpt>
      <trkpt lat="46.99869" lon="-1.35051">
        <ele>23.8</ele>
        <time>2015-04-12T08:03:32Z</time>
      </trkpt>
      <trkpt lat="46.99878" lon="-1.35074">
        <ele>23.7</ele>
        <time>2015-04-12T08:03:37Z</time>
      </trkpt>
      <trkpt lat="46.99889" lon="-1.35097">
        <ele>24.8</ele>
        <time>2015-04-12T08:03:46Z</time>
      </trkpt>
      <trkpt lat="46.99897" lon="-1.35124">
        <ele>26.4</ele>
        <time>2015-04-12T08:03:58Z</time>
      </trkpt>
      <trkpt lat="46.99905" lon="-1.3515">
        <ele>27</ele>
        <time>2015-04-12T08:04:09Z</time>
      </trkpt>
      <trkpt lat="46.99916" lon="-1.35174">
        <ele>27.1</ele>
        <time>2015-04-12T08:04:16Z</time>
      </trkpt>
      <trkpt lat="46.99926" lon="-1.35196">
        <ele>26.8</ele>
        <time>2015-04-12T08:04:22Z</time>
      </trkpt>
      <trkpt lat="46.99938" lon="-1.3522">
        <ele>26.3</ele>
        <time>2015-04-12T08:04:28Z</time>
      </trkpt>
      <trkpt lat="46.99951" lon="-1.35244">
        <ele>27.1</ele>
        <time>2015-04-12T08:04:34Z</time>
      </trkpt>
      <trkpt lat="46.99961" lon="-1.35267">
        <ele>27.5</ele>
        <time>2015-04-12T08:04:39Z</time>
      </trkpt>
      <trkpt lat="46.99976" lon="-1.35284">
        <ele>27</ele>
        <time>2015-04-12T08:04:49Z</time>
      </trkpt>
      <trkpt lat="46.99988" lon="-1.35304">
        <ele>25.9</ele>
        <time>2015-04-12T08:05:00Z</time>
      </trkpt>
      <trkpt lat="47.00004" lon="-1.35321">
        <ele>24.6</ele>
        <time>2015-04-12T08:05:09Z</time>
      </trkpt>
      <trkpt lat="47.00018" lon="-1.35338">
        <ele>23.4</ele>
        <time>2015-04-12T08:05:16Z</time>
      </trkpt>
      <trkpt lat="47.00034" lon="-1.35358">
        <ele>22.3</ele>
        <time>2015-04-12T08:05:23Z</time>
      </trkpt>
      <trkpt lat="47.0005" lon="-1.35375">
        <ele>21</ele>
        <time>2015-04-12T08:05:30Z</time>
      </trkpt>
      <trkpt lat="47.00066" lon="-1.35392">
        <ele>19.8</ele>
        <time>2015-04-12T08:05:36Z</time>
      </trkpt>
      <trkpt lat="47.00082" lon="-1.35405">
        <ele>19.8</ele>
        <time>2015-04-12T08:05:40Z</time>
      </trkpt>
      <trkpt lat="47.00098" lon="-1.3542">
        <ele>19</ele>
        <time>2015-04-12T08:05:45Z</time>
      </trkpt>
      <trkpt lat="47.00113" lon="-1.35435">
        <ele>18.9</ele>
        <time>2015-04-12T08:05:49Z</time>
      </trkpt>
      <trkpt lat="47.00131" lon="-1.35452">
        <ele>18.5</ele>
        <time>2015-04-12T08:05:54Z</time>
      </trkpt>
      <trkpt lat="47.00149" lon="-1.35469">
        <ele>17.5</ele>
        <time>2015-04-12T08:05:59Z</time>
      </trkpt>
      <trkpt lat="47.00165" lon="-1.35486">
        <ele>16.2</ele>
        <time>2015-04-12T08:06:04Z</time>
      </trkpt>
      <trkpt lat="47.00182" lon="-1.355">
        <ele>15.2</ele>
        <time>2015-04-12T08:06:09Z</time>
      </trkpt>
      <trkpt lat="47.00199" lon="-1.35516">
        <ele>14.3</ele>
        <time>2015-04-12T08:06:14Z</time>
      </trkpt>
      <trkpt lat="47.00219" lon="-1.35522">
        <ele>14.4</ele>
        <time>2015-04-12T08:06:19Z</time>
      </trkpt>
      <trkpt lat="47.0024" lon="-1.35512">
        <ele>14.7</ele>
        <time>2015-04-12T08:06:25Z</time>
      </trkpt>
      <trkpt lat="47.00261" lon="-1.35503">
        <ele>14.2</ele>
        <time>2015-04-12T08:06:30Z</time>
      </trkpt>
      <trkpt lat="47.0028" lon="-1.3549">
        <ele>13.3</ele>
        <time>2015-04-12T08:06:35Z</time>
      </trkpt>
      <trkpt lat="47.00297" lon="-1.35478">
        <ele>12.5</ele>
        <time>2015-04-12T08:06:42Z</time>
      </trkpt>
      <trkpt lat="47.00298" lon="-1.35448">
        <ele>13.3</ele>
        <time>2015-04-12T08:06:49Z</time>
      </trkpt>
      <trkpt lat="47.00301" lon="-1.35422">
        <ele>14.2</ele>
        <time>2015-04-12T08:06:57Z</time>
      </trkpt>
      <trkpt lat="47.00319" lon="-1.35436">
        <ele>15.5</ele>
        <time>2015-04-12T08:07:12Z</time>
      </trkpt>
      <trkpt lat="47.00327" lon="-1.35413">
        <ele>21.8</ele>
        <time>2015-04-12T08:08:47Z</time>
      </trkpt>
      <trkpt lat="47.00342" lon="-1.35427">
        <ele>21.9</ele>
        <time>2015-04-12T08:09:14Z</time>
      </trkpt>
      <trkpt lat="47.00353" lon="-1.35448">
        <ele>21.8</ele>
        <time>2015-04-12T08:09:19Z</time>
      </trkpt>
      <trkpt lat="47.00373" lon="-1.35443">
        <ele>21.8</ele>
        <time>2015-04-12T08:09:25Z</time>
      </trkpt>
      <trkpt lat="47.00382" lon="-1.35417">
        <ele>22.6</ele>
        <time>2015-04-12T08:09:31Z</time>
      </trkpt>
      <trkpt lat="47.00395" lon="-1.35399">
        <ele>23.1</ele>
        <time>2015-04-12T08:09:37Z</time>
      </trkpt>
      <trkpt lat="47.00405" lon="-1.35423">
        <ele>24.9</ele>
        <time>2015-04-12T08:09:46Z</time>
      </trkpt>
      <trkpt lat="47.00415" lon="-1.35447">
        <ele>25</ele>
        <time>2015-04-12T08:09:53Z</time>
      </trkpt>
      <trkpt lat="47.00432" lon="-1.35434">
        <ele>25</ele>
        <time>2015-04-12T08:10:01Z</time>
      </trkpt>
      <trkpt lat="47.00439" lon="-1.35406">
        <ele>26.2</ele>
        <time>2015-04-12T08:10:08Z</time>
      </trkpt>
      <trkpt lat="47.00437" lon="-1.35377">
        <ele>26.9</ele>
        <time>2015-04-12T08:10:15Z</time>
      </trkpt>
      <trkpt lat="47.00446" lon="-1.35353">
        <ele>28.1</ele>
        <time>2015-04-12T08:10:21Z</time>
      </trkpt>
      <trkpt lat="47.00456" lon="-1.3533">
        <ele>28.6</ele>
        <time>2015-04-12T08:10:27Z</time>
      </trkpt>
      <trkpt lat="47.00471" lon="-1.35312">
        <ele>30.2</ele>
        <time>2015-04-12T08:10:34Z</time>
      </trkpt>
      <trkpt lat="47.00489" lon="-1.35314">
        <ele>33.2</ele>
        <time>2015-04-12T08:10:40Z</time>
      </trkpt>
      <trkpt lat="47.00503" lon="-1.35332">
        <ele>34.5</ele>
        <time>2015-04-12T08:10:45Z</time>
      </trkpt>
      <trkpt lat="47.00515" lon="-1.35352">
        <ele>32.9</ele>
        <time>2015-04-12T08:10:50Z</time>
      </trkpt>
      <trkpt lat="47.0053" lon="-1.35373">
        <ele>32</ele>
        <time>2015-04-12T08:10:55Z</time>
      </trkpt>
      <trkpt lat="47.00544" lon="-1.35389">
        <ele>30.1</ele>
        <time>2015-04-12T08:11:00Z</time>
      </trkpt>
      <trkpt lat="47.00549" lon="-1.35415">
        <ele>29.8</ele>
        <time>2015-04-12T08:11:09Z</time>
      </trkpt>
      <trkpt lat="47.00558" lon="-1.35439">
        <ele>29.4</ele>
        <time>2015-04-12T08:11:19Z</time>
      </trkpt>
      <trkpt lat="47.00574" lon="-1.35457">
        <ele>28.6</ele>
        <time>2015-04-12T08:11:25Z</time>
      </trkpt>
      <trkpt lat="47.00595" lon="-1.35464">
        <ele>28.2</ele>
        <time>2015-04-12T08:11:32Z</time>
      </trkpt>
      <trkpt lat="47.00581" lon="-1.35444">
        <ele>28.1</ele>
        <time>2015-04-12T08:11:50Z</time>
      </trkpt>
      <trkpt lat="47.00565" lon="-1.35428">
        <ele>29.7</ele>
        <time>2015-04-12T08:11:59Z</time>
      </trkpt>
      <trkpt lat="47.00568" lon="-1.354">
        <ele>31.1</ele>
        <time>2015-04-12T08:12:10Z</time>
      </trkpt>
      <trkpt lat="47.00588" lon="-1.35407">
        <ele>33</ele>
        <time>2015-04-12T08:12:22Z</time>
      </trkpt>
      <trkpt lat="47.00595" lon="-1.35433">
        <ele>34.9</ele>
        <time>2015-04-12T08:12:41Z</time>
      </trkpt>
      <trkpt lat="47.00613" lon="-1.35425">
        <ele>35.8</ele>
        <time>2015-04-12T08:12:50Z</time>
      </trkpt>
      <trkpt lat="47.00631" lon="-1.35418">
        <ele>35.9</ele>
        <time>2015-04-12T08:13:00Z</time>
      </trkpt>
      <trkpt lat="47.0065" lon="-1.35424">
        <ele>35.6</ele>
        <time>2015-04-12T08:13:07Z</time>
      </trkpt>
      <trkpt lat="47.00667" lon="-1.35434">
        <ele>34.5</ele>
        <time>2015-04-12T08:13:14Z</time>
      </trkpt>
      <trkpt lat="47.00679" lon="-1.35458">
        <ele>34</ele>
        <time>2015-04-12T08:13:25Z</time>
      </trkpt>
      <trkpt lat="47.00698" lon="-1.35468">
        <ele>34</ele>
        <time>2015-04-12T08:13:35Z</time>
      </trkpt>
      <trkpt lat="47.00713" lon="-1.35485">
        <ele>34.2</ele>
        <time>2015-04-12T08:13:45Z</time>
      </trkpt>
      <trkpt lat="47.00729" lon="-1.355">
        <ele>34.2</ele>
        <time>2015-04-12T08:13:56Z</time>
      </trkpt>
      <trkpt lat="47.0074" lon="-1.35521">
        <ele>33.9</ele>
        <time>2015-04-12T08:14:03Z</time>
      </trkpt>
      <trkpt lat="47.00722" lon="-1.35518">
        <ele>35.9</ele>
        <time>2015-04-12T08:14:32Z</time>
      </trkpt>
      <trkpt lat="47.00707" lon="-1.355">
        <ele>36.6</ele>
        <time>2015-04-12T08:14:44Z</time>
      </trkpt>
      <trkpt lat="47.00693" lon="-1.35481">
        <ele>35.8</ele>
        <time>2015-04-12T08:14:58Z</time>
      </trkpt>
      <trkpt lat="47.00676" lon="-1.35486">
        <ele>35.7</ele>
        <time>2015-04-12T08:15:07Z</time>
      </trkpt>
      <trkpt lat="47.00663" lon="-1.35466">
        <ele>36.2</ele>
        <time>2015-04-12T08:15:28Z</time>
      </trkpt>
      <trkpt lat="47.0065" lon="-1.35485">
        <ele>35</ele>
        <time>2015-04-12T08:15:56Z</time>
      </trkpt>
      <trkpt lat="47.00668" lon="-1.35497">
        <ele>31.5</ele>
        <time>2015-04-12T08:16:58Z</time>
      </trkpt>
      <trkpt lat="47.00684" lon="-1.35514">
        <ele>30.2</ele>
        <time>2015-04-12T08:17:07Z</time>
      </trkpt>
      <trkpt lat="47.00699" lon="-1.3553">
        <ele>29.8</ele>
        <time>2015-04-12T08:17:14Z</time>
      </trkpt>
      <trkpt lat="47.00717" lon="-1.35545">
        <ele>30.2</ele>
        <time>2015-04-12T08:17:20Z</time>
      </trkpt>
      <trkpt lat="47.00735" lon="-1.35557">
        <ele>30.7</ele>
        <time>2015-04-12T08:17:26Z</time>
      </trkpt>
      <trkpt lat="47.0075" lon="-1.35539">
        <ele>31.1</ele>
        <time>2015-04-12T08:17:37Z</time>
      </trkpt>
      <trkpt lat="47.00757" lon="-1.35515">
        <ele>31.3</ele>
        <time>2015-04-12T08:17:45Z</time>
      </trkpt>
      <trkpt lat="47.00775" lon="-1.3552">
        <ele>31.3</ele>
        <time>2015-04-12T08:18:03Z</time>
      </trkpt>
      <trkpt lat="47.00791" lon="-1.35535">
        <ele>32.3</ele>
        <time>2015-04-12T08:18:11Z</time>
      </trkpt>
      <trkpt lat="47.00811" lon="-1.35541">
        <ele>33.6</ele>
        <time>2015-04-12T08:18:22Z</time>
      </trkpt>
      <trkpt lat="47.0083" lon="-1.35554">
        <ele>35.8</ele>
        <time>2015-04-12T08:18:28Z</time>
      </trkpt>
      <trkpt lat="47.00849" lon="-1.35569">
        <ele>36.7</ele>
        <time>2015-04-12T08:18:34Z</time>
      </trkpt>
      <trkpt lat="47.00867" lon="-1.3558">
        <ele>34.4</ele>
        <time>2015-04-12T08:18:40Z</time>
      </trkpt>
      <trkpt lat="47.00886" lon="-1.35591">
        <ele>32.4</ele>
        <time>2015-04-12T08:18:46Z</time>
      </trkpt>
      <trkpt lat="47.00905" lon="-1.35604">
        <ele>31.3</ele>
        <time>2015-04-12T08:18:51Z</time>
      </trkpt>
      <trkpt lat="47.00924" lon="-1.35614">
        <ele>30.2</ele>
        <time>2015-04-12T08:18:56Z</time>
      </trkpt>
      <trkpt lat="47.00942" lon="-1.35599">
        <ele>28.9</ele>
        <time>2015-04-12T08:19:02Z</time>
      </trkpt>
      <trkpt lat="47.00951" lon="-1.35575">
        <ele>29.2</ele>
        <time>2015-04-12T08:19:06Z</time>
      </trkpt>
      <trkpt lat="47.00958" lon="-1.35551">
        <ele>30</ele>
        <time>2015-04-12T08:19:10Z</time>
      </trkpt>
      <trkpt lat="47.00968" lon="-1.35527">
        <ele>31.6</ele>
        <time>2015-04-12T08:19:15Z</time>
      </trkpt>
      <trkpt lat="47.0097" lon="-1.35498">
        <ele>33.4</ele>
        <time>2015-04-12T08:19:22Z</time>
      </trkpt>
      <trkpt lat="47.00973" lon="-1.3547">
        <ele>35.1</ele>
        <time>2015-04-12T08:19:28Z</time>
      </trkpt>
      <trkpt lat="47.00974" lon="-1.3544">
        <ele>36.3</ele>
        <time>2015-04-12T08:19:34Z</time>
      </trkpt>
      <trkpt lat="47.00971" lon="-1.35412">
        <ele>36.8</ele>
        <time>2015-04-12T08:19:39Z</time>
      </trkpt>
      <trkpt lat="47.00969" lon="-1.3538">
        <ele>36.3</ele>
        <time>2015-04-12T08:19:44Z</time>
      </trkpt>
      <trkpt lat="47.00964" lon="-1.35353">
        <ele>35.1</ele>
        <time>2015-04-12T08:19:48Z</time>
      </trkpt>
      <trkpt lat="47.00957" lon="-1.35327">
        <ele>34.3</ele>
        <time>2015-04-12T08:19:52Z</time>
      </trkpt>
      <trkpt lat="47.00949" lon="-1.35302">
        <ele>33.4</ele>
        <time>2015-04-12T08:19:56Z</time>
      </trkpt>
      <trkpt lat="47.00942" lon="-1.35278">
        <ele>33</ele>
        <time>2015-04-12T08:20:00Z</time>
      </trkpt>
      <trkpt lat="47.00933" lon="-1.35253">
        <ele>32.6</ele>
        <time>2015-04-12T08:20:04Z</time>
      </trkpt>
      <trkpt lat="47.00924" lon="-1.35227">
        <ele>32.1</ele>
        <time>2015-04-12T08:20:08Z</time>
      </trkpt>
      <trkpt lat="47.00916" lon="-1.352">
        <ele>32.1</ele>
        <time>2015-04-12T08:20:12Z</time>
      </trkpt>
      <trkpt lat="47.00907" lon="-1.35173">
        <ele>32.3</ele>
        <time>2015-04-12T08:20:16Z</time>
      </trkpt>
      <trkpt lat="47.00897" lon="-1.35147">
        <ele>33.3</ele>
        <time>2015-04-12T08:20:20Z</time>
      </trkpt>
      <trkpt lat="47.00886" lon="-1.3512">
        <ele>33.5</ele>
        <time>2015-04-12T08:20:24Z</time>
      </trkpt>
      <trkpt lat="47.00875" lon="-1.35093">
        <ele>34</ele>
        <time>2015-04-12T08:20:28Z</time>
      </trkpt>
      <trkpt lat="47.00866" lon="-1.35068">
        <ele>33.8</ele>
        <time>2015-04-12T08:20:32Z</time>
      </trkpt>
      <trkpt lat="47.00857" lon="-1.35038">
        <ele>34.4</ele>
        <time>2015-04-12T08:20:36Z</time>
      </trkpt>
      <trkpt lat="47.00848" lon="-1.35012">
        <ele>34.6</ele>
        <time>2015-04-12T08:20:40Z</time>
      </trkpt>
      <trkpt lat="47.00838" lon="-1.34986">
        <ele>34.1</ele>
        <time>2015-04-12T08:20:44Z</time>
      </trkpt>
      <trkpt lat="47.00831" lon="-1.34958">
        <ele>34.5</ele>
        <time>2015-04-12T08:20:48Z</time>
      </trkpt>
      <trkpt lat="47.00825" lon="-1.34929">
        <ele>34.2</ele>
        <time>2015-04-12T08:20:52Z</time>
      </trkpt>
      <trkpt lat="47.00819" lon="-1.349">
        <ele>34.6</ele>
        <time>2015-04-12T08:20:56Z</time>
      </trkpt>
      <trkpt lat="47.00812" lon="-1.34871">
        <ele>35.5</ele>
        <time>2015-04-12T08:21:00Z</time>
      </trkpt>
      <trkpt lat="47.00809" lon="-1.34844">
        <ele>35.7</ele>
        <time>2015-04-12T08:21:04Z</time>
      </trkpt>
      <trkpt lat="47.00802" lon="-1.34815">
        <ele>35.7</ele>
        <time>2015-04-12T08:21:08Z</time>
      </trkpt>
      <trkpt lat="47.00797" lon="-1.34785">
        <ele>37.1</ele>
        <time>2015-04-12T08:21:12Z</time>
      </trkpt>
      <trkpt lat="47.00791" lon="-1.34756">
        <ele>38.1</ele>
        <time>2015-04-12T08:21:16Z</time>
      </trkpt>
      <trkpt lat="47.00787" lon="-1.34726">
        <ele>38.8</ele>
        <time>2015-04-12T08:21:20Z</time>
      </trkpt>
      <trkpt lat="47.00786" lon="-1.34697">
        <ele>38.6</ele>
        <time>2015-04-12T08:21:24Z</time>
      </trkpt>
      <trkpt lat="47.00787" lon="-1.34666">
        <ele>38.9</ele>
        <time>2015-04-12T08:21:28Z</time>
      </trkpt>
      <trkpt lat="47.00793" lon="-1.34633">
        <ele>37.8</ele>
        <time>2015-04-12T08:21:32Z</time>
      </trkpt>
      <trkpt lat="47.00807" lon="-1.34612">
        <ele>37</ele>
        <time>2015-04-12T08:21:36Z</time>
      </trkpt>
      <trkpt lat="47.00822" lon="-1.34596">
        <ele>36.6</ele>
        <time>2015-04-12T08:21:40Z</time>
      </trkpt>
      <trkpt lat="47.00841" lon="-1.34578">
        <ele>36.8</ele>
        <time>2015-04-12T08:21:44Z</time>
      </trkpt>
      <trkpt lat="47.00862" lon="-1.34563">
        <ele>35.7</ele>
        <time>2015-04-12T08:21:48Z</time>
      </trkpt>
      <trkpt lat="47.00883" lon="-1.34549">
        <ele>34.1</ele>
        <time>2015-04-12T08:21:52Z</time>
      </trkpt>
      <trkpt lat="47.00903" lon="-1.34533">
        <ele>33.5</ele>
        <time>2015-04-12T08:21:56Z</time>
      </trkpt>
      <trkpt lat="47.00922" lon="-1.34519">
        <ele>31.8</ele>
        <time>2015-04-12T08:22:00Z</time>
      </trkpt>
      <trkpt lat="47.00943" lon="-1.34504">
        <ele>36.4</ele>
        <time>2015-04-12T08:22:04Z</time>
      </trkpt>
      <trkpt lat="47.00963" lon="-1.34506">
        <ele>37.8</ele>
        <time>2015-04-12T08:22:08Z</time>
      </trkpt>
      <trkpt lat="47.00979" lon="-1.3452">
        <ele>38.8</ele>
        <time>2015-04-12T08:22:11Z</time>
      </trkpt>
      <trkpt lat="47.00997" lon="-1.34538">
        <ele>38.6</ele>
        <time>2015-04-12T08:22:15Z</time>
      </trkpt>
      <trkpt lat="47.01017" lon="-1.34558">
        <ele>38.9</ele>
        <time>2015-04-12T08:22:19Z</time>
      </trkpt>
      <trkpt lat="47.01035" lon="-1.34579">
        <ele>38.8</ele>
        <time>2015-04-12T08:22:23Z</time>
      </trkpt>
      <trkpt lat="47.0105" lon="-1.34596">
        <ele>38.2</ele>
        <time>2015-04-12T08:22:26Z</time>
      </trkpt>
      <trkpt lat="47.01066" lon="-1.34612">
        <ele>37.7</ele>
        <time>2015-04-12T08:22:29Z</time>
      </trkpt>
      <trkpt lat="47.01081" lon="-1.34628">
        <ele>37.4</ele>
        <time>2015-04-12T08:22:32Z</time>
      </trkpt>
      <trkpt lat="47.01098" lon="-1.34645">
        <ele>36.4</ele>
        <time>2015-04-12T08:22:35Z</time>
      </trkpt>
      <trkpt lat="47.01114" lon="-1.34662">
        <ele>36.1</ele>
        <time>2015-04-12T08:22:38Z</time>
      </trkpt>
      <trkpt lat="47.01129" lon="-1.34679">
        <ele>35</ele>
        <time>2015-04-12T08:22:41Z</time>
      </trkpt>
      <trkpt lat="47.01145" lon="-1.34697">
        <ele>34.7</ele>
        <time>2015-04-12T08:22:44Z</time>
      </trkpt>
      <trkpt lat="47.01161" lon="-1.34715">
        <ele>34.4</ele>
        <time>2015-04-12T08:22:47Z</time>
      </trkpt>
      <trkpt lat="47.01178" lon="-1.34734">
        <ele>33.9</ele>
        <time>2015-04-12T08:22:50Z</time>
      </trkpt>
      <trkpt lat="47.01197" lon="-1.34749">
        <ele>33.1</ele>
        <time>2015-04-12T08:22:53Z</time>
      </trkpt>
      <trkpt lat="47.01215" lon="-1.34763">
        <ele>31.3</ele>
        <time>2015-04-12T08:22:56Z</time>
      </trkpt>
      <trkpt lat="47.01234" lon="-1.34776">
        <ele>30</ele>
        <time>2015-04-12T08:22:59Z</time>
      </trkpt>
      <trkpt lat="47.01253" lon="-1.34789">
        <ele>30.8</ele>
        <time>2015-04-12T08:23:02Z</time>
      </trkpt>
      <trkpt lat="47.01272" lon="-1.34803">
        <ele>30</ele>
        <time>2015-04-12T08:23:05Z</time>
      </trkpt>
      <trkpt lat="47.01291" lon="-1.3481">
        <ele>29</ele>
        <time>2015-04-12T08:23:08Z</time>
      </trkpt>
      <trkpt lat="47.01308" lon="-1.34824">
        <ele>28.6</ele>
        <time>2015-04-12T08:23:11Z</time>
      </trkpt>
      <trkpt lat="47.01322" lon="-1.34841">
        <ele>28.2</ele>
        <time>2015-04-12T08:23:14Z</time>
      </trkpt>
      <trkpt lat="47.01338" lon="-1.34862">
        <ele>28.4</ele>
        <time>2015-04-12T08:23:18Z</time>
      </trkpt>
      <trkpt lat="47.01356" lon="-1.34844">
        <ele>28.4</ele>
        <time>2015-04-12T08:23:23Z</time>
      </trkpt>
      <trkpt lat="47.01367" lon="-1.34821">
        <ele>28.5</ele>
        <time>2015-04-12T08:23:27Z</time>
      </trkpt>
      <trkpt lat="47.01373" lon="-1.34792">
        <ele>28.7</ele>
        <time>2015-04-12T08:23:31Z</time>
      </trkpt>
      <trkpt lat="47.01375" lon="-1.34766">
        <ele>29.3</ele>
        <time>2015-04-12T08:23:34Z</time>
      </trkpt>
      <trkpt lat="47.01382" lon="-1.34736">
        <ele>29.8</ele>
        <time>2015-04-12T08:23:38Z</time>
      </trkpt>
      <trkpt lat="47.01402" lon="-1.34721">
        <ele>31.2</ele>
        <time>2015-04-12T08:23:43Z</time>
      </trkpt>
      <trkpt lat="47.01415" lon="-1.3474">
        <ele>32.3</ele>
        <time>2015-04-12T08:23:47Z</time>
      </trkpt>
      <trkpt lat="47.01429" lon="-1.3476">
        <ele>33.3</ele>
        <time>2015-04-12T08:23:51Z</time>
      </trkpt>
      <trkpt lat="47.01445" lon="-1.34778">
        <ele>35</ele>
        <time>2015-04-12T08:23:55Z</time>
      </trkpt>
      <trkpt lat="47.01461" lon="-1.34799">
        <ele>36.3</ele>
        <time>2015-04-12T08:23:59Z</time>
      </trkpt>
      <trkpt lat="47.01476" lon="-1.3482">
        <ele>37.1</ele>
        <time>2015-04-12T08:24:03Z</time>
      </trkpt>
      <trkpt lat="47.0149" lon="-1.3484">
        <ele>37.7</ele>
        <time>2015-04-12T08:24:07Z</time>
      </trkpt>
      <trkpt lat="47.01504" lon="-1.3486">
        <ele>38.6</ele>
        <time>2015-04-12T08:24:11Z</time>
      </trkpt>
      <trkpt lat="47.01515" lon="-1.34883">
        <ele>39.3</ele>
        <time>2015-04-12T08:24:16Z</time>
      </trkpt>
      <trkpt lat="47.01523" lon="-1.34908">
        <ele>40.5</ele>
        <time>2015-04-12T08:24:21Z</time>
      </trkpt>
      <trkpt lat="47.01539" lon="-1.34926">
        <ele>40.8</ele>
        <time>2015-04-12T08:24:25Z</time>
      </trkpt>
      <trkpt lat="47.01554" lon="-1.34944">
        <ele>41.6</ele>
        <time>2015-04-12T08:24:29Z</time>
      </trkpt>
      <trkpt lat="47.01568" lon="-1.34964">
        <ele>42.2</ele>
        <time>2015-04-12T08:24:33Z</time>
      </trkpt>
      <trkpt lat="47.01586" lon="-1.34975">
        <ele>42.9</ele>
        <time>2015-04-12T08:24:38Z</time>
      </trkpt>
      <trkpt lat="47.01602" lon="-1.34992">
        <ele>44.3</ele>
        <time>2015-04-12T08:24:46Z</time>
      </trkpt>
      <trkpt lat="47.01621" lon="-1.34998">
        <ele>47.2</ele>
        <time>2015-04-12T08:24:57Z</time>
      </trkpt>
      <trkpt lat="47.01639" lon="-1.35006">
        <ele>49</ele>
        <time>2015-04-12T08:25:05Z</time>
      </trkpt>
      <trkpt lat="47.01658" lon="-1.35015">
        <ele>52.9</ele>
        <time>2015-04-12T08:25:16Z</time>
      </trkpt>
      <trkpt lat="47.01672" lon="-1.35032">
        <ele>55</ele>
        <time>2015-04-12T08:25:25Z</time>
      </trkpt>
      <trkpt lat="47.01691" lon="-1.35035">
        <ele>57.5</ele>
        <time>2015-04-12T08:25:34Z</time>
      </trkpt>
      <trkpt lat="47.01709" lon="-1.35029">
        <ele>58.5</ele>
        <time>2015-04-12T08:25:40Z</time>
      </trkpt>
      <trkpt lat="47.01729" lon="-1.3503">
        <ele>59.5</ele>
        <time>2015-04-12T08:25:46Z</time>
      </trkpt>
      <trkpt lat="47.01747" lon="-1.35021">
        <ele>60.5</ele>
        <time>2015-04-12T08:25:52Z</time>
      </trkpt>
      <trkpt lat="47.01764" lon="-1.35013">
        <ele>61.8</ele>
        <time>2015-04-12T08:26:01Z</time>
      </trkpt>
      <trkpt lat="47.01781" lon="-1.35025">
        <ele>61.8</ele>
        <time>2015-04-12T08:26:07Z</time>
      </trkpt>
      <trkpt lat="47.018" lon="-1.35012">
        <ele>60.2</ele>
        <time>2015-04-12T08:26:12Z</time>
      </trkpt>
      <trkpt lat="47.01818" lon="-1.34997">
        <ele>56.8</ele>
        <time>2015-04-12T08:26:17Z</time>
      </trkpt>
      <trkpt lat="47.01834" lon="-1.34982">
        <ele>55.3</ele>
        <time>2015-04-12T08:26:21Z</time>
      </trkpt>
      <trkpt lat="47.0185" lon="-1.34962">
        <ele>53.5</ele>
        <time>2015-04-12T08:26:27Z</time>
      </trkpt>
      <trkpt lat="47.01867" lon="-1.34973">
        <ele>51.5</ele>
        <time>2015-04-12T08:26:35Z</time>
      </trkpt>
      <trkpt lat="47.01861" lon="-1.34948">
        <ele>51.8</ele>
        <time>2015-04-12T08:26:46Z</time>
      </trkpt>
      <trkpt lat="47.01877" lon="-1.34932">
        <ele>52.1</ele>
        <time>2015-04-12T08:26:58Z</time>
      </trkpt>
      <trkpt lat="47.01897" lon="-1.34928">
        <ele>51.5</ele>
        <time>2015-04-12T08:27:06Z</time>
      </trkpt>
      <trkpt lat="47.01913" lon="-1.34942">
        <ele>51.4</ele>
        <time>2015-04-12T08:27:15Z</time>
      </trkpt>
      <trkpt lat="47.0193" lon="-1.34958">
        <ele>51.2</ele>
        <time>2015-04-12T08:27:23Z</time>
      </trkpt>
      <trkpt lat="47.01948" lon="-1.34971">
        <ele>50.6</ele>
        <time>2015-04-12T08:27:31Z</time>
      </trkpt>
      <trkpt lat="47.01964" lon="-1.34982">
        <ele>51.3</ele>
        <time>2015-04-12T08:27:41Z</time>
      </trkpt>
      <trkpt lat="47.01982" lon="-1.34988">
        <ele>51.1</ele>
        <time>2015-04-12T08:27:47Z</time>
      </trkpt>
      <trkpt lat="47.02001" lon="-1.34985">
        <ele>50.9</ele>
        <time>2015-04-12T08:27:54Z</time>
      </trkpt>
      <trkpt lat="47.02014" lon="-1.34963">
        <ele>51.2</ele>
        <time>2015-04-12T08:28:02Z</time>
      </trkpt>
      <trkpt lat="47.02028" lon="-1.34942">
        <ele>50.9</ele>
        <time>2015-04-12T08:28:10Z</time>
      </trkpt>
      <trkpt lat="47.02041" lon="-1.34923">
        <ele>51</ele>
        <time>2015-04-12T08:28:17Z</time>
      </trkpt>
      <trkpt lat="47.02057" lon="-1.34904">
        <ele>51.4</ele>
        <time>2015-04-12T08:28:26Z</time>
      </trkpt>
      <trkpt lat="47.02069" lon="-1.34884">
        <ele>52.9</ele>
        <time>2015-04-12T08:28:31Z</time>
      </trkpt>
      <trkpt lat="47.02081" lon="-1.34862">
        <ele>53</ele>
        <time>2015-04-12T08:28:36Z</time>
      </trkpt>
      <trkpt lat="47.02096" lon="-1.34843">
        <ele>51.5</ele>
        <time>2015-04-12T08:28:42Z</time>
      </trkpt>
      <trkpt lat="47.02112" lon="-1.34828">
        <ele>50</ele>
        <time>2015-04-12T08:28:47Z</time>
      </trkpt>
      <trkpt lat="47.02125" lon="-1.34805">
        <ele>49.5</ele>
        <time>2015-04-12T08:28:52Z</time>
      </trkpt>
      <trkpt lat="47.02138" lon="-1.34776">
        <ele>49</ele>
        <time>2015-04-12T08:28:57Z</time>
      </trkpt>
      <trkpt lat="47.02147" lon="-1.34752">
        <ele>48.4</ele>
        <time>2015-04-12T08:29:01Z</time>
      </trkpt>
      <trkpt lat="47.02157" lon="-1.34727">
        <ele>47.4</ele>
        <time>2015-04-12T08:29:05Z</time>
      </trkpt>
      <trkpt lat="47.02167" lon="-1.347">
        <ele>46.8</ele>
        <time>2015-04-12T08:29:09Z</time>
      </trkpt>
      <trkpt lat="47.02174" lon="-1.34674">
        <ele>45.3</ele>
        <time>2015-04-12T08:29:13Z</time>
      </trkpt>
      <trkpt lat="47.02182" lon="-1.34649">
        <ele>44.9</ele>
        <time>2015-04-12T08:29:18Z</time>
      </trkpt>
      <trkpt lat="47.02185" lon="-1.34622">
        <ele>45.7</ele>
        <time>2015-04-12T08:30:07Z</time>
      </trkpt>
      <trkpt lat="47.022" lon="-1.34599">
        <ele>45.5</ele>
        <time>2015-04-12T08:30:11Z</time>
      </trkpt>
      <trkpt lat="47.02218" lon="-1.34592">
        <ele>45.5</ele>
        <time>2015-04-12T08:30:14Z</time>
      </trkpt>
      <trkpt lat="47.02234" lon="-1.34614">
        <ele>45.6</ele>
        <time>2015-04-12T08:30:18Z</time>
      </trkpt>
      <trkpt lat="47.02249" lon="-1.34639">
        <ele>45.9</ele>
        <time>2015-04-12T08:30:22Z</time>
      </trkpt>
      <trkpt lat="47.02265" lon="-1.34652">
        <ele>45.5</ele>
        <time>2015-04-12T08:30:25Z</time>
      </trkpt>
      <trkpt lat="47.02282" lon="-1.34664">
        <ele>45.3</ele>
        <time>2015-04-12T08:30:28Z</time>
      </trkpt>
      <trkpt lat="47.023" lon="-1.34677">
        <ele>45.1</ele>
        <time>2015-04-12T08:30:31Z</time>
      </trkpt>
      <trkpt lat="47.02317" lon="-1.3469">
        <ele>44.6</ele>
        <time>2015-04-12T08:30:34Z</time>
      </trkpt>
      <trkpt lat="47.02334" lon="-1.34703">
        <ele>44.8</ele>
        <time>2015-04-12T08:30:37Z</time>
      </trkpt>
      <trkpt lat="47.02353" lon="-1.34716">
        <ele>44.9</ele>
        <time>2015-04-12T08:30:40Z</time>
      </trkpt>
      <trkpt lat="47.02372" lon="-1.34725">
        <ele>45.4</ele>
        <time>2015-04-12T08:30:43Z</time>
      </trkpt>
      <trkpt lat="47.0239" lon="-1.34714">
        <ele>46.8</ele>
        <time>2015-04-12T08:30:46Z</time>
      </trkpt>
      <trkpt lat="47.02404" lon="-1.3469">
        <ele>45.1</ele>
        <time>2015-04-12T08:30:49Z</time>
      </trkpt>
      <trkpt lat="47.02417" lon="-1.34665">
        <ele>43.4</ele>
        <time>2015-04-12T08:30:52Z</time>
      </trkpt>
      <trkpt lat="47.02428" lon="-1.3464">
        <ele>42.5</ele>
        <time>2015-04-12T08:30:55Z</time>
      </trkpt>
      <trkpt lat="47.0244" lon="-1.34616">
        <ele>42.8</ele>
        <time>2015-04-12T08:30:58Z</time>
      </trkpt>
      <trkpt lat="47.02452" lon="-1.34591">
        <ele>42.3</ele>
        <time>2015-04-12T08:31:01Z</time>
      </trkpt>
      <trkpt lat="47.02465" lon="-1.34566">
        <ele>41.9</ele>
        <time>2015-04-12T08:31:04Z</time>
      </trkpt>
      <trkpt lat="47.02476" lon="-1.34543">
        <ele>41.7</ele>
        <time>2015-04-12T08:31:07Z</time>
      </trkpt>
      <trkpt lat="47.02491" lon="-1.34524">
        <ele>42.3</ele>
        <time>2015-04-12T08:31:10Z</time>
      </trkpt>
      <trkpt lat="47.02511" lon="-1.34527">
        <ele>42.6</ele>
        <time>2015-04-12T08:31:13Z</time>
      </trkpt>
      <trkpt lat="47.02529" lon="-1.34547">
        <ele>41.9</ele>
        <time>2015-04-12T08:31:16Z</time>
      </trkpt>
      <trkpt lat="47.02548" lon="-1.34567">
        <ele>41.8</ele>
        <time>2015-04-12T08:31:19Z</time>
      </trkpt>
      <trkpt lat="47.02566" lon="-1.34587">
        <ele>41.8</ele>
        <time>2015-04-12T08:31:22Z</time>
      </trkpt>
      <trkpt lat="47.02582" lon="-1.34609">
        <ele>42.3</ele>
        <time>2015-04-12T08:31:25Z</time>
      </trkpt>
      <trkpt lat="47.02599" lon="-1.34631">
        <ele>42.3</ele>
        <time>2015-04-12T08:31:28Z</time>
      </trkpt>
      <trkpt lat="47.02614" lon="-1.34654">
        <ele>43.1</ele>
        <time>2015-04-12T08:31:31Z</time>
      </trkpt>
      <trkpt lat="47.02629" lon="-1.34676">
        <ele>43.8</ele>
        <time>2015-04-12T08:31:34Z</time>
      </trkpt>
      <trkpt lat="47.02644" lon="-1.34698">
        <ele>44.9</ele>
        <time>2015-04-12T08:31:37Z</time>
      </trkpt>
      <trkpt lat="47.02659" lon="-1.3472">
        <ele>45.1</ele>
        <time>2015-04-12T08:31:40Z</time>
      </trkpt>
      <trkpt lat="47.02675" lon="-1.34741">
        <ele>44.8</ele>
        <time>2015-04-12T08:31:43Z</time>
      </trkpt>
      <trkpt lat="47.0269" lon="-1.34761">
        <ele>44.2</ele>
        <time>2015-04-12T08:31:46Z</time>
      </trkpt>
      <trkpt lat="47.02707" lon="-1.34777">
        <ele>41.8</ele>
        <time>2015-04-12T08:31:50Z</time>
      </trkpt>
      <trkpt lat="47.02729" lon="-1.34762">
        <ele>39.5</ele>
        <time>2015-04-12T08:31:55Z</time>
      </trkpt>
      <trkpt lat="47.02744" lon="-1.34747">
        <ele>37.7</ele>
        <time>2015-04-12T08:31:58Z</time>
      </trkpt>
      <trkpt lat="47.02765" lon="-1.34735">
        <ele>36.8</ele>
        <time>2015-04-12T08:32:02Z</time>
      </trkpt>
      <trkpt lat="47.02782" lon="-1.34751">
        <ele>36.6</ele>
        <time>2015-04-12T08:32:05Z</time>
      </trkpt>
      <trkpt lat="47.02799" lon="-1.34772">
        <ele>36.2</ele>
        <time>2015-04-12T08:32:09Z</time>
      </trkpt>
      <trkpt lat="47.02812" lon="-1.34789">
        <ele>35.7</ele>
        <time>2015-04-12T08:32:13Z</time>
      </trkpt>
      <trkpt lat="47.0283" lon="-1.34804">
        <ele>35.2</ele>
        <time>2015-04-12T08:32:19Z</time>
      </trkpt>
      <trkpt lat="47.02846" lon="-1.34819">
        <ele>38.2</ele>
        <time>2015-04-12T08:37:10Z</time>
      </trkpt>
      <trkpt lat="47.02863" lon="-1.34836">
        <ele>38.2</ele>
        <time>2015-04-12T08:37:15Z</time>
      </trkpt>
      <trkpt lat="47.02881" lon="-1.34854">
        <ele>38</ele>
        <time>2015-04-12T08:37:19Z</time>
      </trkpt>
      <trkpt lat="47.029" lon="-1.34872">
        <ele>37.4</ele>
        <time>2015-04-12T08:37:23Z</time>
      </trkpt>
      <trkpt lat="47.02916" lon="-1.34885">
        <ele>36.3</ele>
        <time>2015-04-12T08:37:26Z</time>
      </trkpt>
      <trkpt lat="47.02932" lon="-1.34899">
        <ele>35.6</ele>
        <time>2015-04-12T08:37:29Z</time>
      </trkpt>
      <trkpt lat="47.02948" lon="-1.34915">
        <ele>34.5</ele>
        <time>2015-04-12T08:37:32Z</time>
      </trkpt>
      <trkpt lat="47.02964" lon="-1.3493">
        <ele>33.7</ele>
        <time>2015-04-12T08:37:35Z</time>
      </trkpt>
      <trkpt lat="47.02982" lon="-1.34946">
        <ele>32.6</ele>
        <time>2015-04-12T08:37:38Z</time>
      </trkpt>
      <trkpt lat="47.02998" lon="-1.34965">
        <ele>31.7</ele>
        <time>2015-04-12T08:37:41Z</time>
      </trkpt>
      <trkpt lat="47.03016" lon="-1.34982">
        <ele>31.3</ele>
        <time>2015-04-12T08:37:44Z</time>
      </trkpt>
      <trkpt lat="47.03036" lon="-1.34994">
        <ele>30.7</ele>
        <time>2015-04-12T08:37:47Z</time>
      </trkpt>
      <trkpt lat="47.03058" lon="-1.34995">
        <ele>30.8</ele>
        <time>2015-04-12T08:37:50Z</time>
      </trkpt>
      <trkpt lat="47.03079" lon="-1.34987">
        <ele>31.4</ele>
        <time>2015-04-12T08:37:53Z</time>
      </trkpt>
      <trkpt lat="47.031" lon="-1.34988">
        <ele>31.4</ele>
        <time>2015-04-12T08:37:56Z</time>
      </trkpt>
      <trkpt lat="47.0312" lon="-1.34995">
        <ele>29.9</ele>
        <time>2015-04-12T08:37:59Z</time>
      </trkpt>
      <trkpt lat="47.03137" lon="-1.35001">
        <ele>28.8</ele>
        <time>2015-04-12T08:38:02Z</time>
      </trkpt>
      <trkpt lat="47.03157" lon="-1.35008">
        <ele>27.2</ele>
        <time>2015-04-12T08:38:05Z</time>
      </trkpt>
      <trkpt lat="47.03178" lon="-1.35013">
        <ele>26.5</ele>
        <time>2015-04-12T08:38:08Z</time>
      </trkpt>
      <trkpt lat="47.03199" lon="-1.35017">
        <ele>26.3</ele>
        <time>2015-04-12T08:38:11Z</time>
      </trkpt>
      <trkpt lat="47.0322" lon="-1.3502">
        <ele>26.6</ele>
        <time>2015-04-12T08:38:14Z</time>
      </trkpt>
      <trkpt lat="47.0324" lon="-1.35024">
        <ele>27.6</ele>
        <time>2015-04-12T08:38:17Z</time>
      </trkpt>
      <trkpt lat="47.03259" lon="-1.35026">
        <ele>29.2</ele>
        <time>2015-04-12T08:38:20Z</time>
      </trkpt>
      <trkpt lat="47.03278" lon="-1.35029">
        <ele>29.5</ele>
        <time>2015-04-12T08:38:23Z</time>
      </trkpt>
      <trkpt lat="47.03297" lon="-1.35033">
        <ele>30.1</ele>
        <time>2015-04-12T08:38:26Z</time>
      </trkpt>
      <trkpt lat="47.03317" lon="-1.35039">
        <ele>31.1</ele>
        <time>2015-04-12T08:38:29Z</time>
      </trkpt>
      <trkpt lat="47.03336" lon="-1.35045">
        <ele>31</ele>
        <time>2015-04-12T08:38:32Z</time>
      </trkpt>
      <trkpt lat="47.03355" lon="-1.35055">
        <ele>29.7</ele>
        <time>2015-04-12T08:38:35Z</time>
      </trkpt>
      <trkpt lat="47.03374" lon="-1.3507">
        <ele>29.4</ele>
        <time>2015-04-12T08:38:38Z</time>
      </trkpt>
      <trkpt lat="47.03391" lon="-1.35084">
        <ele>29.2</ele>
        <time>2015-04-12T08:38:41Z</time>
      </trkpt>
      <trkpt lat="47.03408" lon="-1.35101">
        <ele>28.8</ele>
        <time>2015-04-12T08:38:44Z</time>
      </trkpt>
      <trkpt lat="47.03426" lon="-1.3512">
        <ele>29.4</ele>
        <time>2015-04-12T08:38:47Z</time>
      </trkpt>
      <trkpt lat="47.03441" lon="-1.35139">
        <ele>29.8</ele>
        <time>2015-04-12T08:38:50Z</time>
      </trkpt>
      <trkpt lat="47.03455" lon="-1.3516">
        <ele>30.7</ele>
        <time>2015-04-12T08:38:53Z</time>
      </trkpt>
      <trkpt lat="47.03475" lon="-1.35177">
        <ele>31.5</ele>
        <time>2015-04-12T08:38:57Z</time>
      </trkpt>
      <trkpt lat="47.03494" lon="-1.35177">
        <ele>31.6</ele>
        <time>2015-04-12T08:39:00Z</time>
      </trkpt>
      <trkpt lat="47.03515" lon="-1.35184">
        <ele>31.4</ele>
        <time>2015-04-12T08:39:03Z</time>
      </trkpt>
      <trkpt lat="47.03531" lon="-1.35202">
        <ele>30.9</ele>
        <time>2015-04-12T08:39:06Z</time>
      </trkpt>
      <trkpt lat="47.03548" lon="-1.35222">
        <ele>29.7</ele>
        <time>2015-04-12T08:39:09Z</time>
      </trkpt>
      <trkpt lat="47.03565" lon="-1.35244">
        <ele>29.9</ele>
        <time>2015-04-12T08:39:12Z</time>
      </trkpt>
      <trkpt lat="47.0358" lon="-1.35265">
        <ele>29.7</ele>
        <time>2015-04-12T08:39:15Z</time>
      </trkpt>
      <trkpt lat="47.03596" lon="-1.35285">
        <ele>29.4</ele>
        <time>2015-04-12T08:39:18Z</time>
      </trkpt>
      <trkpt lat="47.03613" lon="-1.35308">
        <ele>29</ele>
        <time>2015-04-12T08:39:21Z</time>
      </trkpt>
      <trkpt lat="47.0363" lon="-1.35329">
        <ele>29</ele>
        <time>2015-04-12T08:39:24Z</time>
      </trkpt>
      <trkpt lat="47.03647" lon="-1.35349">
        <ele>28.9</ele>
        <time>2015-04-12T08:39:27Z</time>
      </trkpt>
      <trkpt lat="47.03663" lon="-1.3537">
        <ele>29</ele>
        <time>2015-04-12T08:39:30Z</time>
      </trkpt>
      <trkpt lat="47.03682" lon="-1.35388">
        <ele>28.3</ele>
        <time>2015-04-12T08:39:33Z</time>
      </trkpt>
      <trkpt lat="47.03701" lon="-1.354">
        <ele>28.6</ele>
        <time>2015-04-12T08:39:36Z</time>
      </trkpt>
      <trkpt lat="47.03721" lon="-1.3541">
        <ele>28.6</ele>
        <time>2015-04-12T08:39:39Z</time>
      </trkpt>
      <trkpt lat="47.03742" lon="-1.35419">
        <ele>28.6</ele>
        <time>2015-04-12T08:39:42Z</time>
      </trkpt>
      <trkpt lat="47.03762" lon="-1.35424">
        <ele>27.7</ele>
        <time>2015-04-12T08:39:45Z</time>
      </trkpt>
      <trkpt lat="47.03779" lon="-1.35433">
        <ele>28.5</ele>
        <time>2015-04-12T08:39:48Z</time>
      </trkpt>
      <trkpt lat="47.03797" lon="-1.35443">
        <ele>27.7</ele>
        <time>2015-04-12T08:39:51Z</time>
      </trkpt>
      <trkpt lat="47.03816" lon="-1.35449">
        <ele>28</ele>
        <time>2015-04-12T08:39:54Z</time>
      </trkpt>
      <trkpt lat="47.03832" lon="-1.35475">
        <ele>30.7</ele>
        <time>2015-04-12T08:39:58Z</time>
      </trkpt>
      <trkpt lat="47.03843" lon="-1.35498">
        <ele>31.8</ele>
        <time>2015-04-12T08:40:01Z</time>
      </trkpt>
      <trkpt lat="47.03857" lon="-1.35518">
        <ele>32.8</ele>
        <time>2015-04-12T08:40:04Z</time>
      </trkpt>
      <trkpt lat="47.03872" lon="-1.35538">
        <ele>34.6</ele>
        <time>2015-04-12T08:40:07Z</time>
      </trkpt>
      <trkpt lat="47.03888" lon="-1.35555">
        <ele>34.6</ele>
        <time>2015-04-12T08:40:10Z</time>
      </trkpt>
      <trkpt lat="47.03902" lon="-1.35572">
        <ele>35.3</ele>
        <time>2015-04-12T08:40:15Z</time>
      </trkpt>
      <trkpt lat="47.03886" lon="-1.35588">
        <ele>36.2</ele>
        <time>2015-04-12T08:40:22Z</time>
      </trkpt>
      <trkpt lat="47.03869" lon="-1.35599">
        <ele>33.6</ele>
        <time>2015-04-12T08:40:28Z</time>
      </trkpt>
      <trkpt lat="47.03871" lon="-1.35631">
        <ele>27.7</ele>
        <time>2015-04-12T08:40:36Z</time>
      </trkpt>
      <trkpt lat="47.03864" lon="-1.35656">
        <ele>25.5</ele>
        <time>2015-04-12T08:40:41Z</time>
      </trkpt>
      <trkpt lat="47.03852" lon="-1.35677">
        <ele>24.1</ele>
        <time>2015-04-12T08:40:46Z</time>
      </trkpt>
      <trkpt lat="47.03834" lon="-1.35665">
        <ele>24.9</ele>
        <time>2015-04-12T08:40:53Z</time>
      </trkpt>
      <trkpt lat="47.03816" lon="-1.35674">
        <ele>25.4</ele>
        <time>2015-04-12T08:41:03Z</time>
      </trkpt>
      <trkpt lat="47.03808" lon="-1.35699">
        <ele>25.4</ele>
        <time>2015-04-12T08:41:11Z</time>
      </trkpt>
      <trkpt lat="47.03809" lon="-1.35728">
        <ele>25.7</ele>
        <time>2015-04-12T08:41:18Z</time>
      </trkpt>
      <trkpt lat="47.03821" lon="-1.35751">
        <ele>26.2</ele>
        <time>2015-04-12T08:41:25Z</time>
      </trkpt>
      <trkpt lat="47.03837" lon="-1.35763">
        <ele>25.7</ele>
        <time>2015-04-12T08:41:30Z</time>
      </trkpt>
      <trkpt lat="47.03855" lon="-1.35775">
        <ele>25.3</ele>
        <time>2015-04-12T08:41:35Z</time>
      </trkpt>
      <trkpt lat="47.03874" lon="-1.35776">
        <ele>26.6</ele>
        <time>2015-04-12T08:41:42Z</time>
      </trkpt>
      <trkpt lat="47.03893" lon="-1.35784">
        <ele>26.3</ele>
        <time>2015-04-12T08:41:49Z</time>
      </trkpt>
      <trkpt lat="47.0391" lon="-1.35794">
        <ele>26.2</ele>
        <time>2015-04-12T08:41:54Z</time>
      </trkpt>
      <trkpt lat="47.03933" lon="-1.35804">
        <ele>25.9</ele>
        <time>2015-04-12T08:41:58Z</time>
      </trkpt>
      <trkpt lat="47.03946" lon="-1.35821">
        <ele>26.7</ele>
        <time>2015-04-12T08:42:03Z</time>
      </trkpt>
      <trkpt lat="47.03948" lon="-1.35848">
        <ele>26.8</ele>
        <time>2015-04-12T08:42:09Z</time>
      </trkpt>
      <trkpt lat="47.03957" lon="-1.35872">
        <ele>27.5</ele>
        <time>2015-04-12T08:42:23Z</time>
      </trkpt>
      <trkpt lat="47.03942" lon="-1.35887">
        <ele>27.4</ele>
        <time>2015-04-12T08:42:34Z</time>
      </trkpt>
      <trkpt lat="47.03923" lon="-1.35887">
        <ele>26.7</ele>
        <time>2015-04-12T08:42:45Z</time>
      </trkpt>
      <trkpt lat="47.03906" lon="-1.359">
        <ele>26.6</ele>
        <time>2015-04-12T08:42:52Z</time>
      </trkpt>
      <trkpt lat="47.03888" lon="-1.35915">
        <ele>27.6</ele>
        <time>2015-04-12T08:42:59Z</time>
      </trkpt>
      <trkpt lat="47.03872" lon="-1.35928">
        <ele>28.4</ele>
        <time>2015-04-12T08:43:08Z</time>
      </trkpt>
      <trkpt lat="47.03866" lon="-1.35954">
        <ele>28.5</ele>
        <time>2015-04-12T08:43:18Z</time>
      </trkpt>
      <trkpt lat="47.03873" lon="-1.35982">
        <ele>29.5</ele>
        <time>2015-04-12T08:43:24Z</time>
      </trkpt>
      <trkpt lat="47.0388" lon="-1.3601">
        <ele>29.8</ele>
        <time>2015-04-12T08:43:31Z</time>
      </trkpt>
      <trkpt lat="47.03887" lon="-1.36036">
        <ele>29.8</ele>
        <time>2015-04-12T08:43:37Z</time>
      </trkpt>
      <trkpt lat="47.03895" lon="-1.36062">
        <ele>28.6</ele>
        <time>2015-04-12T08:43:42Z</time>
      </trkpt>
      <trkpt lat="47.03905" lon="-1.36088">
        <ele>26.5</ele>
        <time>2015-04-12T08:43:47Z</time>
      </trkpt>
      <trkpt lat="47.03912" lon="-1.36118">
        <ele>24.5</ele>
        <time>2015-04-12T08:43:52Z</time>
      </trkpt>
      <trkpt lat="47.0392" lon="-1.36149">
        <ele>23.8</ele>
        <time>2015-04-12T08:43:57Z</time>
      </trkpt>
      <trkpt lat="47.03929" lon="-1.36177">
        <ele>23.2</ele>
        <time>2015-04-12T08:44:01Z</time>
      </trkpt>
      <trkpt lat="47.03939" lon="-1.36201">
        <ele>22.3</ele>
        <time>2015-04-12T08:44:05Z</time>
      </trkpt>
      <trkpt lat="47.0395" lon="-1.36225">
        <ele>22.2</ele>
        <time>2015-04-12T08:44:10Z</time>
      </trkpt>
      <trkpt lat="47.03967" lon="-1.36216">
        <ele>22.4</ele>
        <time>2015-04-12T08:44:16Z</time>
      </trkpt>
      <trkpt lat="47.03987" lon="-1.36211">
        <ele>24.2</ele>
        <time>2015-04-12T08:44:22Z</time>
      </trkpt>
      <trkpt lat="47.04" lon="-1.36233">
        <ele>22.6</ele>
        <time>2015-04-12T08:44:29Z</time>
      </trkpt>
      <trkpt lat="47.04017" lon="-1.3625">
        <ele>21.5</ele>
        <time>2015-04-12T08:44:34Z</time>
      </trkpt>
      <trkpt lat="47.04035" lon="-1.36256">
        <ele>19.5</ele>
        <time>2015-04-12T08:44:40Z</time>
      </trkpt>
      <trkpt lat="47.04046" lon="-1.36277">
        <ele>16.8</ele>
        <time>2015-04-12T08:44:46Z</time>
      </trkpt>
      <trkpt lat="47.0406" lon="-1.363">
        <ele>15.7</ele>
        <time>2015-04-12T08:44:52Z</time>
      </trkpt>
      <trkpt lat="47.04056" lon="-1.36327">
        <ele>17.2</ele>
        <time>2015-04-12T08:45:00Z</time>
      </trkpt>
      <trkpt lat="47.04062" lon="-1.36353">
        <ele>19.1</ele>
        <time>2015-04-12T08:45:10Z</time>
      </trkpt>
      <trkpt lat="47.04078" lon="-1.3634">
        <ele>22.2</ele>
        <time>2015-04-12T08:45:18Z</time>
      </trkpt>
      <trkpt lat="47.04085" lon="-1.36367">
        <ele>24.9</ele>
        <time>2015-04-12T08:45:31Z</time>
      </trkpt>
      <trkpt lat="47.04075" lon="-1.36392">
        <ele>26.7</ele>
        <time>2015-04-12T08:45:40Z</time>
      </trkpt>
      <trkpt lat="47.04091" lon="-1.36409">
        <ele>27.6</ele>
        <time>2015-04-12T08:45:50Z</time>
      </trkpt>
      <trkpt lat="47.04106" lon="-1.3643">
        <ele>27.3</ele>
        <time>2015-04-12T08:46:09Z</time>
      </trkpt>
      <trkpt lat="47.04121" lon="-1.36449">
        <ele>27</ele>
        <time>2015-04-12T08:46:14Z</time>
      </trkpt>
      <trkpt lat="47.04129" lon="-1.36473">
        <ele>25.8</ele>
        <time>2015-04-12T08:46:18Z</time>
      </trkpt>
      <trkpt lat="47.04134" lon="-1.36502">
        <ele>24.5</ele>
        <time>2015-04-12T08:46:23Z</time>
      </trkpt>
      <trkpt lat="47.04143" lon="-1.36532">
        <ele>21.8</ele>
        <time>2015-04-12T08:46:28Z</time>
      </trkpt>
      <trkpt lat="47.04148" lon="-1.36561">
        <ele>20</ele>
        <time>2015-04-12T08:46:32Z</time>
      </trkpt>
      <trkpt lat="47.04152" lon="-1.36588">
        <ele>18.6</ele>
        <time>2015-04-12T08:46:36Z</time>
      </trkpt>
      <trkpt lat="47.04146" lon="-1.36614">
        <ele>16.4</ele>
        <time>2015-04-12T08:46:41Z</time>
      </trkpt>
      <trkpt lat="47.04128" lon="-1.36627">
        <ele>16</ele>
        <time>2015-04-12T08:46:46Z</time>
      </trkpt>
      <trkpt lat="47.0411" lon="-1.36617">
        <ele>14.9</ele>
        <time>2015-04-12T08:46:52Z</time>
      </trkpt>
      <trkpt lat="47.04095" lon="-1.36603">
        <ele>14.4</ele>
        <time>2015-04-12T08:46:59Z</time>
      </trkpt>
      <trkpt lat="47.04077" lon="-1.36603">
        <ele>16.9</ele>
        <time>2015-04-12T08:47:20Z</time>
      </trkpt>
      <trkpt lat="47.04059" lon="-1.36592">
        <ele>19.4</ele>
        <time>2015-04-12T08:47:28Z</time>
      </trkpt>
      <trkpt lat="47.04042" lon="-1.36583">
        <ele>21.6</ele>
        <time>2015-04-12T08:47:35Z</time>
      </trkpt>
      <trkpt lat="47.04023" lon="-1.36577">
        <ele>23.8</ele>
        <time>2015-04-12T08:47:43Z</time>
      </trkpt>
      <trkpt lat="47.04015" lon="-1.36606">
        <ele>24.1</ele>
        <time>2015-04-12T08:47:51Z</time>
      </trkpt>
      <trkpt lat="47.04013" lon="-1.36634">
        <ele>24.2</ele>
        <time>2015-04-12T08:47:56Z</time>
      </trkpt>
      <trkpt lat="47.04011" lon="-1.36663">
        <ele>24.1</ele>
        <time>2015-04-12T08:48:06Z</time>
      </trkpt>
      <trkpt lat="47.03999" lon="-1.36685">
        <ele>22.9</ele>
        <time>2015-04-12T08:48:15Z</time>
      </trkpt>
      <trkpt lat="47.0398" lon="-1.36682">
        <ele>22.8</ele>
        <time>2015-04-12T08:48:22Z</time>
      </trkpt>
      <trkpt lat="47.03961" lon="-1.36681">
        <ele>22.4</ele>
        <time>2015-04-12T08:48:30Z</time>
      </trkpt>
      <trkpt lat="47.03944" lon="-1.36668">
        <ele>23.3</ele>
        <time>2015-04-12T08:48:48Z</time>
      </trkpt>
      <trkpt lat="47.03926" lon="-1.36668">
        <ele>27.1</ele>
        <time>2015-04-12T08:49:20Z</time>
      </trkpt>
      <trkpt lat="47.0392" lon="-1.36696">
        <ele>27</ele>
        <time>2015-04-12T08:49:29Z</time>
      </trkpt>
      <trkpt lat="47.0391" lon="-1.36718">
        <ele>26.6</ele>
        <time>2015-04-12T08:49:35Z</time>
      </trkpt>
      <trkpt lat="47.03889" lon="-1.36713">
        <ele>26.1</ele>
        <time>2015-04-12T08:49:40Z</time>
      </trkpt>
      <trkpt lat="47.0387" lon="-1.36712">
        <ele>25.5</ele>
        <time>2015-04-12T08:49:45Z</time>
      </trkpt>
      <trkpt lat="47.03851" lon="-1.36701">
        <ele>24.7</ele>
        <time>2015-04-12T08:49:53Z</time>
      </trkpt>
      <trkpt lat="47.03834" lon="-1.36693">
        <ele>23.7</ele>
        <time>2015-04-12T08:50:00Z</time>
      </trkpt>
      <trkpt lat="47.03821" lon="-1.3667">
        <ele>22.6</ele>
        <time>2015-04-12T08:50:08Z</time>
      </trkpt>
      <trkpt lat="47.03809" lon="-1.36694">
        <ele>21.1</ele>
        <time>2015-04-12T08:50:19Z</time>
      </trkpt>
      <trkpt lat="47.03791" lon="-1.36688">
        <ele>19.7</ele>
        <time>2015-04-12T08:50:32Z</time>
      </trkpt>
      <trkpt lat="47.03771" lon="-1.36682">
        <ele>20.4</ele>
        <time>2015-04-12T08:50:41Z</time>
      </trkpt>
      <trkpt lat="47.03755" lon="-1.36666">
        <ele>22</ele>
        <time>2015-04-12T08:50:49Z</time>
      </trkpt>
      <trkpt lat="47.0374" lon="-1.36649">
        <ele>24.4</ele>
        <time>2015-04-12T08:50:57Z</time>
      </trkpt>
      <trkpt lat="47.03721" lon="-1.36645">
        <ele>24.3</ele>
        <time>2015-04-12T08:51:03Z</time>
      </trkpt>
      <trkpt lat="47.03704" lon="-1.36635">
        <ele>26</ele>
        <time>2015-04-12T08:51:12Z</time>
      </trkpt>
      <trkpt lat="47.0369" lon="-1.36655">
        <ele>25.7</ele>
        <time>2015-04-12T08:51:23Z</time>
      </trkpt>
      <trkpt lat="47.03671" lon="-1.36662">
        <ele>24.3</ele>
        <time>2015-04-12T08:51:29Z</time>
      </trkpt>
      <trkpt lat="47.03652" lon="-1.36667">
        <ele>23</ele>
        <time>2015-04-12T08:51:35Z</time>
      </trkpt>
      <trkpt lat="47.03634" lon="-1.3667">
        <ele>22.7</ele>
        <time>2015-04-12T08:51:40Z</time>
      </trkpt>
      <trkpt lat="47.03613" lon="-1.36674">
        <ele>22.9</ele>
        <time>2015-04-12T08:51:46Z</time>
      </trkpt>
      <trkpt lat="47.03603" lon="-1.3665">
        <ele>23</ele>
        <time>2015-04-12T08:51:52Z</time>
      </trkpt>
      <trkpt lat="47.03602" lon="-1.36622">
        <ele>22.6</ele>
        <time>2015-04-12T08:51:59Z</time>
      </trkpt>
      <trkpt lat="47.03602" lon="-1.36593">
        <ele>22.5</ele>
        <time>2015-04-12T08:52:06Z</time>
      </trkpt>
      <trkpt lat="47.03599" lon="-1.36565">
        <ele>22.7</ele>
        <time>2015-04-12T08:52:14Z</time>
      </trkpt>
      <trkpt lat="47.03593" lon="-1.36537">
        <ele>23.5</ele>
        <time>2015-04-12T08:52:23Z</time>
      </trkpt>
      <trkpt lat="47.03584" lon="-1.36512">
        <ele>24</ele>
        <time>2015-04-12T08:52:31Z</time>
      </trkpt>
      <trkpt lat="47.03576" lon="-1.36486">
        <ele>24.7</ele>
        <time>2015-04-12T08:52:40Z</time>
      </trkpt>
      <trkpt lat="47.03565" lon="-1.36464">
        <ele>25.7</ele>
        <time>2015-04-12T08:52:48Z</time>
      </trkpt>
      <trkpt lat="47.03559" lon="-1.36491">
        <ele>23.7</ele>
        <time>2015-04-12T08:53:06Z</time>
      </trkpt>
      <trkpt lat="47.03568" lon="-1.36517">
        <ele>23.5</ele>
        <time>2015-04-12T08:53:13Z</time>
      </trkpt>
      <trkpt lat="47.03573" lon="-1.36546">
        <ele>22.5</ele>
        <time>2015-04-12T08:53:23Z</time>
      </trkpt>
      <trkpt lat="47.03578" lon="-1.36574">
        <ele>22.4</ele>
        <time>2015-04-12T08:53:31Z</time>
      </trkpt>
      <trkpt lat="47.03576" lon="-1.36601">
        <ele>22.6</ele>
        <time>2015-04-12T08:53:40Z</time>
      </trkpt>
      <trkpt lat="47.03584" lon="-1.36627">
        <ele>23.6</ele>
        <time>2015-04-12T08:53:51Z</time>
      </trkpt>
      <trkpt lat="47.03592" lon="-1.36654">
        <ele>23.5</ele>
        <time>2015-04-12T08:53:59Z</time>
      </trkpt>
      <trkpt lat="47.03575" lon="-1.36665">
        <ele>23.2</ele>
        <time>2015-04-12T08:54:10Z</time>
      </trkpt>
      <trkpt lat="47.03562" lon="-1.36687">
        <ele>23.5</ele>
        <time>2015-04-12T08:54:17Z</time>
      </trkpt>
      <trkpt lat="47.03543" lon="-1.36696">
        <ele>23.8</ele>
        <time>2015-04-12T08:54:25Z</time>
      </trkpt>
      <trkpt lat="47.03527" lon="-1.36709">
        <ele>24.6</ele>
        <time>2015-04-12T08:54:33Z</time>
      </trkpt>
      <trkpt lat="47.0352" lon="-1.36733">
        <ele>25.7</ele>
        <time>2015-04-12T08:54:45Z</time>
      </trkpt>
      <trkpt lat="47.03503" lon="-1.36746">
        <ele>26.3</ele>
        <time>2015-04-12T08:54:56Z</time>
      </trkpt>
      <trkpt lat="47.03489" lon="-1.36764">
        <ele>26.3</ele>
        <time>2015-04-12T08:55:02Z</time>
      </trkpt>
      <trkpt lat="47.03475" lon="-1.36783">
        <ele>26.1</ele>
        <time>2015-04-12T08:55:06Z</time>
      </trkpt>
      <trkpt lat="47.03457" lon="-1.36791">
        <ele>25.4</ele>
        <time>2015-04-12T08:55:16Z</time>
      </trkpt>
      <trkpt lat="47.03442" lon="-1.36808">
        <ele>22</ele>
        <time>2015-04-12T08:55:25Z</time>
      </trkpt>
      <trkpt lat="47.03433" lon="-1.36832">
        <ele>21.3</ele>
        <time>2015-04-12T08:55:34Z</time>
      </trkpt>
      <trkpt lat="47.03421" lon="-1.36853">
        <ele>22.5</ele>
        <time>2015-04-12T08:55:46Z</time>
      </trkpt>
      <trkpt lat="47.03406" lon="-1.3687">
        <ele>23.5</ele>
        <time>2015-04-12T08:55:58Z</time>
      </trkpt>
      <trkpt lat="47.03389" lon="-1.36883">
        <ele>23.4</ele>
        <time>2015-04-12T08:56:08Z</time>
      </trkpt>
      <trkpt lat="47.03385" lon="-1.36909">
        <ele>24.9</ele>
        <time>2015-04-12T08:56:20Z</time>
      </trkpt>
      <trkpt lat="47.03384" lon="-1.36936">
        <ele>24.6</ele>
        <time>2015-04-12T08:56:28Z</time>
      </trkpt>
      <trkpt lat="47.03379" lon="-1.36966">
        <ele>25.4</ele>
        <time>2015-04-12T08:56:36Z</time>
      </trkpt>
      <trkpt lat="47.03368" lon="-1.36994">
        <ele>24.6</ele>
        <time>2015-04-12T08:56:42Z</time>
      </trkpt>
      <trkpt lat="47.03361" lon="-1.3702">
        <ele>24.3</ele>
        <time>2015-04-12T08:56:46Z</time>
      </trkpt>
      <trkpt lat="47.03347" lon="-1.37039">
        <ele>23.6</ele>
        <time>2015-04-12T08:56:52Z</time>
      </trkpt>
      <trkpt lat="47.03328" lon="-1.3703">
        <ele>22.8</ele>
        <time>2015-04-12T08:56:58Z</time>
      </trkpt>
      <trkpt lat="47.03325" lon="-1.37">
        <ele>22.4</ele>
        <time>2015-04-12T08:57:05Z</time>
      </trkpt>
      <trkpt lat="47.03322" lon="-1.36971">
        <ele>22.3</ele>
        <time>2015-04-12T08:57:11Z</time>
      </trkpt>
      <trkpt lat="47.03314" lon="-1.36947">
        <ele>22.4</ele>
        <time>2015-04-12T08:57:18Z</time>
      </trkpt>
      <trkpt lat="47.03301" lon="-1.36925">
        <ele>22.6</ele>
        <time>2015-04-12T08:57:24Z</time>
      </trkpt>
      <trkpt lat="47.03289" lon="-1.369">
        <ele>23.4</ele>
        <time>2015-04-12T08:57:30Z</time>
      </trkpt>
      <trkpt lat="47.03277" lon="-1.36878">
        <ele>24.5</ele>
        <time>2015-04-12T08:57:35Z</time>
      </trkpt>
      <trkpt lat="47.03265" lon="-1.36853">
        <ele>25.4</ele>
        <time>2015-04-12T08:57:41Z</time>
      </trkpt>
      <trkpt lat="47.03253" lon="-1.36827">
        <ele>26.3</ele>
        <time>2015-04-12T08:57:47Z</time>
      </trkpt>
      <trkpt lat="47.03242" lon="-1.36803">
        <ele>26.4</ele>
        <time>2015-04-12T08:57:52Z</time>
      </trkpt>
      <trkpt lat="47.0323" lon="-1.36777">
        <ele>27.3</ele>
        <time>2015-04-12T08:57:57Z</time>
      </trkpt>
      <trkpt lat="47.0322" lon="-1.36752">
        <ele>28.4</ele>
        <time>2015-04-12T08:58:02Z</time>
      </trkpt>
      <trkpt lat="47.03209" lon="-1.36724">
        <ele>27.9</ele>
        <time>2015-04-12T08:58:07Z</time>
      </trkpt>
      <trkpt lat="47.03197" lon="-1.36702">
        <ele>26.8</ele>
        <time>2015-04-12T08:58:11Z</time>
      </trkpt>
      <trkpt lat="47.0318" lon="-1.36682">
        <ele>26.9</ele>
        <time>2015-04-12T08:58:16Z</time>
      </trkpt>
      <trkpt lat="47.03166" lon="-1.36665">
        <ele>27.8</ele>
        <time>2015-04-12T08:58:20Z</time>
      </trkpt>
      <trkpt lat="47.03152" lon="-1.36648">
        <ele>29.1</ele>
        <time>2015-04-12T08:58:24Z</time>
      </trkpt>
      <trkpt lat="47.03136" lon="-1.36631">
        <ele>29.5</ele>
        <time>2015-04-12T08:58:28Z</time>
      </trkpt>
      <trkpt lat="47.03121" lon="-1.36613">
        <ele>29.1</ele>
        <time>2015-04-12T08:58:32Z</time>
      </trkpt>
      <trkpt lat="47.03105" lon="-1.36596">
        <ele>28.9</ele>
        <time>2015-04-12T08:58:36Z</time>
      </trkpt>
      <trkpt lat="47.03091" lon="-1.3658">
        <ele>28.5</ele>
        <time>2015-04-12T08:58:40Z</time>
      </trkpt>
      <trkpt lat="47.03074" lon="-1.3656">
        <ele>28.9</ele>
        <time>2015-04-12T08:58:45Z</time>
      </trkpt>
      <trkpt lat="47.0306" lon="-1.36543">
        <ele>29.5</ele>
        <time>2015-04-12T08:58:49Z</time>
      </trkpt>
      <trkpt lat="47.03043" lon="-1.36524">
        <ele>30.2</ele>
        <time>2015-04-12T08:58:54Z</time>
      </trkpt>
      <trkpt lat="47.03027" lon="-1.36503">
        <ele>31.3</ele>
        <time>2015-04-12T08:58:59Z</time>
      </trkpt>
      <trkpt lat="47.03012" lon="-1.36485">
        <ele>32</ele>
        <time>2015-04-12T08:59:03Z</time>
      </trkpt>
      <trkpt lat="47.02996" lon="-1.36466">
        <ele>32.5</ele>
        <time>2015-04-12T08:59:07Z</time>
      </trkpt>
      <trkpt lat="47.02979" lon="-1.36447">
        <ele>33.1</ele>
        <time>2015-04-12T08:59:12Z</time>
      </trkpt>
      <trkpt lat="47.02962" lon="-1.36432">
        <ele>33.1</ele>
        <time>2015-04-12T08:59:16Z</time>
      </trkpt>
      <trkpt lat="47.02945" lon="-1.36419">
        <ele>33.3</ele>
        <time>2015-04-12T08:59:20Z</time>
      </trkpt>
      <trkpt lat="47.02929" lon="-1.36406">
        <ele>34</ele>
        <time>2015-04-12T08:59:24Z</time>
      </trkpt>
      <trkpt lat="47.02914" lon="-1.36381">
        <ele>36.9</ele>
        <time>2015-04-12T08:59:29Z</time>
      </trkpt>
      <trkpt lat="47.02913" lon="-1.36352">
        <ele>36.4</ele>
        <time>2015-04-12T08:59:33Z</time>
      </trkpt>
      <trkpt lat="47.02908" lon="-1.36325">
        <ele>36.2</ele>
        <time>2015-04-12T08:59:37Z</time>
      </trkpt>
      <trkpt lat="47.02896" lon="-1.36306">
        <ele>35.4</ele>
        <time>2015-04-12T08:59:47Z</time>
      </trkpt>
      <trkpt lat="47.02907" lon="-1.36327">
        <ele>34.9</ele>
        <time>2015-04-12T08:59:53Z</time>
      </trkpt>
      <trkpt lat="47.0289" lon="-1.36339">
        <ele>37.6</ele>
        <time>2015-04-12T09:00:08Z</time>
      </trkpt>
      <trkpt lat="47.0287" lon="-1.36339">
        <ele>38.5</ele>
        <time>2015-04-12T09:00:15Z</time>
      </trkpt>
      <trkpt lat="47.02853" lon="-1.36328">
        <ele>39.2</ele>
        <time>2015-04-12T09:00:22Z</time>
      </trkpt>
      <trkpt lat="47.02832" lon="-1.36338">
        <ele>39.9</ele>
        <time>2015-04-12T09:00:28Z</time>
      </trkpt>
      <trkpt lat="47.02811" lon="-1.36342">
        <ele>41.8</ele>
        <time>2015-04-12T09:00:33Z</time>
      </trkpt>
      <trkpt lat="47.0279" lon="-1.36349">
        <ele>42.6</ele>
        <time>2015-04-12T09:00:38Z</time>
      </trkpt>
      <trkpt lat="47.0277" lon="-1.36358">
        <ele>42.4</ele>
        <time>2015-04-12T09:00:43Z</time>
      </trkpt>
      <trkpt lat="47.02754" lon="-1.36369">
        <ele>41.5</ele>
        <time>2015-04-12T09:00:47Z</time>
      </trkpt>
      <trkpt lat="47.02735" lon="-1.3638">
        <ele>40.3</ele>
        <time>2015-04-12T09:00:51Z</time>
      </trkpt>
      <trkpt lat="47.02717" lon="-1.3639">
        <ele>38.5</ele>
        <time>2015-04-12T09:00:55Z</time>
      </trkpt>
      <trkpt lat="47.02697" lon="-1.36402">
        <ele>37.5</ele>
        <time>2015-04-12T09:00:59Z</time>
      </trkpt>
      <trkpt lat="47.02679" lon="-1.36417">
        <ele>36.3</ele>
        <time>2015-04-12T09:01:03Z</time>
      </trkpt>
      <trkpt lat="47.02664" lon="-1.36432">
        <ele>34.7</ele>
        <time>2015-04-12T09:01:07Z</time>
      </trkpt>
      <trkpt lat="47.02648" lon="-1.36449">
        <ele>32</ele>
        <time>2015-04-12T09:01:11Z</time>
      </trkpt>
      <trkpt lat="47.02632" lon="-1.36465">
        <ele>29.4</ele>
        <time>2015-04-12T09:01:15Z</time>
      </trkpt>
      <trkpt lat="47.02615" lon="-1.36484">
        <ele>30.1</ele>
        <time>2015-04-12T09:01:19Z</time>
      </trkpt>
      <trkpt lat="47.02596" lon="-1.36506">
        <ele>31.2</ele>
        <time>2015-04-12T09:01:23Z</time>
      </trkpt>
      <trkpt lat="47.02582" lon="-1.36531">
        <ele>31.3</ele>
        <time>2015-04-12T09:01:27Z</time>
      </trkpt>
      <trkpt lat="47.02576" lon="-1.36562">
        <ele>31.2</ele>
        <time>2015-04-12T09:01:31Z</time>
      </trkpt>
      <trkpt lat="47.02574" lon="-1.36596">
        <ele>30.6</ele>
        <time>2015-04-12T09:01:35Z</time>
      </trkpt>
      <trkpt lat="47.02575" lon="-1.3663">
        <ele>30.3</ele>
        <time>2015-04-12T09:01:39Z</time>
      </trkpt>
      <trkpt lat="47.02574" lon="-1.36657">
        <ele>30</ele>
        <time>2015-04-12T09:01:42Z</time>
      </trkpt>
      <trkpt lat="47.02573" lon="-1.36691">
        <ele>30.1</ele>
        <time>2015-04-12T09:01:46Z</time>
      </trkpt>
      <trkpt lat="47.0257" lon="-1.36717">
        <ele>30</ele>
        <time>2015-04-12T09:01:49Z</time>
      </trkpt>
      <trkpt lat="47.02564" lon="-1.36744">
        <ele>29.5</ele>
        <time>2015-04-12T09:01:52Z</time>
      </trkpt>
      <trkpt lat="47.0256" lon="-1.36771">
        <ele>28.5</ele>
        <time>2015-04-12T09:01:55Z</time>
      </trkpt>
      <trkpt lat="47.02555" lon="-1.36799">
        <ele>28.5</ele>
        <time>2015-04-12T09:01:58Z</time>
      </trkpt>
      <trkpt lat="47.0255" lon="-1.3683">
        <ele>28.4</ele>
        <time>2015-04-12T09:02:01Z</time>
      </trkpt>
      <trkpt lat="47.02546" lon="-1.3686">
        <ele>28.2</ele>
        <time>2015-04-12T09:02:04Z</time>
      </trkpt>
      <trkpt lat="47.02542" lon="-1.3689">
        <ele>27.9</ele>
        <time>2015-04-12T09:02:07Z</time>
      </trkpt>
      <trkpt lat="47.02537" lon="-1.3692">
        <ele>27</ele>
        <time>2015-04-12T09:02:10Z</time>
      </trkpt>
      <trkpt lat="47.02534" lon="-1.3695">
        <ele>26.4</ele>
        <time>2015-04-12T09:02:13Z</time>
      </trkpt>
      <trkpt lat="47.02531" lon="-1.36979">
        <ele>26</ele>
        <time>2015-04-12T09:02:16Z</time>
      </trkpt>
      <trkpt lat="47.02527" lon="-1.37007">
        <ele>25.9</ele>
        <time>2015-04-12T09:02:19Z</time>
      </trkpt>
      <trkpt lat="47.02514" lon="-1.37028">
        <ele>25.7</ele>
        <time>2015-04-12T09:02:22Z</time>
      </trkpt>
      <trkpt lat="47.02495" lon="-1.37039">
        <ele>25.4</ele>
        <time>2015-04-12T09:02:25Z</time>
      </trkpt>
      <trkpt lat="47.02475" lon="-1.3704">
        <ele>25.9</ele>
        <time>2015-04-12T09:02:29Z</time>
      </trkpt>
      <trkpt lat="47.02464" lon="-1.37017">
        <ele>26.1</ele>
        <time>2015-04-12T09:02:33Z</time>
      </trkpt>
      <trkpt lat="47.02449" lon="-1.37001">
        <ele>25.8</ele>
        <time>2015-04-12T09:02:36Z</time>
      </trkpt>
      <trkpt lat="47.02428" lon="-1.36985">
        <ele>25.6</ele>
        <time>2015-04-12T09:02:40Z</time>
      </trkpt>
      <trkpt lat="47.02411" lon="-1.36973">
        <ele>25.3</ele>
        <time>2015-04-12T09:02:44Z</time>
      </trkpt>
      <trkpt lat="47.02391" lon="-1.36959">
        <ele>25.8</ele>
        <time>2015-04-12T09:02:49Z</time>
      </trkpt>
      <trkpt lat="47.02373" lon="-1.36946">
        <ele>26.5</ele>
        <time>2015-04-12T09:02:54Z</time>
      </trkpt>
      <trkpt lat="47.02353" lon="-1.3694">
        <ele>27.8</ele>
        <time>2015-04-12T09:02:59Z</time>
      </trkpt>
      <trkpt lat="47.02334" lon="-1.36931">
        <ele>30.5</ele>
        <time>2015-04-12T09:03:03Z</time>
      </trkpt>
      <trkpt lat="47.02316" lon="-1.36922">
        <ele>31.6</ele>
        <time>2015-04-12T09:03:07Z</time>
      </trkpt>
      <trkpt lat="47.02296" lon="-1.36915">
        <ele>32.6</ele>
        <time>2015-04-12T09:03:12Z</time>
      </trkpt>
      <trkpt lat="47.02277" lon="-1.36903">
        <ele>34</ele>
        <time>2015-04-12T09:03:17Z</time>
      </trkpt>
      <trkpt lat="47.02259" lon="-1.36885">
        <ele>34.4</ele>
        <time>2015-04-12T09:03:22Z</time>
      </trkpt>
      <trkpt lat="47.02245" lon="-1.36869">
        <ele>35.6</ele>
        <time>2015-04-12T09:03:26Z</time>
      </trkpt>
      <trkpt lat="47.02229" lon="-1.36845">
        <ele>36.2</ele>
        <time>2015-04-12T09:03:31Z</time>
      </trkpt>
      <trkpt lat="47.02216" lon="-1.36822">
        <ele>36.8</ele>
        <time>2015-04-12T09:03:35Z</time>
      </trkpt>
      <trkpt lat="47.02204" lon="-1.36799">
        <ele>36.9</ele>
        <time>2015-04-12T09:03:39Z</time>
      </trkpt>
      <trkpt lat="47.02191" lon="-1.36774">
        <ele>37.1</ele>
        <time>2015-04-12T09:03:43Z</time>
      </trkpt>
      <trkpt lat="47.02178" lon="-1.36746">
        <ele>36.5</ele>
        <time>2015-04-12T09:03:47Z</time>
      </trkpt>
      <trkpt lat="47.02168" lon="-1.36724">
        <ele>35.5</ele>
        <time>2015-04-12T09:03:50Z</time>
      </trkpt>
      <trkpt lat="47.02154" lon="-1.36698">
        <ele>35.2</ele>
        <time>2015-04-12T09:03:53Z</time>
      </trkpt>
      <trkpt lat="47.02142" lon="-1.36674">
        <ele>35.1</ele>
        <time>2015-04-12T09:03:56Z</time>
      </trkpt>
      <trkpt lat="47.0213" lon="-1.36652">
        <ele>34.8</ele>
        <time>2015-04-12T09:03:59Z</time>
      </trkpt>
      <trkpt lat="47.02117" lon="-1.36628">
        <ele>35</ele>
        <time>2015-04-12T09:04:02Z</time>
      </trkpt>
      <trkpt lat="47.02104" lon="-1.36604">
        <ele>35.1</ele>
        <time>2015-04-12T09:04:05Z</time>
      </trkpt>
      <trkpt lat="47.02091" lon="-1.36579">
        <ele>35.6</ele>
        <time>2015-04-12T09:04:08Z</time>
      </trkpt>
      <trkpt lat="47.02078" lon="-1.36558">
        <ele>35.5</ele>
        <time>2015-04-12T09:04:11Z</time>
      </trkpt>
      <trkpt lat="47.02067" lon="-1.36537">
        <ele>35.1</ele>
        <time>2015-04-12T09:04:14Z</time>
      </trkpt>
      <trkpt lat="47.02055" lon="-1.36511">
        <ele>34.8</ele>
        <time>2015-04-12T09:04:18Z</time>
      </trkpt>
      <trkpt lat="47.02045" lon="-1.36482">
        <ele>34.8</ele>
        <time>2015-04-12T09:04:22Z</time>
      </trkpt>
      <trkpt lat="47.02034" lon="-1.36451">
        <ele>35</ele>
        <time>2015-04-12T09:04:26Z</time>
      </trkpt>
      <trkpt lat="47.02028" lon="-1.36418">
        <ele>35.4</ele>
        <time>2015-04-12T09:04:30Z</time>
      </trkpt>
      <trkpt lat="47.02028" lon="-1.36385">
        <ele>35.6</ele>
        <time>2015-04-12T09:04:34Z</time>
      </trkpt>
      <trkpt lat="47.02025" lon="-1.36359">
        <ele>35.6</ele>
        <time>2015-04-12T09:04:38Z</time>
      </trkpt>
      <trkpt lat="47.02016" lon="-1.36329">
        <ele>35.8</ele>
        <time>2015-04-12T09:04:43Z</time>
      </trkpt>
      <trkpt lat="47.02006" lon="-1.363">
        <ele>35.6</ele>
        <time>2015-04-12T09:04:47Z</time>
      </trkpt>
      <trkpt lat="47.01996" lon="-1.36269">
        <ele>34.8</ele>
        <time>2015-04-12T09:04:51Z</time>
      </trkpt>
      <trkpt lat="47.01986" lon="-1.36246">
        <ele>33.7</ele>
        <time>2015-04-12T09:04:54Z</time>
      </trkpt>
      <trkpt lat="47.01976" lon="-1.36218">
        <ele>32.9</ele>
        <time>2015-04-12T09:04:58Z</time>
      </trkpt>
      <trkpt lat="47.01967" lon="-1.36195">
        <ele>32.5</ele>
        <time>2015-04-12T09:05:01Z</time>
      </trkpt>
      <trkpt lat="47.01959" lon="-1.36171">
        <ele>32.4</ele>
        <time>2015-04-12T09:05:04Z</time>
      </trkpt>
      <trkpt lat="47.01952" lon="-1.36139">
        <ele>32.1</ele>
        <time>2015-04-12T09:05:08Z</time>
      </trkpt>
      <trkpt lat="47.01944" lon="-1.36109">
        <ele>31.4</ele>
        <time>2015-04-12T09:05:12Z</time>
      </trkpt>
      <trkpt lat="47.01932" lon="-1.36081">
        <ele>31.4</ele>
        <time>2015-04-12T09:05:16Z</time>
      </trkpt>
      <trkpt lat="47.0192" lon="-1.36057">
        <ele>31.9</ele>
        <time>2015-04-12T09:05:20Z</time>
      </trkpt>
      <trkpt lat="47.01908" lon="-1.36033">
        <ele>32</ele>
        <time>2015-04-12T09:05:24Z</time>
      </trkpt>
      <trkpt lat="47.01895" lon="-1.3601">
        <ele>32.2</ele>
        <time>2015-04-12T09:05:28Z</time>
      </trkpt>
      <trkpt lat="47.01879" lon="-1.3599">
        <ele>33</ele>
        <time>2015-04-12T09:05:32Z</time>
      </trkpt>
      <trkpt lat="47.01865" lon="-1.3597">
        <ele>32.7</ele>
        <time>2015-04-12T09:05:36Z</time>
      </trkpt>
      <trkpt lat="47.01853" lon="-1.35945">
        <ele>33.4</ele>
        <time>2015-04-12T09:05:40Z</time>
      </trkpt>
      <trkpt lat="47.01839" lon="-1.35919">
        <ele>33.1</ele>
        <time>2015-04-12T09:05:44Z</time>
      </trkpt>
      <trkpt lat="47.01826" lon="-1.35895">
        <ele>34.3</ele>
        <time>2015-04-12T09:05:48Z</time>
      </trkpt>
      <trkpt lat="47.01811" lon="-1.35874">
        <ele>34.2</ele>
        <time>2015-04-12T09:05:52Z</time>
      </trkpt>
      <trkpt lat="47.01795" lon="-1.35859">
        <ele>34</ele>
        <time>2015-04-12T09:05:56Z</time>
      </trkpt>
      <trkpt lat="47.01775" lon="-1.35848">
        <ele>34.8</ele>
        <time>2015-04-12T09:06:00Z</time>
      </trkpt>
      <trkpt lat="47.01759" lon="-1.35834">
        <ele>35</ele>
        <time>2015-04-12T09:06:04Z</time>
      </trkpt>
      <trkpt lat="47.01746" lon="-1.35811">
        <ele>34.4</ele>
        <time>2015-04-12T09:06:09Z</time>
      </trkpt>
      <trkpt lat="47.0173" lon="-1.35792">
        <ele>35.4</ele>
        <time>2015-04-12T09:06:14Z</time>
      </trkpt>
      <trkpt lat="47.01714" lon="-1.35773">
        <ele>34.7</ele>
        <time>2015-04-12T09:06:19Z</time>
      </trkpt>
      <trkpt lat="47.01701" lon="-1.35755">
        <ele>34.1</ele>
        <time>2015-04-12T09:06:23Z</time>
      </trkpt>
      <trkpt lat="47.01687" lon="-1.35729">
        <ele>34</ele>
        <time>2015-04-12T09:06:28Z</time>
      </trkpt>
      <trkpt lat="47.01676" lon="-1.35706">
        <ele>34.8</ele>
        <time>2015-04-12T09:06:33Z</time>
      </trkpt>
      <trkpt lat="47.01663" lon="-1.35681">
        <ele>34.2</ele>
        <time>2015-04-12T09:06:38Z</time>
      </trkpt>
      <trkpt lat="47.01652" lon="-1.35656">
        <ele>34.8</ele>
        <time>2015-04-12T09:06:43Z</time>
      </trkpt>
      <trkpt lat="47.01641" lon="-1.35631">
        <ele>34.6</ele>
        <time>2015-04-12T09:06:48Z</time>
      </trkpt>
      <trkpt lat="47.01629" lon="-1.35604">
        <ele>35.4</ele>
        <time>2015-04-12T09:06:53Z</time>
      </trkpt>
      <trkpt lat="47.01618" lon="-1.35582">
        <ele>35.7</ele>
        <time>2015-04-12T09:06:57Z</time>
      </trkpt>
      <trkpt lat="47.01606" lon="-1.35561">
        <ele>35.7</ele>
        <time>2015-04-12T09:07:01Z</time>
      </trkpt>
      <trkpt lat="47.01595" lon="-1.35538">
        <ele>36.1</ele>
        <time>2015-04-12T09:07:05Z</time>
      </trkpt>
      <trkpt lat="47.01584" lon="-1.35516">
        <ele>35.1</ele>
        <time>2015-04-12T09:07:09Z</time>
      </trkpt>
      <trkpt lat="47.01573" lon="-1.35494">
        <ele>34.6</ele>
        <time>2015-04-12T09:07:13Z</time>
      </trkpt>
      <trkpt lat="47.01564" lon="-1.35469">
        <ele>33.7</ele>
        <time>2015-04-12T09:07:17Z</time>
      </trkpt>
      <trkpt lat="47.01555" lon="-1.35444">
        <ele>33.3</ele>
        <time>2015-04-12T09:07:21Z</time>
      </trkpt>
      <trkpt lat="47.01546" lon="-1.3542">
        <ele>32.5</ele>
        <time>2015-04-12T09:07:25Z</time>
      </trkpt>
      <trkpt lat="47.01533" lon="-1.35399">
        <ele>32.2</ele>
        <time>2015-04-12T09:07:30Z</time>
      </trkpt>
      <trkpt lat="47.01512" lon="-1.35406">
        <ele>31.4</ele>
        <time>2015-04-12T09:07:34Z</time>
      </trkpt>
      <trkpt lat="47.01489" lon="-1.35409">
        <ele>31.5</ele>
        <time>2015-04-12T09:07:38Z</time>
      </trkpt>
      <trkpt lat="47.01468" lon="-1.35412">
        <ele>31.1</ele>
        <time>2015-04-12T09:07:42Z</time>
      </trkpt>
      <trkpt lat="47.01445" lon="-1.35413">
        <ele>30.8</ele>
        <time>2015-04-12T09:07:46Z</time>
      </trkpt>
      <trkpt lat="47.01422" lon="-1.35411">
        <ele>30.4</ele>
        <time>2015-04-12T09:07:50Z</time>
      </trkpt>
      <trkpt lat="47.014" lon="-1.35405">
        <ele>29.6</ele>
        <time>2015-04-12T09:07:54Z</time>
      </trkpt>
      <trkpt lat="47.01379" lon="-1.35401">
        <ele>28.6</ele>
        <time>2015-04-12T09:07:58Z</time>
      </trkpt>
      <trkpt lat="47.01359" lon="-1.35393">
        <ele>27.8</ele>
        <time>2015-04-12T09:08:02Z</time>
      </trkpt>
      <trkpt lat="47.0134" lon="-1.35387">
        <ele>27.2</ele>
        <time>2015-04-12T09:08:06Z</time>
      </trkpt>
      <trkpt lat="47.0132" lon="-1.35382">
        <ele>26.7</ele>
        <time>2015-04-12T09:08:10Z</time>
      </trkpt>
      <trkpt lat="47.013" lon="-1.35375">
        <ele>26.1</ele>
        <time>2015-04-12T09:08:14Z</time>
      </trkpt>
      <trkpt lat="47.01279" lon="-1.35369">
        <ele>25.7</ele>
        <time>2015-04-12T09:08:18Z</time>
      </trkpt>
      <trkpt lat="47.01259" lon="-1.35363">
        <ele>25.7</ele>
        <time>2015-04-12T09:08:22Z</time>
      </trkpt>
      <trkpt lat="47.01239" lon="-1.35354">
        <ele>25.2</ele>
        <time>2015-04-12T09:08:27Z</time>
      </trkpt>
      <trkpt lat="47.01221" lon="-1.35342">
        <ele>25.8</ele>
        <time>2015-04-12T09:08:34Z</time>
      </trkpt>
      <trkpt lat="47.01203" lon="-1.35334">
        <ele>24.2</ele>
        <time>2015-04-12T09:08:39Z</time>
      </trkpt>
      <trkpt lat="47.01181" lon="-1.35325">
        <ele>23.3</ele>
        <time>2015-04-12T09:08:43Z</time>
      </trkpt>
      <trkpt lat="47.01165" lon="-1.3534">
        <ele>22.8</ele>
        <time>2015-04-12T09:08:49Z</time>
      </trkpt>
      <trkpt lat="47.01159" lon="-1.35366">
        <ele>23</ele>
        <time>2015-04-12T09:08:54Z</time>
      </trkpt>
      <trkpt lat="47.01156" lon="-1.35396">
        <ele>22.7</ele>
        <time>2015-04-12T09:08:59Z</time>
      </trkpt>
      <trkpt lat="47.01152" lon="-1.35425">
        <ele>22.6</ele>
        <time>2015-04-12T09:09:04Z</time>
      </trkpt>
      <trkpt lat="47.01154" lon="-1.35454">
        <ele>24</ele>
        <time>2015-04-12T09:09:09Z</time>
      </trkpt>
      <trkpt lat="47.01154" lon="-1.35486">
        <ele>25.2</ele>
        <time>2015-04-12T09:09:14Z</time>
      </trkpt>
      <trkpt lat="47.01142" lon="-1.3551">
        <ele>27</ele>
        <time>2015-04-12T09:09:20Z</time>
      </trkpt>
      <trkpt lat="47.01124" lon="-1.3552">
        <ele>28.6</ele>
        <time>2015-04-12T09:09:32Z</time>
      </trkpt>
      <trkpt lat="47.01106" lon="-1.35528">
        <ele>30.1</ele>
        <time>2015-04-12T09:09:42Z</time>
      </trkpt>
      <trkpt lat="47.01092" lon="-1.35545">
        <ele>29.8</ele>
        <time>2015-04-12T09:10:25Z</time>
      </trkpt>
      <trkpt lat="47.01092" lon="-1.35573">
        <ele>29.1</ele>
        <time>2015-04-12T09:10:39Z</time>
      </trkpt>
      <trkpt lat="47.01089" lon="-1.356">
        <ele>28.5</ele>
        <time>2015-04-12T09:10:48Z</time>
      </trkpt>
      <trkpt lat="47.01095" lon="-1.35625">
        <ele>26.5</ele>
        <time>2015-04-12T09:11:00Z</time>
      </trkpt>
      <trkpt lat="47.01096" lon="-1.35653">
        <ele>26.4</ele>
        <time>2015-04-12T09:11:08Z</time>
      </trkpt>
      <trkpt lat="47.01099" lon="-1.35626">
        <ele>16.4</ele>
        <time>2015-04-12T09:14:38Z</time>
      </trkpt>
      <trkpt lat="47.01104" lon="-1.35654">
        <ele>15.9</ele>
        <time>2015-04-12T09:14:47Z</time>
      </trkpt>
      <trkpt lat="47.01105" lon="-1.35681">
        <ele>15.7</ele>
        <time>2015-04-12T09:14:52Z</time>
      </trkpt>
      <trkpt lat="47.01107" lon="-1.3571">
        <ele>16.1</ele>
        <time>2015-04-12T09:14:57Z</time>
      </trkpt>
      <trkpt lat="47.01108" lon="-1.35743">
        <ele>17.4</ele>
        <time>2015-04-12T09:15:02Z</time>
      </trkpt>
      <trkpt lat="47.0111" lon="-1.35773">
        <ele>20.7</ele>
        <time>2015-04-12T09:15:07Z</time>
      </trkpt>
      <trkpt lat="47.01127" lon="-1.35786">
        <ele>22.2</ele>
        <time>2015-04-12T09:15:13Z</time>
      </trkpt>
      <trkpt lat="47.01142" lon="-1.35801">
        <ele>22.3</ele>
        <time>2015-04-12T09:15:20Z</time>
      </trkpt>
      <trkpt lat="47.01161" lon="-1.358">
        <ele>24.2</ele>
        <time>2015-04-12T09:15:29Z</time>
      </trkpt>
      <trkpt lat="47.01179" lon="-1.35809">
        <ele>26.7</ele>
        <time>2015-04-12T09:15:44Z</time>
      </trkpt>
      <trkpt lat="47.01198" lon="-1.3582">
        <ele>27.1</ele>
        <time>2015-04-12T09:15:52Z</time>
      </trkpt>
      <trkpt lat="47.01217" lon="-1.3582">
        <ele>27.5</ele>
        <time>2015-04-12T09:16:03Z</time>
      </trkpt>
      <trkpt lat="47.01236" lon="-1.35826">
        <ele>29.2</ele>
        <time>2015-04-12T09:16:14Z</time>
      </trkpt>
      <trkpt lat="47.01255" lon="-1.35831">
        <ele>31.5</ele>
        <time>2015-04-12T09:16:22Z</time>
      </trkpt>
      <trkpt lat="47.01271" lon="-1.35814">
        <ele>33.2</ele>
        <time>2015-04-12T09:16:33Z</time>
      </trkpt>
      <trkpt lat="47.01291" lon="-1.35813">
        <ele>33.7</ele>
        <time>2015-04-12T09:16:39Z</time>
      </trkpt>
      <trkpt lat="47.01311" lon="-1.35813">
        <ele>34</ele>
        <time>2015-04-12T09:16:43Z</time>
      </trkpt>
      <trkpt lat="47.01331" lon="-1.35817">
        <ele>31.9</ele>
        <time>2015-04-12T09:16:47Z</time>
      </trkpt>
      <trkpt lat="47.0135" lon="-1.35822">
        <ele>30.6</ele>
        <time>2015-04-12T09:16:51Z</time>
      </trkpt>
      <trkpt lat="47.01369" lon="-1.35829">
        <ele>26.7</ele>
        <time>2015-04-12T09:16:55Z</time>
      </trkpt>
      <trkpt lat="47.01387" lon="-1.35836">
        <ele>24.5</ele>
        <time>2015-04-12T09:16:59Z</time>
      </trkpt>
      <trkpt lat="47.01405" lon="-1.35842">
        <ele>23.4</ele>
        <time>2015-04-12T09:17:03Z</time>
      </trkpt>
      <trkpt lat="47.01426" lon="-1.35851">
        <ele>23</ele>
        <time>2015-04-12T09:17:07Z</time>
      </trkpt>
      <trkpt lat="47.01447" lon="-1.3586">
        <ele>22.3</ele>
        <time>2015-04-12T09:17:11Z</time>
      </trkpt>
      <trkpt lat="47.01467" lon="-1.3587">
        <ele>21.2</ele>
        <time>2015-04-12T09:17:15Z</time>
      </trkpt>
      <trkpt lat="47.01487" lon="-1.35879">
        <ele>20.7</ele>
        <time>2015-04-12T09:17:19Z</time>
      </trkpt>
      <trkpt lat="47.01506" lon="-1.35878">
        <ele>20</ele>
        <time>2015-04-12T09:17:23Z</time>
      </trkpt>
      <trkpt lat="47.01525" lon="-1.35887">
        <ele>20.1</ele>
        <time>2015-04-12T09:17:32Z</time>
      </trkpt>
      <trkpt lat="47.01543" lon="-1.35898">
        <ele>19.5</ele>
        <time>2015-04-12T09:17:39Z</time>
      </trkpt>
      <trkpt lat="47.01562" lon="-1.35905">
        <ele>18.3</ele>
        <time>2015-04-12T09:17:45Z</time>
      </trkpt>
      <trkpt lat="47.01578" lon="-1.35918">
        <ele>17.8</ele>
        <time>2015-04-12T09:17:52Z</time>
      </trkpt>
      <trkpt lat="47.01595" lon="-1.35928">
        <ele>17.8</ele>
        <time>2015-04-12T09:17:59Z</time>
      </trkpt>
      <trkpt lat="47.01612" lon="-1.35939">
        <ele>17.8</ele>
        <time>2015-04-12T09:18:06Z</time>
      </trkpt>
      <trkpt lat="47.0163" lon="-1.35953">
        <ele>18.3</ele>
        <time>2015-04-12T09:18:13Z</time>
      </trkpt>
      <trkpt lat="47.01644" lon="-1.35972">
        <ele>18.5</ele>
        <time>2015-04-12T09:18:20Z</time>
      </trkpt>
      <trkpt lat="47.01659" lon="-1.35989">
        <ele>19.3</ele>
        <time>2015-04-12T09:18:32Z</time>
      </trkpt>
      <trkpt lat="47.01675" lon="-1.36005">
        <ele>21</ele>
        <time>2015-04-12T09:18:52Z</time>
      </trkpt>
      <trkpt lat="47.01689" lon="-1.36024">
        <ele>22.4</ele>
        <time>2015-04-12T09:19:02Z</time>
      </trkpt>
      <trkpt lat="47.017" lon="-1.36045">
        <ele>23.6</ele>
        <time>2015-04-12T09:19:11Z</time>
      </trkpt>
      <trkpt lat="47.01703" lon="-1.36075">
        <ele>25.7</ele>
        <time>2015-04-12T09:19:24Z</time>
      </trkpt>
      <trkpt lat="47.01715" lon="-1.36101">
        <ele>27.4</ele>
        <time>2015-04-12T09:19:35Z</time>
      </trkpt>
      <trkpt lat="47.01723" lon="-1.36131">
        <ele>27.9</ele>
        <time>2015-04-12T09:19:40Z</time>
      </trkpt>
      <trkpt lat="47.01731" lon="-1.36159">
        <ele>28.8</ele>
        <time>2015-04-12T09:19:45Z</time>
      </trkpt>
      <trkpt lat="47.01741" lon="-1.36183">
        <ele>29.8</ele>
        <time>2015-04-12T09:19:50Z</time>
      </trkpt>
      <trkpt lat="47.0175" lon="-1.3621">
        <ele>28.4</ele>
        <time>2015-04-12T09:19:55Z</time>
      </trkpt>
      <trkpt lat="47.01759" lon="-1.36232">
        <ele>28</ele>
        <time>2015-04-12T09:19:59Z</time>
      </trkpt>
      <trkpt lat="47.0177" lon="-1.36258">
        <ele>28.6</ele>
        <time>2015-04-12T09:20:03Z</time>
      </trkpt>
      <trkpt lat="47.01777" lon="-1.36287">
        <ele>28.2</ele>
        <time>2015-04-12T09:20:07Z</time>
      </trkpt>
      <trkpt lat="47.01785" lon="-1.36318">
        <ele>27.6</ele>
        <time>2015-04-12T09:20:11Z</time>
      </trkpt>
      <trkpt lat="47.01792" lon="-1.3635">
        <ele>27</ele>
        <time>2015-04-12T09:20:15Z</time>
      </trkpt>
      <trkpt lat="47.01792" lon="-1.36383">
        <ele>24.9</ele>
        <time>2015-04-12T09:20:19Z</time>
      </trkpt>
      <trkpt lat="47.01785" lon="-1.36412">
        <ele>23.5</ele>
        <time>2015-04-12T09:20:23Z</time>
      </trkpt>
      <trkpt lat="47.01774" lon="-1.3644">
        <ele>23.9</ele>
        <time>2015-04-12T09:20:28Z</time>
      </trkpt>
      <trkpt lat="47.01763" lon="-1.36468">
        <ele>24.5</ele>
        <time>2015-04-12T09:20:33Z</time>
      </trkpt>
      <trkpt lat="47.01752" lon="-1.36491">
        <ele>25.4</ele>
        <time>2015-04-12T09:20:37Z</time>
      </trkpt>
      <trkpt lat="47.01737" lon="-1.36511">
        <ele>27</ele>
        <time>2015-04-12T09:20:41Z</time>
      </trkpt>
      <trkpt lat="47.01726" lon="-1.36533">
        <ele>27.2</ele>
        <time>2015-04-12T09:20:45Z</time>
      </trkpt>
      <trkpt lat="47.01715" lon="-1.36557">
        <ele>28.3</ele>
        <time>2015-04-12T09:20:49Z</time>
      </trkpt>
      <trkpt lat="47.01708" lon="-1.36583">
        <ele>29.8</ele>
        <time>2015-04-12T09:20:54Z</time>
      </trkpt>
      <trkpt lat="47.01702" lon="-1.36611">
        <ele>29.8</ele>
        <time>2015-04-12T09:21:00Z</time>
      </trkpt>
      <trkpt lat="47.01719" lon="-1.36624">
        <ele>28.2</ele>
        <time>2015-04-12T09:21:13Z</time>
      </trkpt>
      <trkpt lat="47.01737" lon="-1.36622">
        <ele>28</ele>
        <time>2015-04-12T09:21:19Z</time>
      </trkpt>
      <trkpt lat="47.01757" lon="-1.3662">
        <ele>27.4</ele>
        <time>2015-04-12T09:21:26Z</time>
      </trkpt>
      <trkpt lat="47.01778" lon="-1.36626">
        <ele>26.7</ele>
        <time>2015-04-12T09:21:31Z</time>
      </trkpt>
      <trkpt lat="47.01797" lon="-1.3663">
        <ele>25.7</ele>
        <time>2015-04-12T09:21:36Z</time>
      </trkpt>
      <trkpt lat="47.01816" lon="-1.3664">
        <ele>24</ele>
        <time>2015-04-12T09:21:41Z</time>
      </trkpt>
      <trkpt lat="47.01836" lon="-1.36643">
        <ele>24.2</ele>
        <time>2015-04-12T09:21:47Z</time>
      </trkpt>
      <trkpt lat="47.01854" lon="-1.36653">
        <ele>23.1</ele>
        <time>2015-04-12T09:22:11Z</time>
      </trkpt>
      <trkpt lat="47.01864" lon="-1.36677">
        <ele>20</ele>
        <time>2015-04-12T09:22:34Z</time>
      </trkpt>
      <trkpt lat="47.0188" lon="-1.36692">
        <ele>19.2</ele>
        <time>2015-04-12T09:22:42Z</time>
      </trkpt>
      <trkpt lat="47.01898" lon="-1.36699">
        <ele>18.9</ele>
        <time>2015-04-12T09:22:48Z</time>
      </trkpt>
      <trkpt lat="47.01915" lon="-1.36704">
        <ele>18.9</ele>
        <time>2015-04-12T09:22:53Z</time>
      </trkpt>
      <trkpt lat="47.01934" lon="-1.36708">
        <ele>18.4</ele>
        <time>2015-04-12T09:22:58Z</time>
      </trkpt>
      <trkpt lat="47.01955" lon="-1.36716">
        <ele>17.4</ele>
        <time>2015-04-12T09:23:03Z</time>
      </trkpt>
      <trkpt lat="47.01964" lon="-1.36741">
        <ele>16.2</ele>
        <time>2015-04-12T09:23:08Z</time>
      </trkpt>
      <trkpt lat="47.0197" lon="-1.36772">
        <ele>17.1</ele>
        <time>2015-04-12T09:23:13Z</time>
      </trkpt>
      <trkpt lat="47.01978" lon="-1.36803">
        <ele>18.3</ele>
        <time>2015-04-12T09:23:18Z</time>
      </trkpt>
      <trkpt lat="47.01981" lon="-1.3683">
        <ele>17.1</ele>
        <time>2015-04-12T09:23:23Z</time>
      </trkpt>
      <trkpt lat="47.01975" lon="-1.36858">
        <ele>16.6</ele>
        <time>2015-04-12T09:23:28Z</time>
      </trkpt>
      <trkpt lat="47.0196" lon="-1.36875">
        <ele>16.1</ele>
        <time>2015-04-12T09:23:36Z</time>
      </trkpt>
      <trkpt lat="47.0196" lon="-1.36845">
        <ele>15.4</ele>
        <time>2015-04-12T09:24:11Z</time>
      </trkpt>
      <trkpt lat="47.01946" lon="-1.36825">
        <ele>14.4</ele>
        <time>2015-04-12T09:24:20Z</time>
      </trkpt>
      <trkpt lat="47.01932" lon="-1.36805">
        <ele>16.7</ele>
        <time>2015-04-12T09:24:53Z</time>
      </trkpt>
      <trkpt lat="47.01918" lon="-1.36786">
        <ele>17.9</ele>
        <time>2015-04-12T09:25:06Z</time>
      </trkpt>
      <trkpt lat="47.01903" lon="-1.36771">
        <ele>17.9</ele>
        <time>2015-04-12T09:25:13Z</time>
      </trkpt>
      <trkpt lat="47.01886" lon="-1.36752">
        <ele>18.2</ele>
        <time>2015-04-12T09:25:19Z</time>
      </trkpt>
      <trkpt lat="47.01869" lon="-1.36735">
        <ele>18.8</ele>
        <time>2015-04-12T09:25:26Z</time>
      </trkpt>
      <trkpt lat="47.01854" lon="-1.3672">
        <ele>19.5</ele>
        <time>2015-04-12T09:25:32Z</time>
      </trkpt>
      <trkpt lat="47.01835" lon="-1.3671">
        <ele>19.8</ele>
        <time>2015-04-12T09:25:38Z</time>
      </trkpt>
      <trkpt lat="47.01818" lon="-1.36695">
        <ele>19.2</ele>
        <time>2015-04-12T09:25:46Z</time>
      </trkpt>
      <trkpt lat="47.01797" lon="-1.36685">
        <ele>19.4</ele>
        <time>2015-04-12T09:25:52Z</time>
      </trkpt>
      <trkpt lat="47.01776" lon="-1.36678">
        <ele>20.1</ele>
        <time>2015-04-12T09:25:58Z</time>
      </trkpt>
      <trkpt lat="47.01755" lon="-1.36674">
        <ele>20.6</ele>
        <time>2015-04-12T09:26:06Z</time>
      </trkpt>
      <trkpt lat="47.01737" lon="-1.36672">
        <ele>21.5</ele>
        <time>2015-04-12T09:26:11Z</time>
      </trkpt>
      <trkpt lat="47.01717" lon="-1.36663">
        <ele>19.3</ele>
        <time>2015-04-12T09:26:31Z</time>
      </trkpt>
      <trkpt lat="47.01698" lon="-1.36664">
        <ele>19.8</ele>
        <time>2015-04-12T09:26:39Z</time>
      </trkpt>
      <trkpt lat="47.01682" lon="-1.36676">
        <ele>20</ele>
        <time>2015-04-12T09:26:46Z</time>
      </trkpt>
      <trkpt lat="47.01664" lon="-1.3669">
        <ele>20.8</ele>
        <time>2015-04-12T09:26:56Z</time>
      </trkpt>
      <trkpt lat="47.01645" lon="-1.36698">
        <ele>21.8</ele>
        <time>2015-04-12T09:27:05Z</time>
      </trkpt>
      <trkpt lat="47.01656" lon="-1.36675">
        <ele>21.7</ele>
        <time>2015-04-12T09:27:17Z</time>
      </trkpt>
      <trkpt lat="47.01646" lon="-1.36651">
        <ele>20.6</ele>
        <time>2015-04-12T09:27:45Z</time>
      </trkpt>
      <trkpt lat="47.01627" lon="-1.36646">
        <ele>20.9</ele>
        <time>2015-04-12T09:28:21Z</time>
      </trkpt>
      <trkpt lat="47.01609" lon="-1.3664">
        <ele>20.6</ele>
        <time>2015-04-12T09:28:28Z</time>
      </trkpt>
      <trkpt lat="47.0162" lon="-1.36618">
        <ele>21.1</ele>
        <time>2015-04-12T09:29:05Z</time>
      </trkpt>
      <trkpt lat="47.01639" lon="-1.36623">
        <ele>22.6</ele>
        <time>2015-04-12T09:29:13Z</time>
      </trkpt>
      <trkpt lat="47.01659" lon="-1.36617">
        <ele>25.3</ele>
        <time>2015-04-12T09:29:28Z</time>
      </trkpt>
      <trkpt lat="47.01678" lon="-1.36609">
        <ele>25.7</ele>
        <time>2015-04-12T09:29:37Z</time>
      </trkpt>
      <trkpt lat="47.01697" lon="-1.36597">
        <ele>25.9</ele>
        <time>2015-04-12T09:29:52Z</time>
      </trkpt>
      <trkpt lat="47.01708" lon="-1.36576">
        <ele>26.5</ele>
        <time>2015-04-12T09:30:02Z</time>
      </trkpt>
      <trkpt lat="47.0172" lon="-1.36554">
        <ele>26.9</ele>
        <time>2015-04-12T09:30:10Z</time>
      </trkpt>
      <trkpt lat="47.01728" lon="-1.36527">
        <ele>27.3</ele>
        <time>2015-04-12T09:30:17Z</time>
      </trkpt>
      <trkpt lat="47.01719" lon="-1.36502">
        <ele>28.6</ele>
        <time>2015-04-12T09:30:25Z</time>
      </trkpt>
      <trkpt lat="47.01703" lon="-1.36487">
        <ele>28.5</ele>
        <time>2015-04-12T09:30:30Z</time>
      </trkpt>
      <trkpt lat="47.01686" lon="-1.36469">
        <ele>28.3</ele>
        <time>2015-04-12T09:30:36Z</time>
      </trkpt>
      <trkpt lat="47.01669" lon="-1.36454">
        <ele>28.1</ele>
        <time>2015-04-12T09:30:41Z</time>
      </trkpt>
      <trkpt lat="47.0165" lon="-1.36441">
        <ele>28.5</ele>
        <time>2015-04-12T09:30:47Z</time>
      </trkpt>
      <trkpt lat="47.01631" lon="-1.36424">
        <ele>29</ele>
        <time>2015-04-12T09:30:52Z</time>
      </trkpt>
      <trkpt lat="47.01613" lon="-1.36406">
        <ele>29.1</ele>
        <time>2015-04-12T09:30:57Z</time>
      </trkpt>
      <trkpt lat="47.01595" lon="-1.36389">
        <ele>29.3</ele>
        <time>2015-04-12T09:31:02Z</time>
      </trkpt>
      <trkpt lat="47.01578" lon="-1.36371">
        <ele>29</ele>
        <time>2015-04-12T09:31:07Z</time>
      </trkpt>
      <trkpt lat="47.01558" lon="-1.36354">
        <ele>28.2</ele>
        <time>2015-04-12T09:31:12Z</time>
      </trkpt>
      <trkpt lat="47.01543" lon="-1.36339">
        <ele>27.9</ele>
        <time>2015-04-12T09:31:16Z</time>
      </trkpt>
      <trkpt lat="47.01524" lon="-1.36323">
        <ele>27.5</ele>
        <time>2015-04-12T09:31:21Z</time>
      </trkpt>
      <trkpt lat="47.01506" lon="-1.3631">
        <ele>28</ele>
        <time>2015-04-12T09:31:26Z</time>
      </trkpt>
      <trkpt lat="47.01492" lon="-1.36331">
        <ele>29</ele>
        <time>2015-04-12T09:31:31Z</time>
      </trkpt>
      <trkpt lat="47.01475" lon="-1.36349">
        <ele>29.1</ele>
        <time>2015-04-12T09:31:36Z</time>
      </trkpt>
      <trkpt lat="47.01456" lon="-1.36346">
        <ele>29.8</ele>
        <time>2015-04-12T09:31:41Z</time>
      </trkpt>
      <trkpt lat="47.01437" lon="-1.36336">
        <ele>29.7</ele>
        <time>2015-04-12T09:31:46Z</time>
      </trkpt>
      <trkpt lat="47.01419" lon="-1.36329">
        <ele>29.9</ele>
        <time>2015-04-12T09:31:50Z</time>
      </trkpt>
      <trkpt lat="47.01401" lon="-1.36316">
        <ele>30.1</ele>
        <time>2015-04-12T09:31:55Z</time>
      </trkpt>
      <trkpt lat="47.01385" lon="-1.36299">
        <ele>29.7</ele>
        <time>2015-04-12T09:32:00Z</time>
      </trkpt>
      <trkpt lat="47.01368" lon="-1.36281">
        <ele>29.6</ele>
        <time>2015-04-12T09:32:05Z</time>
      </trkpt>
      <trkpt lat="47.01351" lon="-1.36265">
        <ele>29.6</ele>
        <time>2015-04-12T09:32:10Z</time>
      </trkpt>
      <trkpt lat="47.0133" lon="-1.3625">
        <ele>29.5</ele>
        <time>2015-04-12T09:32:16Z</time>
      </trkpt>
      <trkpt lat="47.01312" lon="-1.36234">
        <ele>29.4</ele>
        <time>2015-04-12T09:32:21Z</time>
      </trkpt>
      <trkpt lat="47.01296" lon="-1.36221">
        <ele>29.2</ele>
        <time>2015-04-12T09:32:25Z</time>
      </trkpt>
      <trkpt lat="47.01279" lon="-1.36206">
        <ele>28.9</ele>
        <time>2015-04-12T09:32:29Z</time>
      </trkpt>
      <trkpt lat="47.01261" lon="-1.36189">
        <ele>29</ele>
        <time>2015-04-12T09:32:34Z</time>
      </trkpt>
      <trkpt lat="47.01244" lon="-1.36174">
        <ele>28.5</ele>
        <time>2015-04-12T09:32:39Z</time>
      </trkpt>
      <trkpt lat="47.01226" lon="-1.3616">
        <ele>28.4</ele>
        <time>2015-04-12T09:32:44Z</time>
      </trkpt>
      <trkpt lat="47.01205" lon="-1.36147">
        <ele>27.3</ele>
        <time>2015-04-12T09:32:49Z</time>
      </trkpt>
      <trkpt lat="47.01188" lon="-1.36137">
        <ele>27.2</ele>
        <time>2015-04-12T09:32:53Z</time>
      </trkpt>
      <trkpt lat="47.01171" lon="-1.3613">
        <ele>27.1</ele>
        <time>2015-04-12T09:32:57Z</time>
      </trkpt>
      <trkpt lat="47.01152" lon="-1.3612">
        <ele>27</ele>
        <time>2015-04-12T09:33:01Z</time>
      </trkpt>
      <trkpt lat="47.01134" lon="-1.36115">
        <ele>27.1</ele>
        <time>2015-04-12T09:33:05Z</time>
      </trkpt>
      <trkpt lat="47.01114" lon="-1.36111">
        <ele>27.5</ele>
        <time>2015-04-12T09:33:10Z</time>
      </trkpt>
      <trkpt lat="47.01094" lon="-1.3611">
        <ele>27.5</ele>
        <time>2015-04-12T09:33:15Z</time>
      </trkpt>
      <trkpt lat="47.01074" lon="-1.36108">
        <ele>27.4</ele>
        <time>2015-04-12T09:33:20Z</time>
      </trkpt>
      <trkpt lat="47.01053" lon="-1.36107">
        <ele>27.4</ele>
        <time>2015-04-12T09:33:25Z</time>
      </trkpt>
      <trkpt lat="47.01033" lon="-1.36109">
        <ele>27.9</ele>
        <time>2015-04-12T09:33:29Z</time>
      </trkpt>
      <trkpt lat="47.01014" lon="-1.36111">
        <ele>28.5</ele>
        <time>2015-04-12T09:33:33Z</time>
      </trkpt>
      <trkpt lat="47.00994" lon="-1.36106">
        <ele>28.2</ele>
        <time>2015-04-12T09:33:38Z</time>
      </trkpt>
      <trkpt lat="47.00975" lon="-1.36101">
        <ele>27.9</ele>
        <time>2015-04-12T09:33:43Z</time>
      </trkpt>
      <trkpt lat="47.00956" lon="-1.36106">
        <ele>28.2</ele>
        <time>2015-04-12T09:33:48Z</time>
      </trkpt>
      <trkpt lat="47.00938" lon="-1.36118">
        <ele>29.5</ele>
        <time>2015-04-12T09:33:52Z</time>
      </trkpt>
      <trkpt lat="47.00929" lon="-1.36141">
        <ele>32.9</ele>
        <time>2015-04-12T09:34:02Z</time>
      </trkpt>
      <trkpt lat="47.00919" lon="-1.36165">
        <ele>33.7</ele>
        <time>2015-04-12T09:34:12Z</time>
      </trkpt>
      <trkpt lat="47.00908" lon="-1.36188">
        <ele>33.8</ele>
        <time>2015-04-12T09:34:18Z</time>
      </trkpt>
      <trkpt lat="47.00896" lon="-1.36213">
        <ele>34.2</ele>
        <time>2015-04-12T09:34:24Z</time>
      </trkpt>
      <trkpt lat="47.00885" lon="-1.36236">
        <ele>33.6</ele>
        <time>2015-04-12T09:34:29Z</time>
      </trkpt>
      <trkpt lat="47.00874" lon="-1.36261">
        <ele>33.1</ele>
        <time>2015-04-12T09:34:34Z</time>
      </trkpt>
      <trkpt lat="47.00862" lon="-1.36285">
        <ele>34</ele>
        <time>2015-04-12T09:34:39Z</time>
      </trkpt>
      <trkpt lat="47.00853" lon="-1.36314">
        <ele>34.2</ele>
        <time>2015-04-12T09:34:44Z</time>
      </trkpt>
      <trkpt lat="47.00847" lon="-1.36345">
        <ele>34.1</ele>
        <time>2015-04-12T09:34:49Z</time>
      </trkpt>
      <trkpt lat="47.00844" lon="-1.36373">
        <ele>34.1</ele>
        <time>2015-04-12T09:34:53Z</time>
      </trkpt>
      <trkpt lat="47.00844" lon="-1.364">
        <ele>33.6</ele>
        <time>2015-04-12T09:34:57Z</time>
      </trkpt>
      <trkpt lat="47.00843" lon="-1.36434">
        <ele>33.3</ele>
        <time>2015-04-12T09:35:01Z</time>
      </trkpt>
      <trkpt lat="47.00841" lon="-1.36462">
        <ele>33.2</ele>
        <time>2015-04-12T09:35:04Z</time>
      </trkpt>
      <trkpt lat="47.00832" lon="-1.3649">
        <ele>32.2</ele>
        <time>2015-04-12T09:35:07Z</time>
      </trkpt>
      <trkpt lat="47.00816" lon="-1.36511">
        <ele>31.1</ele>
        <time>2015-04-12T09:35:10Z</time>
      </trkpt>
      <trkpt lat="47.00798" lon="-1.36522">
        <ele>30.6</ele>
        <time>2015-04-12T09:35:13Z</time>
      </trkpt>
      <trkpt lat="47.00779" lon="-1.3653">
        <ele>29.4</ele>
        <time>2015-04-12T09:35:16Z</time>
      </trkpt>
      <trkpt lat="47.00756" lon="-1.36533">
        <ele>28.3</ele>
        <time>2015-04-12T09:35:20Z</time>
      </trkpt>
      <trkpt lat="47.00735" lon="-1.36543">
        <ele>27.9</ele>
        <time>2015-04-12T09:35:24Z</time>
      </trkpt>
      <trkpt lat="47.00716" lon="-1.36565">
        <ele>28.9</ele>
        <time>2015-04-12T09:35:28Z</time>
      </trkpt>
      <trkpt lat="47.00701" lon="-1.3659">
        <ele>29.7</ele>
        <time>2015-04-12T09:35:32Z</time>
      </trkpt>
      <trkpt lat="47.00681" lon="-1.36597">
        <ele>30.2</ele>
        <time>2015-04-12T09:35:40Z</time>
      </trkpt>
      <trkpt lat="47.00663" lon="-1.36601">
        <ele>30.4</ele>
        <time>2015-04-12T09:35:46Z</time>
      </trkpt>
      <trkpt lat="47.00648" lon="-1.36586">
        <ele>29.1</ele>
        <time>2015-04-12T09:35:52Z</time>
      </trkpt>
      <trkpt lat="47.0063" lon="-1.36572">
        <ele>28.6</ele>
        <time>2015-04-12T09:35:57Z</time>
      </trkpt>
      <trkpt lat="47.00622" lon="-1.36544">
        <ele>28.5</ele>
        <time>2015-04-12T09:36:03Z</time>
      </trkpt>
      <trkpt lat="47.00615" lon="-1.36514">
        <ele>27.6</ele>
        <time>2015-04-12T09:36:08Z</time>
      </trkpt>
      <trkpt lat="47.00609" lon="-1.36484">
        <ele>25.9</ele>
        <time>2015-04-12T09:36:13Z</time>
      </trkpt>
      <trkpt lat="47.00601" lon="-1.3646">
        <ele>24</ele>
        <time>2015-04-12T09:36:17Z</time>
      </trkpt>
      <trkpt lat="47.00588" lon="-1.36436">
        <ele>23.8</ele>
        <time>2015-04-12T09:36:21Z</time>
      </trkpt>
      <trkpt lat="47.00575" lon="-1.36411">
        <ele>23</ele>
        <time>2015-04-12T09:36:25Z</time>
      </trkpt>
      <trkpt lat="47.00566" lon="-1.36386">
        <ele>21.7</ele>
        <time>2015-04-12T09:36:29Z</time>
      </trkpt>
      <trkpt lat="47.00559" lon="-1.3636">
        <ele>20.5</ele>
        <time>2015-04-12T09:36:33Z</time>
      </trkpt>
      <trkpt lat="47.00556" lon="-1.36332">
        <ele>18.9</ele>
        <time>2015-04-12T09:36:37Z</time>
      </trkpt>
      <trkpt lat="47.00574" lon="-1.36343">
        <ele>17.1</ele>
        <time>2015-04-12T09:36:46Z</time>
      </trkpt>
      <trkpt lat="47.0058" lon="-1.36368">
        <ele>16.6</ele>
        <time>2015-04-12T09:36:50Z</time>
      </trkpt>
      <trkpt lat="47.00588" lon="-1.364">
        <ele>17.9</ele>
        <time>2015-04-12T09:36:55Z</time>
      </trkpt>
      <trkpt lat="47.00597" lon="-1.36426">
        <ele>17.8</ele>
        <time>2015-04-12T09:37:05Z</time>
      </trkpt>
      <trkpt lat="47.006" lon="-1.36399">
        <ele>19.3</ele>
        <time>2015-04-12T09:37:16Z</time>
      </trkpt>
      <trkpt lat="47.00593" lon="-1.36371">
        <ele>19.7</ele>
        <time>2015-04-12T09:37:22Z</time>
      </trkpt>
      <trkpt lat="47.00612" lon="-1.36369">
        <ele>20.8</ele>
        <time>2015-04-12T09:37:29Z</time>
      </trkpt>
      <trkpt lat="47.00617" lon="-1.36397">
        <ele>20.9</ele>
        <time>2015-04-12T09:37:34Z</time>
      </trkpt>
      <trkpt lat="47.00619" lon="-1.36424">
        <ele>22.4</ele>
        <time>2015-04-12T09:37:38Z</time>
      </trkpt>
      <trkpt lat="47.00619" lon="-1.36454">
        <ele>24.8</ele>
        <time>2015-04-12T09:37:44Z</time>
      </trkpt>
      <trkpt lat="47.00632" lon="-1.36432">
        <ele>23.9</ele>
        <time>2015-04-12T09:38:01Z</time>
      </trkpt>
      <trkpt lat="47.00633" lon="-1.36462">
        <ele>25</ele>
        <time>2015-04-12T09:38:09Z</time>
      </trkpt>
      <trkpt lat="47.00631" lon="-1.3649">
        <ele>26</ele>
        <time>2015-04-12T09:38:16Z</time>
      </trkpt>
      <trkpt lat="47.00643" lon="-1.36511">
        <ele>27</ele>
        <time>2015-04-12T09:38:22Z</time>
      </trkpt>
      <trkpt lat="47.00662" lon="-1.3651">
        <ele>29.9</ele>
        <time>2015-04-12T09:38:45Z</time>
      </trkpt>
      <trkpt lat="47.00681" lon="-1.3651">
        <ele>30.4</ele>
        <time>2015-04-12T09:38:50Z</time>
      </trkpt>
      <trkpt lat="47.00697" lon="-1.36497">
        <ele>30.2</ele>
        <time>2015-04-12T09:38:56Z</time>
      </trkpt>
      <trkpt lat="47.00706" lon="-1.36472">
        <ele>30.1</ele>
        <time>2015-04-12T09:39:05Z</time>
      </trkpt>
      <trkpt lat="47.00714" lon="-1.36447">
        <ele>29.1</ele>
        <time>2015-04-12T09:39:19Z</time>
      </trkpt>
      <trkpt lat="47.00716" lon="-1.36418">
        <ele>29.1</ele>
        <time>2015-04-12T09:39:29Z</time>
      </trkpt>
      <trkpt lat="47.00718" lon="-1.36391">
        <ele>29.2</ele>
        <time>2015-04-12T09:39:37Z</time>
      </trkpt>
      <trkpt lat="47.00721" lon="-1.36364">
        <ele>28.7</ele>
        <time>2015-04-12T09:39:45Z</time>
      </trkpt>
      <trkpt lat="47.0072" lon="-1.36335">
        <ele>28.5</ele>
        <time>2015-04-12T09:39:53Z</time>
      </trkpt>
      <trkpt lat="47.00723" lon="-1.36307">
        <ele>27.7</ele>
        <time>2015-04-12T09:40:00Z</time>
      </trkpt>
      <trkpt lat="47.00737" lon="-1.3629">
        <ele>28.2</ele>
        <time>2015-04-12T09:40:08Z</time>
      </trkpt>
      <trkpt lat="47.00719" lon="-1.36282">
        <ele>28.8</ele>
        <time>2015-04-12T09:40:52Z</time>
      </trkpt>
      <trkpt lat="47.007" lon="-1.36279">
        <ele>28.6</ele>
        <time>2015-04-12T09:40:58Z</time>
      </trkpt>
      <trkpt lat="47.00682" lon="-1.36271">
        <ele>27.7</ele>
        <time>2015-04-12T09:41:05Z</time>
      </trkpt>
      <trkpt lat="47.00664" lon="-1.36264">
        <ele>26.7</ele>
        <time>2015-04-12T09:41:11Z</time>
      </trkpt>
      <trkpt lat="47.00643" lon="-1.36256">
        <ele>25.8</ele>
        <time>2015-04-12T09:41:16Z</time>
      </trkpt>
      <trkpt lat="47.00622" lon="-1.36244">
        <ele>25.6</ele>
        <time>2015-04-12T09:41:21Z</time>
      </trkpt>
      <trkpt lat="47.00605" lon="-1.3623">
        <ele>26.3</ele>
        <time>2015-04-12T09:41:25Z</time>
      </trkpt>
      <trkpt lat="47.00589" lon="-1.36213">
        <ele>26.6</ele>
        <time>2015-04-12T09:41:29Z</time>
      </trkpt>
      <trkpt lat="47.0057" lon="-1.36197">
        <ele>26.9</ele>
        <time>2015-04-12T09:41:34Z</time>
      </trkpt>
      <trkpt lat="47.00556" lon="-1.36176">
        <ele>27.3</ele>
        <time>2015-04-12T09:41:39Z</time>
      </trkpt>
      <trkpt lat="47.00557" lon="-1.36149">
        <ele>30</ele>
        <time>2015-04-12T09:41:44Z</time>
      </trkpt>
      <trkpt lat="47.0056" lon="-1.36122">
        <ele>31.1</ele>
        <time>2015-04-12T09:41:49Z</time>
      </trkpt>
      <trkpt lat="47.00568" lon="-1.36097">
        <ele>31.9</ele>
        <time>2015-04-12T09:41:54Z</time>
      </trkpt>
      <trkpt lat="47.00578" lon="-1.3607">
        <ele>31.7</ele>
        <time>2015-04-12T09:41:59Z</time>
      </trkpt>
      <trkpt lat="47.00586" lon="-1.36039">
        <ele>32.4</ele>
        <time>2015-04-12T09:42:04Z</time>
      </trkpt>
      <trkpt lat="47.00592" lon="-1.36014">
        <ele>33.8</ele>
        <time>2015-04-12T09:42:08Z</time>
      </trkpt>
      <trkpt lat="47.00603" lon="-1.35985">
        <ele>35.5</ele>
        <time>2015-04-12T09:42:13Z</time>
      </trkpt>
      <trkpt lat="47.00611" lon="-1.35957">
        <ele>36.7</ele>
        <time>2015-04-12T09:42:18Z</time>
      </trkpt>
      <trkpt lat="47.00619" lon="-1.35929">
        <ele>35.3</ele>
        <time>2015-04-12T09:42:23Z</time>
      </trkpt>
      <trkpt lat="47.00626" lon="-1.35903">
        <ele>34.4</ele>
        <time>2015-04-12T09:42:28Z</time>
      </trkpt>
      <trkpt lat="47.00609" lon="-1.35884">
        <ele>35.5</ele>
        <time>2015-04-12T09:42:35Z</time>
      </trkpt>
      <trkpt lat="47.00591" lon="-1.35874">
        <ele>36.2</ele>
        <time>2015-04-12T09:42:40Z</time>
      </trkpt>
      <trkpt lat="47.00574" lon="-1.35863">
        <ele>36.3</ele>
        <time>2015-04-12T09:42:45Z</time>
      </trkpt>
      <trkpt lat="47.00556" lon="-1.35853">
        <ele>36.4</ele>
        <time>2015-04-12T09:42:50Z</time>
      </trkpt>
      <trkpt lat="47.00539" lon="-1.35842">
        <ele>36.2</ele>
        <time>2015-04-12T09:42:55Z</time>
      </trkpt>
      <trkpt lat="47.00519" lon="-1.3583">
        <ele>36.1</ele>
        <time>2015-04-12T09:43:00Z</time>
      </trkpt>
      <trkpt lat="47.00502" lon="-1.35817">
        <ele>36.2</ele>
        <time>2015-04-12T09:43:04Z</time>
      </trkpt>
      <trkpt lat="47.00484" lon="-1.35801">
        <ele>36.1</ele>
        <time>2015-04-12T09:43:09Z</time>
      </trkpt>
      <trkpt lat="47.00469" lon="-1.35787">
        <ele>36</ele>
        <time>2015-04-12T09:43:13Z</time>
      </trkpt>
      <trkpt lat="47.0045" lon="-1.35772">
        <ele>35.7</ele>
        <time>2015-04-12T09:43:17Z</time>
      </trkpt>
      <trkpt lat="47.00428" lon="-1.35757">
        <ele>35.2</ele>
        <time>2015-04-12T09:43:21Z</time>
      </trkpt>
      <trkpt lat="47.00411" lon="-1.35749">
        <ele>34.7</ele>
        <time>2015-04-12T09:43:24Z</time>
      </trkpt>
      <trkpt lat="47.00393" lon="-1.35742">
        <ele>34.3</ele>
        <time>2015-04-12T09:43:27Z</time>
      </trkpt>
      <trkpt lat="47.00372" lon="-1.35734">
        <ele>34.1</ele>
        <time>2015-04-12T09:43:31Z</time>
      </trkpt>
      <trkpt lat="47.00351" lon="-1.35726">
        <ele>33.4</ele>
        <time>2015-04-12T09:43:35Z</time>
      </trkpt>
      <trkpt lat="47.00333" lon="-1.35715">
        <ele>32.9</ele>
        <time>2015-04-12T09:43:39Z</time>
      </trkpt>
      <trkpt lat="47.00332" lon="-1.35683">
        <ele>32.5</ele>
        <time>2015-04-12T09:43:45Z</time>
      </trkpt>
      <trkpt lat="47.00338" lon="-1.35654">
        <ele>32.8</ele>
        <time>2015-04-12T09:43:49Z</time>
      </trkpt>
      <trkpt lat="47.00341" lon="-1.35626">
        <ele>32.4</ele>
        <time>2015-04-12T09:43:53Z</time>
      </trkpt>
      <trkpt lat="47.00346" lon="-1.35598">
        <ele>31.5</ele>
        <time>2015-04-12T09:43:59Z</time>
      </trkpt>
      <trkpt lat="47.00358" lon="-1.35578">
        <ele>28.6</ele>
        <time>2015-04-12T09:44:12Z</time>
      </trkpt>
      <trkpt lat="47.0037" lon="-1.35557">
        <ele>26.3</ele>
        <time>2015-04-12T09:44:21Z</time>
      </trkpt>
      <trkpt lat="47.00353" lon="-1.35548">
        <ele>25.1</ele>
        <time>2015-04-12T09:44:27Z</time>
      </trkpt>
      <trkpt lat="47.00333" lon="-1.35547">
        <ele>23.3</ele>
        <time>2015-04-12T09:44:33Z</time>
      </trkpt>
      <trkpt lat="47.00314" lon="-1.35547">
        <ele>22.1</ele>
        <time>2015-04-12T09:44:38Z</time>
      </trkpt>
      <trkpt lat="47.00293" lon="-1.35551">
        <ele>20.6</ele>
        <time>2015-04-12T09:44:44Z</time>
      </trkpt>
      <trkpt lat="47.00275" lon="-1.35556">
        <ele>19.1</ele>
        <time>2015-04-12T09:44:50Z</time>
      </trkpt>
      <trkpt lat="47.00257" lon="-1.35564">
        <ele>17.7</ele>
        <time>2015-04-12T09:44:57Z</time>
      </trkpt>
      <trkpt lat="47.00239" lon="-1.35575">
        <ele>16.2</ele>
        <time>2015-04-12T09:45:03Z</time>
      </trkpt>
      <trkpt lat="47.00219" lon="-1.35582">
        <ele>15.4</ele>
        <time>2015-04-12T09:45:09Z</time>
      </trkpt>
      <trkpt lat="47.002" lon="-1.35591">
        <ele>14.9</ele>
        <time>2015-04-12T09:45:16Z</time>
      </trkpt>
      <trkpt lat="47.00182" lon="-1.35599">
        <ele>15.1</ele>
        <time>2015-04-12T09:45:25Z</time>
      </trkpt>
      <trkpt lat="47.00168" lon="-1.35616">
        <ele>16.5</ele>
        <time>2015-04-12T09:45:35Z</time>
      </trkpt>
      <trkpt lat="47.00155" lon="-1.35639">
        <ele>17.3</ele>
        <time>2015-04-12T09:45:43Z</time>
      </trkpt>
      <trkpt lat="47.00144" lon="-1.35664">
        <ele>19.7</ele>
        <time>2015-04-12T09:45:51Z</time>
      </trkpt>
      <trkpt lat="47.00126" lon="-1.35681">
        <ele>23.7</ele>
        <time>2015-04-12T09:46:00Z</time>
      </trkpt>
      <trkpt lat="47.00106" lon="-1.35674">
        <ele>24.7</ele>
        <time>2015-04-12T09:46:07Z</time>
      </trkpt>
      <trkpt lat="47.00088" lon="-1.35667">
        <ele>26.1</ele>
        <time>2015-04-12T09:46:13Z</time>
      </trkpt>
      <trkpt lat="47.00067" lon="-1.35664">
        <ele>27.6</ele>
        <time>2015-04-12T09:46:20Z</time>
      </trkpt>
      <trkpt lat="47.00049" lon="-1.35662">
        <ele>28.5</ele>
        <time>2015-04-12T09:46:26Z</time>
      </trkpt>
      <trkpt lat="47.00031" lon="-1.35665">
        <ele>29.2</ele>
        <time>2015-04-12T09:46:32Z</time>
      </trkpt>
      <trkpt lat="47.00012" lon="-1.35664">
        <ele>29.4</ele>
        <time>2015-04-12T09:46:38Z</time>
      </trkpt>
      <trkpt lat="46.99993" lon="-1.35666">
        <ele>29.9</ele>
        <time>2015-04-12T09:46:44Z</time>
      </trkpt>
      <trkpt lat="46.99974" lon="-1.3567">
        <ele>28.7</ele>
        <time>2015-04-12T09:46:50Z</time>
      </trkpt>
      <trkpt lat="46.99953" lon="-1.35674">
        <ele>28.4</ele>
        <time>2015-04-12T09:46:56Z</time>
      </trkpt>
      <trkpt lat="46.99935" lon="-1.35677">
        <ele>28.9</ele>
        <time>2015-04-12T09:47:01Z</time>
      </trkpt>
      <trkpt lat="46.99916" lon="-1.35679">
        <ele>29.2</ele>
        <time>2015-04-12T09:47:06Z</time>
      </trkpt>
      <trkpt lat="46.99895" lon="-1.35678">
        <ele>30.7</ele>
        <time>2015-04-12T09:47:12Z</time>
      </trkpt>
      <trkpt lat="46.99875" lon="-1.35677">
        <ele>32.2</ele>
        <time>2015-04-12T09:47:18Z</time>
      </trkpt>
      <trkpt lat="46.99855" lon="-1.35673">
        <ele>33.9</ele>
        <time>2015-04-12T09:47:24Z</time>
      </trkpt>
      <trkpt lat="46.99836" lon="-1.3567">
        <ele>35.6</ele>
        <time>2015-04-12T09:47:29Z</time>
      </trkpt>
      <trkpt lat="46.99815" lon="-1.35668">
        <ele>37.4</ele>
        <time>2015-04-12T09:47:35Z</time>
      </trkpt>
      <trkpt lat="46.99796" lon="-1.35663">
        <ele>37.1</ele>
        <time>2015-04-12T09:47:41Z</time>
      </trkpt>
      <trkpt lat="46.99778" lon="-1.35657">
        <ele>37.9</ele>
        <time>2015-04-12T09:47:47Z</time>
      </trkpt>
      <trkpt lat="46.99761" lon="-1.35645">
        <ele>41.5</ele>
        <time>2015-04-12T09:48:50Z</time>
      </trkpt>
      <trkpt lat="46.99744" lon="-1.35626">
        <ele>41.5</ele>
        <time>2015-04-12T09:48:55Z</time>
      </trkpt>
      <trkpt lat="46.9973" lon="-1.35609">
        <ele>40.7</ele>
        <time>2015-04-12T09:49:00Z</time>
      </trkpt>
      <trkpt lat="46.99715" lon="-1.35592">
        <ele>39.6</ele>
        <time>2015-04-12T09:49:05Z</time>
      </trkpt>
      <trkpt lat="46.99698" lon="-1.35572">
        <ele>38.5</ele>
        <time>2015-04-12T09:49:10Z</time>
      </trkpt>
      <trkpt lat="46.99683" lon="-1.35554">
        <ele>38.3</ele>
        <time>2015-04-12T09:49:15Z</time>
      </trkpt>
      <trkpt lat="46.99666" lon="-1.35534">
        <ele>37.6</ele>
        <time>2015-04-12T09:49:20Z</time>
      </trkpt>
      <trkpt lat="46.99649" lon="-1.35515">
        <ele>37.3</ele>
        <time>2015-04-12T09:49:25Z</time>
      </trkpt>
      <trkpt lat="46.99632" lon="-1.35499">
        <ele>37.1</ele>
        <time>2015-04-12T09:49:30Z</time>
      </trkpt>
      <trkpt lat="46.99614" lon="-1.35484">
        <ele>36.2</ele>
        <time>2015-04-12T09:49:35Z</time>
      </trkpt>
      <trkpt lat="46.99599" lon="-1.35469">
        <ele>35.6</ele>
        <time>2015-04-12T09:49:39Z</time>
      </trkpt>
      <trkpt lat="46.99581" lon="-1.35454">
        <ele>35.4</ele>
        <time>2015-04-12T09:49:43Z</time>
      </trkpt>
      <trkpt lat="46.99565" lon="-1.3544">
        <ele>34.7</ele>
        <time>2015-04-12T09:49:47Z</time>
      </trkpt>
      <trkpt lat="46.99549" lon="-1.35424">
        <ele>33.6</ele>
        <time>2015-04-12T09:49:51Z</time>
      </trkpt>
      <trkpt lat="46.99529" lon="-1.35408">
        <ele>32.6</ele>
        <time>2015-04-12T09:49:55Z</time>
      </trkpt>
      <trkpt lat="46.9951" lon="-1.35398">
        <ele>31.9</ele>
        <time>2015-04-12T09:49:59Z</time>
      </trkpt>
      <trkpt lat="46.99492" lon="-1.35387">
        <ele>31.3</ele>
        <time>2015-04-12T09:50:03Z</time>
      </trkpt>
      <trkpt lat="46.99472" lon="-1.35376">
        <ele>30.6</ele>
        <time>2015-04-12T09:50:08Z</time>
      </trkpt>
      <trkpt lat="46.99454" lon="-1.35364">
        <ele>30.5</ele>
        <time>2015-04-12T09:50:12Z</time>
      </trkpt>
      <trkpt lat="46.99436" lon="-1.35347">
        <ele>30.1</ele>
        <time>2015-04-12T09:50:16Z</time>
      </trkpt>
      <trkpt lat="46.99418" lon="-1.35328">
        <ele>29.5</ele>
        <time>2015-04-12T09:50:20Z</time>
      </trkpt>
      <trkpt lat="46.994" lon="-1.35309">
        <ele>29.7</ele>
        <time>2015-04-12T09:50:24Z</time>
      </trkpt>
      <trkpt lat="46.99385" lon="-1.35293">
        <ele>29.5</ele>
        <time>2015-04-12T09:50:27Z</time>
      </trkpt>
      <trkpt lat="46.99371" lon="-1.35276">
        <ele>29.3</ele>
        <time>2015-04-12T09:50:30Z</time>
      </trkpt>
      <trkpt lat="46.99351" lon="-1.35257">
        <ele>28.5</ele>
        <time>2015-04-12T09:50:34Z</time>
      </trkpt>
      <trkpt lat="46.99329" lon="-1.35243">
        <ele>28.2</ele>
        <time>2015-04-12T09:50:38Z</time>
      </trkpt>
      <trkpt lat="46.99306" lon="-1.35233">
        <ele>27.7</ele>
        <time>2015-04-12T09:50:42Z</time>
      </trkpt>
      <trkpt lat="46.99283" lon="-1.35225">
        <ele>27</ele>
        <time>2015-04-12T09:50:46Z</time>
      </trkpt>
      <trkpt lat="46.9926" lon="-1.35215">
        <ele>26.7</ele>
        <time>2015-04-12T09:50:50Z</time>
      </trkpt>
      <trkpt lat="46.9924" lon="-1.35206">
        <ele>25.7</ele>
        <time>2015-04-12T09:50:54Z</time>
      </trkpt>
      <trkpt lat="46.99221" lon="-1.35194">
        <ele>25.5</ele>
        <time>2015-04-12T09:50:58Z</time>
      </trkpt>
      <trkpt lat="46.992" lon="-1.35182">
        <ele>24.9</ele>
        <time>2015-04-12T09:51:02Z</time>
      </trkpt>
      <trkpt lat="46.9918" lon="-1.35173">
        <ele>25</ele>
        <time>2015-04-12T09:51:06Z</time>
      </trkpt>
      <trkpt lat="46.9916" lon="-1.35167">
        <ele>26.5</ele>
        <time>2015-04-12T09:51:10Z</time>
      </trkpt>
      <trkpt lat="46.99141" lon="-1.35161">
        <ele>27.1</ele>
        <time>2015-04-12T09:51:15Z</time>
      </trkpt>
      <trkpt lat="46.99131" lon="-1.35137">
        <ele>24.6</ele>
        <time>2015-04-12T09:51:23Z</time>
      </trkpt>
      <trkpt lat="46.99143" lon="-1.35113">
        <ele>25</ele>
        <time>2015-04-12T09:51:27Z</time>
      </trkpt>
      <trkpt lat="46.99158" lon="-1.35089">
        <ele>25.6</ele>
        <time>2015-04-12T09:51:31Z</time>
      </trkpt>
      <trkpt lat="46.99172" lon="-1.35066">
        <ele>26.4</ele>
        <time>2015-04-12T09:51:35Z</time>
      </trkpt>
      <trkpt lat="46.99157" lon="-1.35046">
        <ele>26.3</ele>
        <time>2015-04-12T09:51:39Z</time>
      </trkpt>
      <trkpt lat="46.99138" lon="-1.3505">
        <ele>26.1</ele>
        <time>2015-04-12T09:51:42Z</time>
      </trkpt>
      <trkpt lat="46.9912" lon="-1.35053">
        <ele>25.6</ele>
        <time>2015-04-12T09:51:45Z</time>
      </trkpt>
      <trkpt lat="46.99102" lon="-1.35054">
        <ele>25.4</ele>
        <time>2015-04-12T09:51:48Z</time>
      </trkpt>
      <trkpt lat="46.99083" lon="-1.3505">
        <ele>25.2</ele>
        <time>2015-04-12T09:51:51Z</time>
      </trkpt>
      <trkpt lat="46.99065" lon="-1.35038">
        <ele>25</ele>
        <time>2015-04-12T09:51:54Z</time>
      </trkpt>
      <trkpt lat="46.9905" lon="-1.35019">
        <ele>25</ele>
        <time>2015-04-12T09:51:57Z</time>
      </trkpt>
      <trkpt lat="46.99035" lon="-1.34994">
        <ele>24.9</ele>
        <time>2015-04-12T09:52:01Z</time>
      </trkpt>
      <trkpt lat="46.99021" lon="-1.34969">
        <ele>24.9</ele>
        <time>2015-04-12T09:52:05Z</time>
      </trkpt>
      <trkpt lat="46.99007" lon="-1.34943">
        <ele>25.2</ele>
        <time>2015-04-12T09:52:09Z</time>
      </trkpt>
      <trkpt lat="46.98994" lon="-1.34919">
        <ele>25.1</ele>
        <time>2015-04-12T09:52:13Z</time>
      </trkpt>
      <trkpt lat="46.98981" lon="-1.34894">
        <ele>24.6</ele>
        <time>2015-04-12T09:52:17Z</time>
      </trkpt>
      <trkpt lat="46.98968" lon="-1.34871">
        <ele>25.2</ele>
        <time>2015-04-12T09:52:21Z</time>
      </trkpt>
      <trkpt lat="46.98955" lon="-1.34848">
        <ele>25.3</ele>
        <time>2015-04-12T09:52:25Z</time>
      </trkpt>
      <trkpt lat="46.98943" lon="-1.34826">
        <ele>25</ele>
        <time>2015-04-12T09:52:29Z</time>
      </trkpt>
      <trkpt lat="46.98929" lon="-1.34802">
        <ele>25.2</ele>
        <time>2015-04-12T09:52:33Z</time>
      </trkpt>
      <trkpt lat="46.98917" lon="-1.3478">
        <ele>25.6</ele>
        <time>2015-04-12T09:52:37Z</time>
      </trkpt>
      <trkpt lat="46.98904" lon="-1.34759">
        <ele>26</ele>
        <time>2015-04-12T09:52:41Z</time>
      </trkpt>
      <trkpt lat="46.98896" lon="-1.34734">
        <ele>28</ele>
        <time>2015-04-12T09:52:46Z</time>
      </trkpt>
      <trkpt lat="46.98906" lon="-1.34707">
        <ele>30.5</ele>
        <time>2015-04-12T09:52:51Z</time>
      </trkpt>
      <trkpt lat="46.98921" lon="-1.34691">
        <ele>31.7</ele>
        <time>2015-04-12T09:52:55Z</time>
      </trkpt>
      <trkpt lat="46.98938" lon="-1.34673">
        <ele>33</ele>
        <time>2015-04-12T09:52:59Z</time>
      </trkpt>
      <trkpt lat="46.98953" lon="-1.34655">
        <ele>34.9</ele>
        <time>2015-04-12T09:53:03Z</time>
      </trkpt>
      <trkpt lat="46.98969" lon="-1.34638">
        <ele>36</ele>
        <time>2015-04-12T09:53:07Z</time>
      </trkpt>
      <trkpt lat="46.98987" lon="-1.34631">
        <ele>36.5</ele>
        <time>2015-04-12T09:53:11Z</time>
      </trkpt>
      <trkpt lat="46.99004" lon="-1.34648">
        <ele>36.2</ele>
        <time>2015-04-12T09:53:15Z</time>
      </trkpt>
      <trkpt lat="46.99023" lon="-1.34661">
        <ele>35.1</ele>
        <time>2015-04-12T09:53:20Z</time>
      </trkpt>
      <trkpt lat="46.99041" lon="-1.34662">
        <ele>33.4</ele>
        <time>2015-04-12T09:53:33Z</time>
      </trkpt>
      <trkpt lat="46.99054" lon="-1.34642">
        <ele>31.1</ele>
        <time>2015-04-12T10:00:29Z</time>
      </trkpt>
      <trkpt lat="46.99075" lon="-1.3465">
        <ele>31.1</ele>
        <time>2015-04-12T10:00:37Z</time>
      </trkpt>
      <trkpt lat="46.99094" lon="-1.3464">
        <ele>31</ele>
        <time>2015-04-12T10:00:41Z</time>
      </trkpt>
      <trkpt lat="46.99107" lon="-1.34619">
        <ele>31.1</ele>
        <time>2015-04-12T10:00:45Z</time>
      </trkpt>
      <trkpt lat="46.99119" lon="-1.34597">
        <ele>30.8</ele>
        <time>2015-04-12T10:00:49Z</time>
      </trkpt>
      <trkpt lat="46.99133" lon="-1.34573">
        <ele>30.4</ele>
        <time>2015-04-12T10:00:54Z</time>
      </trkpt>
      <trkpt lat="46.99146" lon="-1.34551">
        <ele>29.4</ele>
        <time>2015-04-12T10:00:59Z</time>
      </trkpt>
      <trkpt lat="46.99136" lon="-1.34527">
        <ele>28.9</ele>
        <time>2015-04-12T10:01:04Z</time>
      </trkpt>
      <trkpt lat="46.99123" lon="-1.34502">
        <ele>28.2</ele>
        <time>2015-04-12T10:01:10Z</time>
      </trkpt>
      <trkpt lat="46.99111" lon="-1.3448">
        <ele>27.9</ele>
        <time>2015-04-12T10:01:15Z</time>
      </trkpt>
      <trkpt lat="46.991" lon="-1.34454">
        <ele>27.9</ele>
        <time>2015-04-12T10:01:21Z</time>
      </trkpt>
      <trkpt lat="46.99089" lon="-1.34434">
        <ele>28</ele>
        <time>2015-04-12T10:01:26Z</time>
      </trkpt>
      <trkpt lat="46.99076" lon="-1.3441">
        <ele>27.9</ele>
        <time>2015-04-12T10:01:32Z</time>
      </trkpt>
      <trkpt lat="46.99063" lon="-1.34391">
        <ele>27.7</ele>
        <time>2015-04-12T10:01:38Z</time>
      </trkpt>
      <trkpt lat="46.99051" lon="-1.34371">
        <ele>28.5</ele>
        <time>2015-04-12T10:01:46Z</time>
      </trkpt>
      <trkpt lat="46.99039" lon="-1.3435">
        <ele>28.6</ele>
        <time>2015-04-12T10:01:52Z</time>
      </trkpt>
      <trkpt lat="46.99025" lon="-1.3433">
        <ele>29.1</ele>
        <time>2015-04-12T10:02:00Z</time>
      </trkpt>
      <trkpt lat="46.99008" lon="-1.34342">
        <ele>30.7</ele>
        <time>2015-04-12T10:02:09Z</time>
      </trkpt>
      <trkpt lat="46.98993" lon="-1.3436">
        <ele>32</ele>
        <time>2015-04-12T10:02:18Z</time>
      </trkpt>
      <trkpt lat="46.98976" lon="-1.34376">
        <ele>33.7</ele>
        <time>2015-04-12T10:02:27Z</time>
      </trkpt>
      <trkpt lat="46.98962" lon="-1.34393">
        <ele>35.6</ele>
        <time>2015-04-12T10:02:36Z</time>
      </trkpt>
      <trkpt lat="46.98943" lon="-1.34399">
        <ele>36.8</ele>
        <time>2015-04-12T10:02:43Z</time>
      </trkpt>
      <trkpt lat="46.98925" lon="-1.34391">
        <ele>37.3</ele>
        <time>2015-04-12T10:02:49Z</time>
      </trkpt>
      <trkpt lat="46.98906" lon="-1.34385">
        <ele>37.1</ele>
        <time>2015-04-12T10:02:56Z</time>
      </trkpt>
      <trkpt lat="46.98908" lon="-1.34358">
        <ele>35.2</ele>
        <time>2015-04-12T10:03:15Z</time>
      </trkpt>
      <trkpt lat="46.98926" lon="-1.34352">
        <ele>35.4</ele>
        <time>2015-04-12T10:03:38Z</time>
      </trkpt>
      <trkpt lat="46.98937" lon="-1.34329">
        <ele>35</ele>
        <time>2015-04-12T10:03:47Z</time>
      </trkpt>
      <trkpt lat="46.98954" lon="-1.34317">
        <ele>35.6</ele>
        <time>2015-04-12T10:03:55Z</time>
      </trkpt>
      <trkpt lat="46.98973" lon="-1.34308">
        <ele>36</ele>
        <time>2015-04-12T10:04:03Z</time>
      </trkpt>
      <trkpt lat="46.98985" lon="-1.34289">
        <ele>38.6</ele>
        <time>2015-04-12T10:04:16Z</time>
      </trkpt>
      <trkpt lat="46.98975" lon="-1.34264">
        <ele>38.1</ele>
        <time>2015-04-12T10:04:26Z</time>
      </trkpt>
      <trkpt lat="46.98961" lon="-1.34245">
        <ele>31.5</ele>
        <time>2015-04-12T10:04:45Z</time>
      </trkpt>
      <trkpt lat="46.98945" lon="-1.34262">
        <ele>30.8</ele>
        <time>2015-04-12T10:04:58Z</time>
      </trkpt>
      <trkpt lat="46.98934" lon="-1.34239">
        <ele>30.9</ele>
        <time>2015-04-12T10:05:16Z</time>
      </trkpt>
      <trkpt lat="46.98931" lon="-1.34212">
        <ele>30.4</ele>
        <time>2015-04-12T10:05:27Z</time>
      </trkpt>
      <trkpt lat="46.98931" lon="-1.34186">
        <ele>29</ele>
        <time>2015-04-12T10:05:37Z</time>
      </trkpt>
      <trkpt lat="46.98919" lon="-1.34163">
        <ele>28.3</ele>
        <time>2015-04-12T10:05:44Z</time>
      </trkpt>
      <trkpt lat="46.98905" lon="-1.34144">
        <ele>28.5</ele>
        <time>2015-04-12T10:05:53Z</time>
      </trkpt>
      <trkpt lat="46.98892" lon="-1.34127">
        <ele>28</ele>
        <time>2015-04-12T10:06:09Z</time>
      </trkpt>
      <trkpt lat="46.98879" lon="-1.34107">
        <ele>27.3</ele>
        <time>2015-04-12T10:06:38Z</time>
      </trkpt>
      <trkpt lat="46.98864" lon="-1.34092">
        <ele>27.6</ele>
        <time>2015-04-12T10:06:57Z</time>
      </trkpt>
      <trkpt lat="46.98854" lon="-1.34069">
        <ele>27.3</ele>
        <time>2015-04-12T10:07:11Z</time>
      </trkpt>
      <trkpt lat="46.98856" lon="-1.34041">
        <ele>26.5</ele>
        <time>2015-04-12T10:07:23Z</time>
      </trkpt>
      <trkpt lat="46.98851" lon="-1.34011">
        <ele>25.8</ele>
        <time>2015-04-12T10:07:34Z</time>
      </trkpt>
      <trkpt lat="46.98842" lon="-1.33984">
        <ele>25.3</ele>
        <time>2015-04-12T10:07:42Z</time>
      </trkpt>
      <trkpt lat="46.98834" lon="-1.33959">
        <ele>25</ele>
        <time>2015-04-12T10:07:47Z</time>
      </trkpt>
      <trkpt lat="46.98827" lon="-1.33931">
        <ele>23.9</ele>
        <time>2015-04-12T10:07:55Z</time>
      </trkpt>
      <trkpt lat="46.98817" lon="-1.33903">
        <ele>23.4</ele>
        <time>2015-04-12T10:08:01Z</time>
      </trkpt>
      <trkpt lat="46.98804" lon="-1.3388">
        <ele>23.3</ele>
        <time>2015-04-12T10:08:07Z</time>
      </trkpt>
      <trkpt lat="46.98794" lon="-1.33854">
        <ele>23.1</ele>
        <time>2015-04-12T10:08:13Z</time>
      </trkpt>
      <trkpt lat="46.98783" lon="-1.3383">
        <ele>23.1</ele>
        <time>2015-04-12T10:08:19Z</time>
      </trkpt>
      <trkpt lat="46.98777" lon="-1.33802">
        <ele>22.8</ele>
        <time>2015-04-12T10:08:25Z</time>
      </trkpt>
      <trkpt lat="46.98771" lon="-1.33776">
        <ele>22.4</ele>
        <time>2015-04-12T10:08:31Z</time>
      </trkpt>
      <trkpt lat="46.98764" lon="-1.3375">
        <ele>22.5</ele>
        <time>2015-04-12T10:08:37Z</time>
      </trkpt>
      <trkpt lat="46.98757" lon="-1.33721">
        <ele>22.4</ele>
        <time>2015-04-12T10:08:44Z</time>
      </trkpt>
      <trkpt lat="46.98749" lon="-1.33698">
        <ele>22.4</ele>
        <time>2015-04-12T10:08:49Z</time>
      </trkpt>
      <trkpt lat="46.98737" lon="-1.33671">
        <ele>21.7</ele>
        <time>2015-04-12T10:08:55Z</time>
      </trkpt>
      <trkpt lat="46.98728" lon="-1.33645">
        <ele>21.2</ele>
        <time>2015-04-12T10:09:00Z</time>
      </trkpt>
      <trkpt lat="46.98721" lon="-1.33618">
        <ele>20.7</ele>
        <time>2015-04-12T10:09:05Z</time>
      </trkpt>
      <trkpt lat="46.98715" lon="-1.33589">
        <ele>20.1</ele>
        <time>2015-04-12T10:09:11Z</time>
      </trkpt>
      <trkpt lat="46.98708" lon="-1.3356">
        <ele>19.9</ele>
        <time>2015-04-12T10:09:17Z</time>
      </trkpt>
      <trkpt lat="46.98702" lon="-1.33532">
        <ele>18.8</ele>
        <time>2015-04-12T10:09:23Z</time>
      </trkpt>
      <trkpt lat="46.9869" lon="-1.33507">
        <ele>18.9</ele>
        <time>2015-04-12T10:09:30Z</time>
      </trkpt>
      <trkpt lat="46.98673" lon="-1.33519">
        <ele>19.6</ele>
        <time>2015-04-12T10:09:38Z</time>
      </trkpt>
      <trkpt lat="46.98663" lon="-1.33493">
        <ele>24</ele>
        <time>2015-04-12T10:12:01Z</time>
      </trkpt>
      <trkpt lat="46.98658" lon="-1.33465">
        <ele>23.7</ele>
        <time>2015-04-12T10:12:07Z</time>
      </trkpt>
      <trkpt lat="46.9865" lon="-1.33438">
        <ele>24</ele>
        <time>2015-04-12T10:12:13Z</time>
      </trkpt>
      <trkpt lat="46.98642" lon="-1.33412">
        <ele>24.7</ele>
        <time>2015-04-12T10:12:19Z</time>
      </trkpt>
      <trkpt lat="46.98635" lon="-1.33384">
        <ele>24.7</ele>
        <time>2015-04-12T10:12:25Z</time>
      </trkpt>
      <trkpt lat="46.98628" lon="-1.33358">
        <ele>24.3</ele>
        <time>2015-04-12T10:12:31Z</time>
      </trkpt>
      <trkpt lat="46.98619" lon="-1.33331">
        <ele>23.7</ele>
        <time>2015-04-12T10:12:37Z</time>
      </trkpt>
      <trkpt lat="46.9861" lon="-1.33306">
        <ele>23.1</ele>
        <time>2015-04-12T10:12:44Z</time>
      </trkpt>
      <trkpt lat="46.9859" lon="-1.33314">
        <ele>22.6</ele>
        <time>2015-04-12T10:12:52Z</time>
      </trkpt>
      <trkpt lat="46.98573" lon="-1.33325">
        <ele>23.6</ele>
        <time>2015-04-12T10:13:00Z</time>
      </trkpt>
      <trkpt lat="46.98557" lon="-1.33339">
        <ele>25.8</ele>
        <time>2015-04-12T10:13:07Z</time>
      </trkpt>
      <trkpt lat="46.98541" lon="-1.33354">
        <ele>28.5</ele>
        <time>2015-04-12T10:13:14Z</time>
      </trkpt>
      <trkpt lat="46.98524" lon="-1.3337">
        <ele>31.6</ele>
        <time>2015-04-12T10:13:23Z</time>
      </trkpt>
      <trkpt lat="46.9851" lon="-1.33388">
        <ele>33.5</ele>
        <time>2015-04-12T10:13:32Z</time>
      </trkpt>
      <trkpt lat="46.98493" lon="-1.334">
        <ele>34.6</ele>
        <time>2015-04-12T10:13:39Z</time>
      </trkpt>
      <trkpt lat="46.98476" lon="-1.33409">
        <ele>33.5</ele>
        <time>2015-04-12T10:13:47Z</time>
      </trkpt>
      <trkpt lat="46.98459" lon="-1.3342">
        <ele>34.3</ele>
        <time>2015-04-12T10:13:54Z</time>
      </trkpt>
      <trkpt lat="46.98444" lon="-1.33437">
        <ele>33.6</ele>
        <time>2015-04-12T10:14:01Z</time>
      </trkpt>
      <trkpt lat="46.98429" lon="-1.33455">
        <ele>32.6</ele>
        <time>2015-04-12T10:14:06Z</time>
      </trkpt>
      <trkpt lat="46.98412" lon="-1.33448">
        <ele>32.2</ele>
        <time>2015-04-12T10:14:15Z</time>
      </trkpt>
      <trkpt lat="46.98394" lon="-1.33447">
        <ele>32.7</ele>
        <time>2015-04-12T10:14:53Z</time>
      </trkpt>
      <trkpt lat="46.98375" lon="-1.33437">
        <ele>34.1</ele>
        <time>2015-04-12T10:15:12Z</time>
      </trkpt>
      <trkpt lat="46.98358" lon="-1.33421">
        <ele>35.5</ele>
        <time>2015-04-12T10:15:27Z</time>
      </trkpt>
      <trkpt lat="46.98346" lon="-1.33402">
        <ele>37.4</ele>
        <time>2015-04-12T10:15:58Z</time>
      </trkpt>
      <trkpt lat="46.9834" lon="-1.33376">
        <ele>40.6</ele>
        <time>2015-04-12T10:16:22Z</time>
      </trkpt>
      <trkpt lat="46.98345" lon="-1.33349">
        <ele>43.4</ele>
        <time>2015-04-12T10:16:38Z</time>
      </trkpt>
      <trkpt lat="46.98358" lon="-1.33327">
        <ele>45.4</ele>
        <time>2015-04-12T10:17:01Z</time>
      </trkpt>
      <trkpt lat="46.98344" lon="-1.33311">
        <ele>44.6</ele>
        <time>2015-04-12T10:17:16Z</time>
      </trkpt>
      <trkpt lat="46.98329" lon="-1.33291">
        <ele>44.2</ele>
        <time>2015-04-12T10:17:40Z</time>
      </trkpt>
      <trkpt lat="46.98312" lon="-1.33296">
        <ele>44.2</ele>
        <time>2015-04-12T10:17:53Z</time>
      </trkpt>
      <trkpt lat="46.98295" lon="-1.33281">
        <ele>43.9</ele>
        <time>2015-04-12T10:18:01Z</time>
      </trkpt>
      <trkpt lat="46.98278" lon="-1.33271">
        <ele>43.1</ele>
        <time>2015-04-12T10:18:09Z</time>
      </trkpt>
      <trkpt lat="46.9826" lon="-1.33282">
        <ele>42.6</ele>
        <time>2015-04-12T10:18:21Z</time>
      </trkpt>
      <trkpt lat="46.98243" lon="-1.33268">
        <ele>31.9</ele>
        <time>2015-04-12T10:20:32Z</time>
      </trkpt>
      <trkpt lat="46.98229" lon="-1.33251">
        <ele>32.1</ele>
        <time>2015-04-12T10:20:40Z</time>
      </trkpt>
      <trkpt lat="46.98216" lon="-1.33229">
        <ele>31.9</ele>
        <time>2015-04-12T10:20:51Z</time>
      </trkpt>
      <trkpt lat="46.98208" lon="-1.332">
        <ele>31.9</ele>
        <time>2015-04-12T10:21:00Z</time>
      </trkpt>
      <trkpt lat="46.98208" lon="-1.33173">
        <ele>32.6</ele>
        <time>2015-04-12T10:21:05Z</time>
      </trkpt>
      <trkpt lat="46.98211" lon="-1.33147">
        <ele>33.3</ele>
        <time>2015-04-12T10:21:11Z</time>
      </trkpt>
      <trkpt lat="46.98219" lon="-1.3312">
        <ele>33.9</ele>
        <time>2015-04-12T10:21:17Z</time>
      </trkpt>
      <trkpt lat="46.98228" lon="-1.33096">
        <ele>34.4</ele>
        <time>2015-04-12T10:21:22Z</time>
      </trkpt>
      <trkpt lat="46.98237" lon="-1.33071">
        <ele>34.6</ele>
        <time>2015-04-12T10:21:27Z</time>
      </trkpt>
      <trkpt lat="46.9825" lon="-1.33047">
        <ele>34.3</ele>
        <time>2015-04-12T10:21:32Z</time>
      </trkpt>
      <trkpt lat="46.98264" lon="-1.33025">
        <ele>34.6</ele>
        <time>2015-04-12T10:21:36Z</time>
      </trkpt>
      <trkpt lat="46.98276" lon="-1.33004">
        <ele>34.3</ele>
        <time>2015-04-12T10:21:40Z</time>
      </trkpt>
      <trkpt lat="46.98289" lon="-1.32986">
        <ele>34.4</ele>
        <time>2015-04-12T10:21:44Z</time>
      </trkpt>
      <trkpt lat="46.98303" lon="-1.32963">
        <ele>34.4</ele>
        <time>2015-04-12T10:21:48Z</time>
      </trkpt>
      <trkpt lat="46.98315" lon="-1.32936">
        <ele>34.6</ele>
        <time>2015-04-12T10:21:52Z</time>
      </trkpt>
      <trkpt lat="46.98328" lon="-1.32914">
        <ele>34.1</ele>
        <time>2015-04-12T10:21:56Z</time>
      </trkpt>
      <trkpt lat="46.98338" lon="-1.32884">
        <ele>33.5</ele>
        <time>2015-04-12T10:22:00Z</time>
      </trkpt>
      <trkpt lat="46.98342" lon="-1.32855">
        <ele>33.4</ele>
        <time>2015-04-12T10:22:04Z</time>
      </trkpt>
      <trkpt lat="46.98327" lon="-1.32831">
        <ele>31.7</ele>
        <time>2015-04-12T10:22:09Z</time>
      </trkpt>
      <trkpt lat="46.98313" lon="-1.32814">
        <ele>30.8</ele>
        <time>2015-04-12T10:22:13Z</time>
      </trkpt>
      <trkpt lat="46.98296" lon="-1.32797">
        <ele>29.7</ele>
        <time>2015-04-12T10:22:18Z</time>
      </trkpt>
      <trkpt lat="46.98278" lon="-1.32795">
        <ele>28.6</ele>
        <time>2015-04-12T10:22:26Z</time>
      </trkpt>
      <trkpt lat="46.98259" lon="-1.32791">
        <ele>28.4</ele>
        <time>2015-04-12T10:22:36Z</time>
      </trkpt>
      <trkpt lat="46.98242" lon="-1.32779">
        <ele>28</ele>
        <time>2015-04-12T10:22:43Z</time>
      </trkpt>
      <trkpt lat="46.98229" lon="-1.32757">
        <ele>27.9</ele>
        <time>2015-04-12T10:22:52Z</time>
      </trkpt>
      <trkpt lat="46.9821" lon="-1.32749">
        <ele>26.3</ele>
        <time>2015-04-12T10:23:02Z</time>
      </trkpt>
      <trkpt lat="46.9819" lon="-1.32733">
        <ele>25.6</ele>
        <time>2015-04-12T10:23:10Z</time>
      </trkpt>
      <trkpt lat="46.98174" lon="-1.32717">
        <ele>24.5</ele>
        <time>2015-04-12T10:23:16Z</time>
      </trkpt>
      <trkpt lat="46.98155" lon="-1.32716">
        <ele>24.8</ele>
        <time>2015-04-12T10:23:24Z</time>
      </trkpt>
      <trkpt lat="46.98137" lon="-1.32721">
        <ele>25.3</ele>
        <time>2015-04-12T10:23:32Z</time>
      </trkpt>
      <trkpt lat="46.98119" lon="-1.32712">
        <ele>25.9</ele>
        <time>2015-04-12T10:23:40Z</time>
      </trkpt>
      <trkpt lat="46.98105" lon="-1.32729">
        <ele>29.7</ele>
        <time>2015-04-12T10:24:00Z</time>
      </trkpt>
      <trkpt lat="46.9809" lon="-1.32745">
        <ele>31.5</ele>
        <time>2015-04-12T10:24:11Z</time>
      </trkpt>
      <trkpt lat="46.98075" lon="-1.32762">
        <ele>33.2</ele>
        <time>2015-04-12T10:24:20Z</time>
      </trkpt>
      <trkpt lat="46.98059" lon="-1.32781">
        <ele>34.3</ele>
        <time>2015-04-12T10:24:28Z</time>
      </trkpt>
      <trkpt lat="46.98049" lon="-1.32803">
        <ele>34.7</ele>
        <time>2015-04-12T10:24:35Z</time>
      </trkpt>
      <trkpt lat="46.98031" lon="-1.32814">
        <ele>33.9</ele>
        <time>2015-04-12T10:24:47Z</time>
      </trkpt>
      <trkpt lat="46.9801" lon="-1.32828">
        <ele>32.3</ele>
        <time>2015-04-12T10:26:09Z</time>
      </trkpt>
      <trkpt lat="46.97993" lon="-1.32845">
        <ele>32.8</ele>
        <time>2015-04-12T10:26:18Z</time>
      </trkpt>
      <trkpt lat="46.97979" lon="-1.32862">
        <ele>32.7</ele>
        <time>2015-04-12T10:26:24Z</time>
      </trkpt>
      <trkpt lat="46.97962" lon="-1.3288">
        <ele>32.2</ele>
        <time>2015-04-12T10:26:30Z</time>
      </trkpt>
      <trkpt lat="46.97942" lon="-1.32868">
        <ele>32.3</ele>
        <time>2015-04-12T10:26:36Z</time>
      </trkpt>
      <trkpt lat="46.97927" lon="-1.32843">
        <ele>31.6</ele>
        <time>2015-04-12T10:26:41Z</time>
      </trkpt>
      <trkpt lat="46.97913" lon="-1.32821">
        <ele>30.4</ele>
        <time>2015-04-12T10:26:45Z</time>
      </trkpt>
      <trkpt lat="46.97898" lon="-1.32804">
        <ele>29.5</ele>
        <time>2015-04-12T10:26:49Z</time>
      </trkpt>
      <trkpt lat="46.97884" lon="-1.32779">
        <ele>29.1</ele>
        <time>2015-04-12T10:26:54Z</time>
      </trkpt>
      <trkpt lat="46.97872" lon="-1.32756">
        <ele>28.3</ele>
        <time>2015-04-12T10:26:58Z</time>
      </trkpt>
      <trkpt lat="46.97859" lon="-1.32733">
        <ele>27.7</ele>
        <time>2015-04-12T10:27:02Z</time>
      </trkpt>
      <trkpt lat="46.97848" lon="-1.32712">
        <ele>27.1</ele>
        <time>2015-04-12T10:27:06Z</time>
      </trkpt>
      <trkpt lat="46.97847" lon="-1.32683">
        <ele>27.3</ele>
        <time>2015-04-12T10:27:12Z</time>
      </trkpt>
      <trkpt lat="46.97844" lon="-1.32657">
        <ele>26.4</ele>
        <time>2015-04-12T10:27:16Z</time>
      </trkpt>
      <trkpt lat="46.97842" lon="-1.3263">
        <ele>25.7</ele>
        <time>2015-04-12T10:27:20Z</time>
      </trkpt>
      <trkpt lat="46.97855" lon="-1.32612">
        <ele>25.2</ele>
        <time>2015-04-12T10:27:26Z</time>
      </trkpt>
      <trkpt lat="46.97859" lon="-1.32582">
        <ele>24.9</ele>
        <time>2015-04-12T10:27:31Z</time>
      </trkpt>
      <trkpt lat="46.97865" lon="-1.32553">
        <ele>24.6</ele>
        <time>2015-04-12T10:27:37Z</time>
      </trkpt>
      <trkpt lat="46.97872" lon="-1.32522">
        <ele>24.2</ele>
        <time>2015-04-12T10:27:42Z</time>
      </trkpt>
      <trkpt lat="46.97878" lon="-1.32495">
        <ele>24.2</ele>
        <time>2015-04-12T10:27:47Z</time>
      </trkpt>
      <trkpt lat="46.97885" lon="-1.32468">
        <ele>25.6</ele>
        <time>2015-04-12T10:27:51Z</time>
      </trkpt>
      <trkpt lat="46.97897" lon="-1.32443">
        <ele>25.7</ele>
        <time>2015-04-12T10:27:55Z</time>
      </trkpt>
      <trkpt lat="46.97906" lon="-1.32416">
        <ele>25.5</ele>
        <time>2015-04-12T10:28:00Z</time>
      </trkpt>
      <trkpt lat="46.97904" lon="-1.32385">
        <ele>24.7</ele>
        <time>2015-04-12T10:28:07Z</time>
      </trkpt>
      <trkpt lat="46.97902" lon="-1.32354">
        <ele>24.4</ele>
        <time>2015-04-12T10:28:13Z</time>
      </trkpt>
      <trkpt lat="46.97901" lon="-1.32327">
        <ele>24.7</ele>
        <time>2015-04-12T10:28:19Z</time>
      </trkpt>
      <trkpt lat="46.97905" lon="-1.32295">
        <ele>24.3</ele>
        <time>2015-04-12T10:28:25Z</time>
      </trkpt>
      <trkpt lat="46.97904" lon="-1.32264">
        <ele>22.7</ele>
        <time>2015-04-12T10:28:30Z</time>
      </trkpt>
      <trkpt lat="46.97902" lon="-1.32237">
        <ele>21.4</ele>
        <time>2015-04-12T10:28:34Z</time>
      </trkpt>
      <trkpt lat="46.97897" lon="-1.32205">
        <ele>20.1</ele>
        <time>2015-04-12T10:28:39Z</time>
      </trkpt>
      <trkpt lat="46.97891" lon="-1.32176">
        <ele>19.7</ele>
        <time>2015-04-12T10:28:44Z</time>
      </trkpt>
      <trkpt lat="46.97887" lon="-1.3215">
        <ele>19.4</ele>
        <time>2015-04-12T10:28:49Z</time>
      </trkpt>
      <trkpt lat="46.97895" lon="-1.32125">
        <ele>20.6</ele>
        <time>2015-04-12T10:28:56Z</time>
      </trkpt>
      <trkpt lat="46.97914" lon="-1.32116">
        <ele>21</ele>
        <time>2015-04-12T10:29:03Z</time>
      </trkpt>
      <trkpt lat="46.97924" lon="-1.3214">
        <ele>21.1</ele>
        <time>2015-04-12T10:29:13Z</time>
      </trkpt>
      <trkpt lat="46.97927" lon="-1.32167">
        <ele>20.7</ele>
        <time>2015-04-12T10:29:19Z</time>
      </trkpt>
      <trkpt lat="46.97934" lon="-1.32191">
        <ele>21.2</ele>
        <time>2015-04-12T10:29:24Z</time>
      </trkpt>
      <trkpt lat="46.97943" lon="-1.32218">
        <ele>21.7</ele>
        <time>2015-04-12T10:29:29Z</time>
      </trkpt>
      <trkpt lat="46.97947" lon="-1.32244">
        <ele>21.9</ele>
        <time>2015-04-12T10:29:33Z</time>
      </trkpt>
      <trkpt lat="46.97949" lon="-1.32271">
        <ele>22.6</ele>
        <time>2015-04-12T10:29:37Z</time>
      </trkpt>
      <trkpt lat="46.97953" lon="-1.32303">
        <ele>23.4</ele>
        <time>2015-04-12T10:29:42Z</time>
      </trkpt>
      <trkpt lat="46.97959" lon="-1.32329">
        <ele>24.4</ele>
        <time>2015-04-12T10:29:47Z</time>
      </trkpt>
      <trkpt lat="46.97964" lon="-1.32355">
        <ele>25</ele>
        <time>2015-04-12T10:29:52Z</time>
      </trkpt>
      <trkpt lat="46.9797" lon="-1.32384">
        <ele>25.6</ele>
        <time>2015-04-12T10:29:58Z</time>
      </trkpt>
      <trkpt lat="46.9797" lon="-1.32411">
        <ele>26.2</ele>
        <time>2015-04-12T10:30:03Z</time>
      </trkpt>
      <trkpt lat="46.97976" lon="-1.3244">
        <ele>25.8</ele>
        <time>2015-04-12T10:30:08Z</time>
      </trkpt>
      <trkpt lat="46.97981" lon="-1.32471">
        <ele>24.8</ele>
        <time>2015-04-12T10:30:13Z</time>
      </trkpt>
      <trkpt lat="46.97987" lon="-1.325">
        <ele>26.3</ele>
        <time>2015-04-12T10:30:18Z</time>
      </trkpt>
      <trkpt lat="46.9799" lon="-1.32531">
        <ele>26.8</ele>
        <time>2015-04-12T10:30:23Z</time>
      </trkpt>
      <trkpt lat="46.97995" lon="-1.32557">
        <ele>25.5</ele>
        <time>2015-04-12T10:30:27Z</time>
      </trkpt>
      <trkpt lat="46.98002" lon="-1.32581">
        <ele>26.3</ele>
        <time>2015-04-12T10:30:31Z</time>
      </trkpt>
      <trkpt lat="46.98012" lon="-1.32604">
        <ele>26.8</ele>
        <time>2015-04-12T10:30:35Z</time>
      </trkpt>
      <trkpt lat="46.98028" lon="-1.32628">
        <ele>26.4</ele>
        <time>2015-04-12T10:30:40Z</time>
      </trkpt>
      <trkpt lat="46.9805" lon="-1.32631">
        <ele>25.9</ele>
        <time>2015-04-12T10:30:45Z</time>
      </trkpt>
      <trkpt lat="46.98069" lon="-1.32633">
        <ele>24.8</ele>
        <time>2015-04-12T10:30:49Z</time>
      </trkpt>
      <trkpt lat="46.98089" lon="-1.32641">
        <ele>23.1</ele>
        <time>2015-04-12T10:30:54Z</time>
      </trkpt>
      <trkpt lat="46.98107" lon="-1.32645">
        <ele>22.9</ele>
        <time>2015-04-12T10:31:01Z</time>
      </trkpt>
      <trkpt lat="46.98123" lon="-1.32632">
        <ele>22.8</ele>
        <time>2015-04-12T10:31:05Z</time>
      </trkpt>
      <trkpt lat="46.98142" lon="-1.32625">
        <ele>23.4</ele>
        <time>2015-04-12T10:31:09Z</time>
      </trkpt>
      <trkpt lat="46.98161" lon="-1.32622">
        <ele>24</ele>
        <time>2015-04-12T10:31:13Z</time>
      </trkpt>
      <trkpt lat="46.98181" lon="-1.32632">
        <ele>24.1</ele>
        <time>2015-04-12T10:31:18Z</time>
      </trkpt>
      <trkpt lat="46.98201" lon="-1.32636">
        <ele>23.9</ele>
        <time>2015-04-12T10:31:22Z</time>
      </trkpt>
      <trkpt lat="46.9822" lon="-1.32643">
        <ele>24</ele>
        <time>2015-04-12T10:31:26Z</time>
      </trkpt>
      <trkpt lat="46.98239" lon="-1.32652">
        <ele>24</ele>
        <time>2015-04-12T10:31:30Z</time>
      </trkpt>
      <trkpt lat="46.98258" lon="-1.32658">
        <ele>24</ele>
        <time>2015-04-12T10:31:35Z</time>
      </trkpt>
      <trkpt lat="46.98276" lon="-1.32652">
        <ele>23.7</ele>
        <time>2015-04-12T10:31:40Z</time>
      </trkpt>
      <trkpt lat="46.98291" lon="-1.32634">
        <ele>24.1</ele>
        <time>2015-04-12T10:31:47Z</time>
      </trkpt>
      <trkpt lat="46.983" lon="-1.32609">
        <ele>24.8</ele>
        <time>2015-04-12T10:31:58Z</time>
      </trkpt>
      <trkpt lat="46.983" lon="-1.3258">
        <ele>24.1</ele>
        <time>2015-04-12T10:32:11Z</time>
      </trkpt>
      <trkpt lat="46.98316" lon="-1.3256">
        <ele>24.2</ele>
        <time>2015-04-12T10:32:22Z</time>
      </trkpt>
      <trkpt lat="46.98322" lon="-1.32534">
        <ele>25.2</ele>
        <time>2015-04-12T10:32:31Z</time>
      </trkpt>
      <trkpt lat="46.98328" lon="-1.32507">
        <ele>25.5</ele>
        <time>2015-04-12T10:32:41Z</time>
      </trkpt>
      <trkpt lat="46.98331" lon="-1.32481">
        <ele>26</ele>
        <time>2015-04-12T10:32:52Z</time>
      </trkpt>
      <trkpt lat="46.98332" lon="-1.3245">
        <ele>26.2</ele>
        <time>2015-04-12T10:32:59Z</time>
      </trkpt>
      <trkpt lat="46.98332" lon="-1.3242">
        <ele>26.5</ele>
        <time>2015-04-12T10:33:05Z</time>
      </trkpt>
      <trkpt lat="46.98333" lon="-1.32393">
        <ele>26.9</ele>
        <time>2015-04-12T10:33:10Z</time>
      </trkpt>
      <trkpt lat="46.98336" lon="-1.32364">
        <ele>27.8</ele>
        <time>2015-04-12T10:33:14Z</time>
      </trkpt>
      <trkpt lat="46.98343" lon="-1.3234">
        <ele>28.4</ele>
        <time>2015-04-12T10:33:18Z</time>
      </trkpt>
      <trkpt lat="46.98357" lon="-1.32313">
        <ele>28.8</ele>
        <time>2015-04-12T10:33:23Z</time>
      </trkpt>
      <trkpt lat="46.98372" lon="-1.32292">
        <ele>29.3</ele>
        <time>2015-04-12T10:33:28Z</time>
      </trkpt>
      <trkpt lat="46.98387" lon="-1.32268">
        <ele>29.6</ele>
        <time>2015-04-12T10:33:32Z</time>
      </trkpt>
      <trkpt lat="46.98401" lon="-1.3225">
        <ele>29.6</ele>
        <time>2015-04-12T10:33:36Z</time>
      </trkpt>
      <trkpt lat="46.98414" lon="-1.32221">
        <ele>30.4</ele>
        <time>2015-04-12T10:33:41Z</time>
      </trkpt>
      <trkpt lat="46.98422" lon="-1.32197">
        <ele>31.2</ele>
        <time>2015-04-12T10:33:46Z</time>
      </trkpt>
      <trkpt lat="46.98435" lon="-1.32173">
        <ele>31.9</ele>
        <time>2015-04-12T10:33:51Z</time>
      </trkpt>
      <trkpt lat="46.98448" lon="-1.32149">
        <ele>32.3</ele>
        <time>2015-04-12T10:33:57Z</time>
      </trkpt>
      <trkpt lat="46.98459" lon="-1.32126">
        <ele>32.5</ele>
        <time>2015-04-12T10:34:02Z</time>
      </trkpt>
      <trkpt lat="46.98472" lon="-1.32101">
        <ele>32.7</ele>
        <time>2015-04-12T10:34:07Z</time>
      </trkpt>
      <trkpt lat="46.98484" lon="-1.32078">
        <ele>33.6</ele>
        <time>2015-04-12T10:34:15Z</time>
      </trkpt>
      <trkpt lat="46.98494" lon="-1.32056">
        <ele>34.2</ele>
        <time>2015-04-12T10:34:22Z</time>
      </trkpt>
      <trkpt lat="46.98487" lon="-1.32029">
        <ele>36.9</ele>
        <time>2015-04-12T10:34:52Z</time>
      </trkpt>
      <trkpt lat="46.98484" lon="-1.32002">
        <ele>38.4</ele>
        <time>2015-04-12T10:35:04Z</time>
      </trkpt>
      <trkpt lat="46.98473" lon="-1.31977">
        <ele>39.1</ele>
        <time>2015-04-12T10:35:16Z</time>
      </trkpt>
      <trkpt lat="46.98458" lon="-1.31961">
        <ele>39.3</ele>
        <time>2015-04-12T10:35:24Z</time>
      </trkpt>
      <trkpt lat="46.98477" lon="-1.31956">
        <ele>38.2</ele>
        <time>2015-04-12T10:35:36Z</time>
      </trkpt>
      <trkpt lat="46.98496" lon="-1.31969">
        <ele>38.5</ele>
        <time>2015-04-12T10:35:41Z</time>
      </trkpt>
      <trkpt lat="46.98512" lon="-1.31982">
        <ele>38.9</ele>
        <time>2015-04-12T10:35:45Z</time>
      </trkpt>
      <trkpt lat="46.98531" lon="-1.31995">
        <ele>39.3</ele>
        <time>2015-04-12T10:35:50Z</time>
      </trkpt>
      <trkpt lat="46.98549" lon="-1.32008">
        <ele>39.4</ele>
        <time>2015-04-12T10:35:55Z</time>
      </trkpt>
      <trkpt lat="46.98569" lon="-1.32016">
        <ele>39.2</ele>
        <time>2015-04-12T10:36:00Z</time>
      </trkpt>
      <trkpt lat="46.98586" lon="-1.32027">
        <ele>39.3</ele>
        <time>2015-04-12T10:36:05Z</time>
      </trkpt>
      <trkpt lat="46.98605" lon="-1.32041">
        <ele>39.1</ele>
        <time>2015-04-12T10:36:10Z</time>
      </trkpt>
      <trkpt lat="46.98624" lon="-1.32055">
        <ele>39</ele>
        <time>2015-04-12T10:36:15Z</time>
      </trkpt>
      <trkpt lat="46.9864" lon="-1.3207">
        <ele>38.4</ele>
        <time>2015-04-12T10:36:20Z</time>
      </trkpt>
      <trkpt lat="46.98656" lon="-1.32084">
        <ele>38.6</ele>
        <time>2015-04-12T10:36:27Z</time>
      </trkpt>
      <trkpt lat="46.98644" lon="-1.32058">
        <ele>37.4</ele>
        <time>2015-04-12T10:38:44Z</time>
      </trkpt>
      <trkpt lat="46.98626" lon="-1.32044">
        <ele>37.1</ele>
        <time>2015-04-12T10:38:49Z</time>
      </trkpt>
      <trkpt lat="46.98608" lon="-1.32031">
        <ele>36.4</ele>
        <time>2015-04-12T10:38:54Z</time>
      </trkpt>
      <trkpt lat="46.9859" lon="-1.32017">
        <ele>35</ele>
        <time>2015-04-12T10:38:59Z</time>
      </trkpt>
      <trkpt lat="46.98572" lon="-1.32004">
        <ele>33.6</ele>
        <time>2015-04-12T10:39:04Z</time>
      </trkpt>
      <trkpt lat="46.98569" lon="-1.31976">
        <ele>31.8</ele>
        <time>2015-04-12T10:39:11Z</time>
      </trkpt>
      <trkpt lat="46.98579" lon="-1.3195">
        <ele>31.9</ele>
        <time>2015-04-12T10:39:16Z</time>
      </trkpt>
      <trkpt lat="46.98592" lon="-1.31928">
        <ele>32.6</ele>
        <time>2015-04-12T10:39:22Z</time>
      </trkpt>
      <trkpt lat="46.9861" lon="-1.31914">
        <ele>32.4</ele>
        <time>2015-04-12T10:39:27Z</time>
      </trkpt>
      <trkpt lat="46.98628" lon="-1.31902">
        <ele>32.9</ele>
        <time>2015-04-12T10:39:32Z</time>
      </trkpt>
      <trkpt lat="46.98642" lon="-1.31885">
        <ele>34.1</ele>
        <time>2015-04-12T10:39:38Z</time>
      </trkpt>
      <trkpt lat="46.9866" lon="-1.31867">
        <ele>34.9</ele>
        <time>2015-04-12T10:39:44Z</time>
      </trkpt>
      <trkpt lat="46.98678" lon="-1.31853">
        <ele>35.3</ele>
        <time>2015-04-12T10:39:50Z</time>
      </trkpt>
      <trkpt lat="46.98696" lon="-1.31841">
        <ele>36.5</ele>
        <time>2015-04-12T10:39:56Z</time>
      </trkpt>
      <trkpt lat="46.98706" lon="-1.31816">
        <ele>38.3</ele>
        <time>2015-04-12T10:40:07Z</time>
      </trkpt>
      <trkpt lat="46.98711" lon="-1.31788">
        <ele>38.4</ele>
        <time>2015-04-12T10:40:14Z</time>
      </trkpt>
      <trkpt lat="46.98712" lon="-1.31759">
        <ele>38.8</ele>
        <time>2015-04-12T10:40:20Z</time>
      </trkpt>
      <trkpt lat="46.98709" lon="-1.31731">
        <ele>39.2</ele>
        <time>2015-04-12T10:40:26Z</time>
      </trkpt>
      <trkpt lat="46.98703" lon="-1.31702">
        <ele>39.7</ele>
        <time>2015-04-12T10:40:32Z</time>
      </trkpt>
      <trkpt lat="46.987" lon="-1.31672">
        <ele>40.3</ele>
        <time>2015-04-12T10:40:39Z</time>
      </trkpt>
      <trkpt lat="46.98699" lon="-1.31643">
        <ele>40.5</ele>
        <time>2015-04-12T10:40:45Z</time>
      </trkpt>
      <trkpt lat="46.98695" lon="-1.31616">
        <ele>41.6</ele>
        <time>2015-04-12T10:40:52Z</time>
      </trkpt>
      <trkpt lat="46.98687" lon="-1.31587">
        <ele>42.7</ele>
        <time>2015-04-12T10:40:59Z</time>
      </trkpt>
      <trkpt lat="46.98695" lon="-1.3156">
        <ele>43.7</ele>
        <time>2015-04-12T10:41:08Z</time>
      </trkpt>
      <trkpt lat="46.98709" lon="-1.3154">
        <ele>44.5</ele>
        <time>2015-04-12T10:41:19Z</time>
      </trkpt>
      <trkpt lat="46.98725" lon="-1.31524">
        <ele>45.9</ele>
        <time>2015-04-12T10:41:30Z</time>
      </trkpt>
      <trkpt lat="46.98734" lon="-1.315">
        <ele>47.5</ele>
        <time>2015-04-12T10:41:41Z</time>
      </trkpt>
      <trkpt lat="46.98736" lon="-1.31471">
        <ele>48.1</ele>
        <time>2015-04-12T10:41:51Z</time>
      </trkpt>
      <trkpt lat="46.98732" lon="-1.31443">
        <ele>49</ele>
        <time>2015-04-12T10:42:00Z</time>
      </trkpt>
      <trkpt lat="46.98725" lon="-1.31418">
        <ele>50.1</ele>
        <time>2015-04-12T10:42:10Z</time>
      </trkpt>
      <trkpt lat="46.98726" lon="-1.31389">
        <ele>50.6</ele>
        <time>2015-04-12T10:42:17Z</time>
      </trkpt>
      <trkpt lat="46.98724" lon="-1.31361">
        <ele>50.9</ele>
        <time>2015-04-12T10:42:23Z</time>
      </trkpt>
      <trkpt lat="46.98712" lon="-1.31382">
        <ele>53.9</ele>
        <time>2015-04-12T10:42:54Z</time>
      </trkpt>
      <trkpt lat="46.98713" lon="-1.31408">
        <ele>54.9</ele>
        <time>2015-04-12T10:43:02Z</time>
      </trkpt>
      <trkpt lat="46.98722" lon="-1.31433">
        <ele>55.3</ele>
        <time>2015-04-12T10:43:07Z</time>
      </trkpt>
      <trkpt lat="46.98714" lon="-1.3146">
        <ele>56.1</ele>
        <time>2015-04-12T10:43:13Z</time>
      </trkpt>
      <trkpt lat="46.98697" lon="-1.31468">
        <ele>57.5</ele>
        <time>2015-04-12T10:43:24Z</time>
      </trkpt>
      <trkpt lat="46.9868" lon="-1.31456">
        <ele>58.1</ele>
        <time>2015-04-12T10:43:45Z</time>
      </trkpt>
      <trkpt lat="46.98663" lon="-1.31447">
        <ele>57.7</ele>
        <time>2015-04-12T10:43:56Z</time>
      </trkpt>
      <trkpt lat="46.98662" lon="-1.3142">
        <ele>56.1</ele>
        <time>2015-04-12T10:44:05Z</time>
      </trkpt>
      <trkpt lat="46.9866" lon="-1.31394">
        <ele>53.6</ele>
        <time>2015-04-12T10:44:16Z</time>
      </trkpt>
      <trkpt lat="46.98664" lon="-1.31368">
        <ele>44.1</ele>
        <time>2015-04-12T10:45:58Z</time>
      </trkpt>
      <trkpt lat="46.98668" lon="-1.3134">
        <ele>43.8</ele>
        <time>2015-04-12T10:46:04Z</time>
      </trkpt>
      <trkpt lat="46.98682" lon="-1.31316">
        <ele>43.4</ele>
        <time>2015-04-12T10:46:10Z</time>
      </trkpt>
      <trkpt lat="46.9869" lon="-1.31293">
        <ele>43</ele>
        <time>2015-04-12T10:46:15Z</time>
      </trkpt>
      <trkpt lat="46.98699" lon="-1.31268">
        <ele>42.4</ele>
        <time>2015-04-12T10:46:21Z</time>
      </trkpt>
      <trkpt lat="46.98711" lon="-1.31242">
        <ele>41.7</ele>
        <time>2015-04-12T10:46:28Z</time>
      </trkpt>
      <trkpt lat="46.98722" lon="-1.31221">
        <ele>41.5</ele>
        <time>2015-04-12T10:46:33Z</time>
      </trkpt>
      <trkpt lat="46.9873" lon="-1.31192">
        <ele>41.5</ele>
        <time>2015-04-12T10:46:39Z</time>
      </trkpt>
      <trkpt lat="46.98741" lon="-1.31171">
        <ele>41.2</ele>
        <time>2015-04-12T10:46:44Z</time>
      </trkpt>
      <trkpt lat="46.98755" lon="-1.31149">
        <ele>40.2</ele>
        <time>2015-04-12T10:46:51Z</time>
      </trkpt>
      <trkpt lat="46.98769" lon="-1.31131">
        <ele>40.1</ele>
        <time>2015-04-12T10:46:57Z</time>
      </trkpt>
      <trkpt lat="46.98783" lon="-1.31111">
        <ele>40.5</ele>
        <time>2015-04-12T10:47:03Z</time>
      </trkpt>
      <trkpt lat="46.98795" lon="-1.3109">
        <ele>41.1</ele>
        <time>2015-04-12T10:47:09Z</time>
      </trkpt>
      <trkpt lat="46.98809" lon="-1.3107">
        <ele>42.2</ele>
        <time>2015-04-12T10:47:15Z</time>
      </trkpt>
      <trkpt lat="46.98822" lon="-1.31048">
        <ele>42.9</ele>
        <time>2015-04-12T10:47:21Z</time>
      </trkpt>
      <trkpt lat="46.98836" lon="-1.31028">
        <ele>43.8</ele>
        <time>2015-04-12T10:47:26Z</time>
      </trkpt>
      <trkpt lat="46.98852" lon="-1.31015">
        <ele>44.6</ele>
        <time>2015-04-12T10:47:34Z</time>
      </trkpt>
      <trkpt lat="46.98869" lon="-1.31007">
        <ele>45.9</ele>
        <time>2015-04-12T10:47:50Z</time>
      </trkpt>
      <trkpt lat="46.98878" lon="-1.30982">
        <ele>47.8</ele>
        <time>2015-04-12T10:48:02Z</time>
      </trkpt>
      <trkpt lat="46.98886" lon="-1.30958">
        <ele>49.2</ele>
        <time>2015-04-12T10:48:11Z</time>
      </trkpt>
      <trkpt lat="46.98907" lon="-1.3096">
        <ele>49.8</ele>
        <time>2015-04-12T10:48:19Z</time>
      </trkpt>
      <trkpt lat="46.98923" lon="-1.30975">
        <ele>49.5</ele>
        <time>2015-04-12T10:48:27Z</time>
      </trkpt>
      <trkpt lat="46.98934" lon="-1.30997">
        <ele>50.7</ele>
        <time>2015-04-12T10:49:03Z</time>
      </trkpt>
      <trkpt lat="46.98926" lon="-1.31024">
        <ele>48.9</ele>
        <time>2015-04-12T10:49:55Z</time>
      </trkpt>
      <trkpt lat="46.98915" lon="-1.31046">
        <ele>49.9</ele>
        <time>2015-04-12T10:50:04Z</time>
      </trkpt>
      <trkpt lat="46.98902" lon="-1.31065">
        <ele>49.4</ele>
        <time>2015-04-12T10:50:12Z</time>
      </trkpt>
      <trkpt lat="46.98883" lon="-1.3107">
        <ele>45.6</ele>
        <time>2015-04-12T10:50:29Z</time>
      </trkpt>
      <trkpt lat="46.98866" lon="-1.31087">
        <ele>44</ele>
        <time>2015-04-12T10:50:36Z</time>
      </trkpt>
      <trkpt lat="46.98867" lon="-1.31114">
        <ele>44.1</ele>
        <time>2015-04-12T10:51:04Z</time>
      </trkpt>
      <trkpt lat="46.9886" lon="-1.31141">
        <ele>43.9</ele>
        <time>2015-04-12T10:52:35Z</time>
      </trkpt>
      <trkpt lat="46.98842" lon="-1.31157">
        <ele>43.8</ele>
        <time>2015-04-12T10:52:41Z</time>
      </trkpt>
      <trkpt lat="46.98822" lon="-1.31175">
        <ele>43.7</ele>
        <time>2015-04-12T10:52:45Z</time>
      </trkpt>
      <trkpt lat="46.98805" lon="-1.31192">
        <ele>43.9</ele>
        <time>2015-04-12T10:52:49Z</time>
      </trkpt>
      <trkpt lat="46.98788" lon="-1.31202">
        <ele>44.1</ele>
        <time>2015-04-12T10:52:54Z</time>
      </trkpt>
      <trkpt lat="46.98776" lon="-1.31222">
        <ele>44.3</ele>
        <time>2015-04-12T10:53:00Z</time>
      </trkpt>
      <trkpt lat="46.98787" lon="-1.31245">
        <ele>45</ele>
        <time>2015-04-12T10:53:12Z</time>
      </trkpt>
      <trkpt lat="46.98788" lon="-1.31274">
        <ele>46.3</ele>
        <time>2015-04-12T10:53:23Z</time>
      </trkpt>
      <trkpt lat="46.98774" lon="-1.31291">
        <ele>46.7</ele>
        <time>2015-04-12T10:53:29Z</time>
      </trkpt>
      <trkpt lat="46.9877" lon="-1.31317">
        <ele>46.6</ele>
        <time>2015-04-12T10:53:34Z</time>
      </trkpt>
      <trkpt lat="46.98783" lon="-1.31337">
        <ele>46.5</ele>
        <time>2015-04-12T10:53:40Z</time>
      </trkpt>
      <trkpt lat="46.98779" lon="-1.31367">
        <ele>46.6</ele>
        <time>2015-04-12T10:53:49Z</time>
      </trkpt>
      <trkpt lat="46.98797" lon="-1.31373">
        <ele>48.9</ele>
        <time>2015-04-12T10:54:11Z</time>
      </trkpt>
      <trkpt lat="46.98814" lon="-1.3138">
        <ele>50.6</ele>
        <time>2015-04-12T10:54:26Z</time>
      </trkpt>
      <trkpt lat="46.98834" lon="-1.31382">
        <ele>50.4</ele>
        <time>2015-04-12T10:54:38Z</time>
      </trkpt>
      <trkpt lat="46.98853" lon="-1.31386">
        <ele>49.5</ele>
        <time>2015-04-12T10:54:52Z</time>
      </trkpt>
      <trkpt lat="46.98872" lon="-1.31391">
        <ele>48.5</ele>
        <time>2015-04-12T10:55:02Z</time>
      </trkpt>
      <trkpt lat="46.9889" lon="-1.31395">
        <ele>48.6</ele>
        <time>2015-04-12T10:55:10Z</time>
      </trkpt>
      <trkpt lat="46.98909" lon="-1.31398">
        <ele>49</ele>
        <time>2015-04-12T10:55:17Z</time>
      </trkpt>
      <trkpt lat="46.98928" lon="-1.31401">
        <ele>46.6</ele>
        <time>2015-04-12T10:55:23Z</time>
      </trkpt>
      <trkpt lat="46.98947" lon="-1.31406">
        <ele>45.9</ele>
        <time>2015-04-12T10:55:29Z</time>
      </trkpt>
      <trkpt lat="46.98965" lon="-1.31411">
        <ele>45</ele>
        <time>2015-04-12T10:55:35Z</time>
      </trkpt>
      <trkpt lat="46.98985" lon="-1.31416">
        <ele>44.4</ele>
        <time>2015-04-12T10:55:42Z</time>
      </trkpt>
      <trkpt lat="46.98995" lon="-1.31439">
        <ele>47.2</ele>
        <time>2015-04-12T10:55:48Z</time>
      </trkpt>
      <trkpt lat="46.99001" lon="-1.31469">
        <ele>48.6</ele>
        <time>2015-04-12T10:55:54Z</time>
      </trkpt>
      <trkpt lat="46.99009" lon="-1.31497">
        <ele>49</ele>
        <time>2015-04-12T10:56:00Z</time>
      </trkpt>
      <trkpt lat="46.9902" lon="-1.31521">
        <ele>48.9</ele>
        <time>2015-04-12T10:56:05Z</time>
      </trkpt>
      <trkpt lat="46.99029" lon="-1.31546">
        <ele>49.1</ele>
        <time>2015-04-12T10:56:10Z</time>
      </trkpt>
      <trkpt lat="46.99041" lon="-1.31568">
        <ele>47.4</ele>
        <time>2015-04-12T10:56:15Z</time>
      </trkpt>
      <trkpt lat="46.99053" lon="-1.31591">
        <ele>47.6</ele>
        <time>2015-04-12T10:56:20Z</time>
      </trkpt>
      <trkpt lat="46.99065" lon="-1.31618">
        <ele>48.9</ele>
        <time>2015-04-12T10:56:25Z</time>
      </trkpt>
      <trkpt lat="46.99075" lon="-1.31643">
        <ele>50.2</ele>
        <time>2015-04-12T10:56:30Z</time>
      </trkpt>
      <trkpt lat="46.99081" lon="-1.31669">
        <ele>51.6</ele>
        <time>2015-04-12T10:56:35Z</time>
      </trkpt>
      <trkpt lat="46.99086" lon="-1.31695">
        <ele>52.9</ele>
        <time>2015-04-12T10:56:40Z</time>
      </trkpt>
      <trkpt lat="46.99092" lon="-1.31721">
        <ele>53.9</ele>
        <time>2015-04-12T10:56:45Z</time>
      </trkpt>
      <trkpt lat="46.99098" lon="-1.31749">
        <ele>54.6</ele>
        <time>2015-04-12T10:56:50Z</time>
      </trkpt>
      <trkpt lat="46.99104" lon="-1.31774">
        <ele>55.4</ele>
        <time>2015-04-12T10:56:55Z</time>
      </trkpt>
      <trkpt lat="46.9911" lon="-1.31804">
        <ele>56.1</ele>
        <time>2015-04-12T10:57:00Z</time>
      </trkpt>
      <trkpt lat="46.99116" lon="-1.31834">
        <ele>57.4</ele>
        <time>2015-04-12T10:57:05Z</time>
      </trkpt>
      <trkpt lat="46.9912" lon="-1.3186">
        <ele>58.5</ele>
        <time>2015-04-12T10:57:09Z</time>
      </trkpt>
      <trkpt lat="46.99124" lon="-1.31887">
        <ele>59.1</ele>
        <time>2015-04-12T10:57:13Z</time>
      </trkpt>
      <trkpt lat="46.99135" lon="-1.31916">
        <ele>60.8</ele>
        <time>2015-04-12T10:57:18Z</time>
      </trkpt>
      <trkpt lat="46.99145" lon="-1.31941">
        <ele>61.2</ele>
        <time>2015-04-12T10:57:22Z</time>
      </trkpt>
      <trkpt lat="46.99156" lon="-1.31964">
        <ele>61.5</ele>
        <time>2015-04-12T10:57:26Z</time>
      </trkpt>
      <trkpt lat="46.99178" lon="-1.31972">
        <ele>59.8</ele>
        <time>2015-04-12T10:57:31Z</time>
      </trkpt>
      <trkpt lat="46.99199" lon="-1.31971">
        <ele>59.3</ele>
        <time>2015-04-12T10:57:35Z</time>
      </trkpt>
      <trkpt lat="46.99218" lon="-1.31958">
        <ele>59.2</ele>
        <time>2015-04-12T10:57:40Z</time>
      </trkpt>
      <trkpt lat="46.99233" lon="-1.3194">
        <ele>57.9</ele>
        <time>2015-04-12T10:57:44Z</time>
      </trkpt>
      <trkpt lat="46.99252" lon="-1.31924">
        <ele>57.7</ele>
        <time>2015-04-12T10:57:49Z</time>
      </trkpt>
      <trkpt lat="46.99273" lon="-1.31909">
        <ele>58</ele>
        <time>2015-04-12T10:57:54Z</time>
      </trkpt>
      <trkpt lat="46.99289" lon="-1.31897">
        <ele>58.1</ele>
        <time>2015-04-12T10:57:58Z</time>
      </trkpt>
      <trkpt lat="46.99307" lon="-1.31884">
        <ele>58.7</ele>
        <time>2015-04-12T10:58:02Z</time>
      </trkpt>
      <trkpt lat="46.99323" lon="-1.31871">
        <ele>59</ele>
        <time>2015-04-12T10:58:06Z</time>
      </trkpt>
      <trkpt lat="46.99341" lon="-1.31859">
        <ele>58.8</ele>
        <time>2015-04-12T10:58:10Z</time>
      </trkpt>
      <trkpt lat="46.99359" lon="-1.31849">
        <ele>58.5</ele>
        <time>2015-04-12T10:58:14Z</time>
      </trkpt>
      <trkpt lat="46.99377" lon="-1.31846">
        <ele>58.3</ele>
        <time>2015-04-12T10:58:18Z</time>
      </trkpt>
      <trkpt lat="46.99397" lon="-1.31846">
        <ele>57.6</ele>
        <time>2015-04-12T10:58:22Z</time>
      </trkpt>
      <trkpt lat="46.99417" lon="-1.31849">
        <ele>56.4</ele>
        <time>2015-04-12T10:58:26Z</time>
      </trkpt>
      <trkpt lat="46.99436" lon="-1.31854">
        <ele>55.7</ele>
        <time>2015-04-12T10:58:30Z</time>
      </trkpt>
      <trkpt lat="46.99456" lon="-1.31861">
        <ele>53.7</ele>
        <time>2015-04-12T10:58:34Z</time>
      </trkpt>
      <trkpt lat="46.99475" lon="-1.31865">
        <ele>53.6</ele>
        <time>2015-04-12T10:58:38Z</time>
      </trkpt>
      <trkpt lat="46.99496" lon="-1.31869">
        <ele>52.6</ele>
        <time>2015-04-12T10:58:42Z</time>
      </trkpt>
      <trkpt lat="46.99517" lon="-1.31871">
        <ele>51.5</ele>
        <time>2015-04-12T10:58:46Z</time>
      </trkpt>
      <trkpt lat="46.99539" lon="-1.31872">
        <ele>50.1</ele>
        <time>2015-04-12T10:58:50Z</time>
      </trkpt>
      <trkpt lat="46.99559" lon="-1.3187">
        <ele>50.5</ele>
        <time>2015-04-12T10:58:54Z</time>
      </trkpt>
      <trkpt lat="46.99578" lon="-1.31866">
        <ele>50.5</ele>
        <time>2015-04-12T10:58:58Z</time>
      </trkpt>
      <trkpt lat="46.99597" lon="-1.31865">
        <ele>49.6</ele>
        <time>2015-04-12T10:59:02Z</time>
      </trkpt>
      <trkpt lat="46.9962" lon="-1.31864">
        <ele>51.8</ele>
        <time>2015-04-12T10:59:07Z</time>
      </trkpt>
      <trkpt lat="46.9964" lon="-1.3186">
        <ele>53.4</ele>
        <time>2015-04-12T10:59:11Z</time>
      </trkpt>
      <trkpt lat="46.99661" lon="-1.31852">
        <ele>52.3</ele>
        <time>2015-04-12T10:59:15Z</time>
      </trkpt>
      <trkpt lat="46.99682" lon="-1.31842">
        <ele>52.7</ele>
        <time>2015-04-12T10:59:19Z</time>
      </trkpt>
      <trkpt lat="46.99703" lon="-1.3183">
        <ele>53.3</ele>
        <time>2015-04-12T10:59:23Z</time>
      </trkpt>
      <trkpt lat="46.99722" lon="-1.31822">
        <ele>54.3</ele>
        <time>2015-04-12T10:59:27Z</time>
      </trkpt>
      <trkpt lat="46.9974" lon="-1.31814">
        <ele>55.5</ele>
        <time>2015-04-12T10:59:31Z</time>
      </trkpt>
      <trkpt lat="46.99759" lon="-1.31805">
        <ele>55.1</ele>
        <time>2015-04-12T10:59:37Z</time>
      </trkpt>
      <trkpt lat="46.99777" lon="-1.31799">
        <ele>55.1</ele>
        <time>2015-04-12T10:59:42Z</time>
      </trkpt>
      <trkpt lat="46.99798" lon="-1.3179">
        <ele>55.7</ele>
        <time>2015-04-12T10:59:47Z</time>
      </trkpt>
      <trkpt lat="46.99817" lon="-1.31782">
        <ele>56.4</ele>
        <time>2015-04-12T10:59:51Z</time>
      </trkpt>
      <trkpt lat="46.99836" lon="-1.31772">
        <ele>57.9</ele>
        <time>2015-04-12T10:59:55Z</time>
      </trkpt>
      <trkpt lat="46.99854" lon="-1.31766">
        <ele>58.8</ele>
        <time>2015-04-12T10:59:59Z</time>
      </trkpt>
      <trkpt lat="46.99871" lon="-1.31759">
        <ele>59.3</ele>
        <time>2015-04-12T11:00:03Z</time>
      </trkpt>
      <trkpt lat="46.99889" lon="-1.31751">
        <ele>59.8</ele>
        <time>2015-04-12T11:00:07Z</time>
      </trkpt>
      <trkpt lat="46.99908" lon="-1.31748">
        <ele>60.4</ele>
        <time>2015-04-12T11:00:11Z</time>
      </trkpt>
      <trkpt lat="46.9993" lon="-1.31748">
        <ele>60.2</ele>
        <time>2015-04-12T11:00:15Z</time>
      </trkpt>
      <trkpt lat="46.99951" lon="-1.31746">
        <ele>59.9</ele>
        <time>2015-04-12T11:00:19Z</time>
      </trkpt>
      <trkpt lat="46.99972" lon="-1.31746">
        <ele>59.6</ele>
        <time>2015-04-12T11:00:23Z</time>
      </trkpt>
      <trkpt lat="46.99992" lon="-1.31748">
        <ele>58.9</ele>
        <time>2015-04-12T11:00:27Z</time>
      </trkpt>
      <trkpt lat="47.00014" lon="-1.31751">
        <ele>58.2</ele>
        <time>2015-04-12T11:00:31Z</time>
      </trkpt>
      <trkpt lat="47.00038" lon="-1.31756">
        <ele>58.3</ele>
        <time>2015-04-12T11:00:35Z</time>
      </trkpt>
      <trkpt lat="47.00057" lon="-1.31759">
        <ele>58.4</ele>
        <time>2015-04-12T11:00:38Z</time>
      </trkpt>
      <trkpt lat="47.00075" lon="-1.31762">
        <ele>58.1</ele>
        <time>2015-04-12T11:00:41Z</time>
      </trkpt>
      <trkpt lat="47.00094" lon="-1.31765">
        <ele>58.1</ele>
        <time>2015-04-12T11:00:44Z</time>
      </trkpt>
      <trkpt lat="47.00115" lon="-1.3177">
        <ele>57.5</ele>
        <time>2015-04-12T11:00:47Z</time>
      </trkpt>
      <trkpt lat="47.00135" lon="-1.31777">
        <ele>57.4</ele>
        <time>2015-04-12T11:00:50Z</time>
      </trkpt>
      <trkpt lat="47.00157" lon="-1.31781">
        <ele>58.7</ele>
        <time>2015-04-12T11:00:54Z</time>
      </trkpt>
      <trkpt lat="47.0018" lon="-1.31778">
        <ele>58.9</ele>
        <time>2015-04-12T11:00:58Z</time>
      </trkpt>
      <trkpt lat="47.00201" lon="-1.31776">
        <ele>58.7</ele>
        <time>2015-04-12T11:01:02Z</time>
      </trkpt>
      <trkpt lat="47.00222" lon="-1.31774">
        <ele>58.5</ele>
        <time>2015-04-12T11:01:06Z</time>
      </trkpt>
      <trkpt lat="47.0024" lon="-1.31774">
        <ele>57.7</ele>
        <time>2015-04-12T11:01:09Z</time>
      </trkpt>
      <trkpt lat="47.00258" lon="-1.31769">
        <ele>57.2</ele>
        <time>2015-04-12T11:01:12Z</time>
      </trkpt>
      <trkpt lat="47.00276" lon="-1.31765">
        <ele>58.2</ele>
        <time>2015-04-12T11:01:15Z</time>
      </trkpt>
      <trkpt lat="47.00294" lon="-1.31762">
        <ele>59.5</ele>
        <time>2015-04-12T11:01:18Z</time>
      </trkpt>
      <trkpt lat="47.00314" lon="-1.31759">
        <ele>60.8</ele>
        <time>2015-04-12T11:01:21Z</time>
      </trkpt>
      <trkpt lat="47.00333" lon="-1.31756">
        <ele>60.5</ele>
        <time>2015-04-12T11:01:24Z</time>
      </trkpt>
      <trkpt lat="47.00351" lon="-1.31752">
        <ele>60</ele>
        <time>2015-04-12T11:01:29Z</time>
      </trkpt>
      <trkpt lat="47.0037" lon="-1.31749">
        <ele>57.1</ele>
        <time>2015-04-12T11:01:41Z</time>
      </trkpt>
      <trkpt lat="47.00389" lon="-1.31749">
        <ele>58</ele>
        <time>2015-04-12T11:01:47Z</time>
      </trkpt>
      <trkpt lat="47.00407" lon="-1.31753">
        <ele>58.1</ele>
        <time>2015-04-12T11:01:53Z</time>
      </trkpt>
      <trkpt lat="47.00425" lon="-1.31754">
        <ele>58.1</ele>
        <time>2015-04-12T11:01:58Z</time>
      </trkpt>
      <trkpt lat="47.00444" lon="-1.31756">
        <ele>61.2</ele>
        <time>2015-04-12T11:02:06Z</time>
      </trkpt>
      <trkpt lat="47.00465" lon="-1.31758">
        <ele>60.7</ele>
        <time>2015-04-12T11:02:13Z</time>
      </trkpt>
      <trkpt lat="47.00484" lon="-1.31759">
        <ele>59.8</ele>
        <time>2015-04-12T11:02:19Z</time>
      </trkpt>
      <trkpt lat="47.00503" lon="-1.31759">
        <ele>60.7</ele>
        <time>2015-04-12T11:02:24Z</time>
      </trkpt>
      <trkpt lat="47.00522" lon="-1.31762">
        <ele>60.8</ele>
        <time>2015-04-12T11:02:28Z</time>
      </trkpt>
      <trkpt lat="47.00544" lon="-1.31762">
        <ele>60.9</ele>
        <time>2015-04-12T11:02:33Z</time>
      </trkpt>
      <trkpt lat="47.00562" lon="-1.31762">
        <ele>61.7</ele>
        <time>2015-04-12T11:02:37Z</time>
      </trkpt>
      <trkpt lat="47.0058" lon="-1.3176">
        <ele>61.6</ele>
        <time>2015-04-12T11:02:41Z</time>
      </trkpt>
      <trkpt lat="47.00599" lon="-1.31761">
        <ele>60.5</ele>
        <time>2015-04-12T11:02:45Z</time>
      </trkpt>
      <trkpt lat="47.00618" lon="-1.31762">
        <ele>59.5</ele>
        <time>2015-04-12T11:02:49Z</time>
      </trkpt>
      <trkpt lat="47.00638" lon="-1.31762">
        <ele>58.1</ele>
        <time>2015-04-12T11:02:53Z</time>
      </trkpt>
      <trkpt lat="47.00657" lon="-1.31761">
        <ele>56.6</ele>
        <time>2015-04-12T11:02:57Z</time>
      </trkpt>
      <trkpt lat="47.00678" lon="-1.31759">
        <ele>55.4</ele>
        <time>2015-04-12T11:03:01Z</time>
      </trkpt>
      <trkpt lat="47.007" lon="-1.31757">
        <ele>56</ele>
        <time>2015-04-12T11:03:05Z</time>
      </trkpt>
      <trkpt lat="47.00722" lon="-1.31756">
        <ele>54.5</ele>
        <time>2015-04-12T11:03:09Z</time>
      </trkpt>
      <trkpt lat="47.00741" lon="-1.31758">
        <ele>53.5</ele>
        <time>2015-04-12T11:03:13Z</time>
      </trkpt>
      <trkpt lat="47.00754" lon="-1.31732">
        <ele>52.7</ele>
        <time>2015-04-12T11:03:19Z</time>
      </trkpt>
      <trkpt lat="47.00757" lon="-1.31701">
        <ele>52.2</ele>
        <time>2015-04-12T11:03:24Z</time>
      </trkpt>
      <trkpt lat="47.00759" lon="-1.31672">
        <ele>52.3</ele>
        <time>2015-04-12T11:03:29Z</time>
      </trkpt>
      <trkpt lat="47.00763" lon="-1.31645">
        <ele>52.7</ele>
        <time>2015-04-12T11:03:33Z</time>
      </trkpt>
      <trkpt lat="47.00763" lon="-1.31617">
        <ele>53.1</ele>
        <time>2015-04-12T11:03:38Z</time>
      </trkpt>
      <trkpt lat="47.00764" lon="-1.31587">
        <ele>53.8</ele>
        <time>2015-04-12T11:03:43Z</time>
      </trkpt>
      <trkpt lat="47.00767" lon="-1.31556">
        <ele>54.5</ele>
        <time>2015-04-12T11:03:48Z</time>
      </trkpt>
      <trkpt lat="47.0077" lon="-1.31524">
        <ele>55</ele>
        <time>2015-04-12T11:03:53Z</time>
      </trkpt>
      <trkpt lat="47.00773" lon="-1.31494">
        <ele>55.7</ele>
        <time>2015-04-12T11:03:58Z</time>
      </trkpt>
      <trkpt lat="47.00778" lon="-1.31465">
        <ele>56.4</ele>
        <time>2015-04-12T11:04:03Z</time>
      </trkpt>
      <trkpt lat="47.00788" lon="-1.31439">
        <ele>56.8</ele>
        <time>2015-04-12T11:04:08Z</time>
      </trkpt>
      <trkpt lat="47.008" lon="-1.31415">
        <ele>57.4</ele>
        <time>2015-04-12T11:04:13Z</time>
      </trkpt>
      <trkpt lat="47.00812" lon="-1.31392">
        <ele>59</ele>
        <time>2015-04-12T11:04:18Z</time>
      </trkpt>
      <trkpt lat="47.00822" lon="-1.31366">
        <ele>60.4</ele>
        <time>2015-04-12T11:04:24Z</time>
      </trkpt>
      <trkpt lat="47.00832" lon="-1.31343">
        <ele>61.3</ele>
        <time>2015-04-12T11:04:29Z</time>
      </trkpt>
      <trkpt lat="47.00847" lon="-1.31322">
        <ele>62.5</ele>
        <time>2015-04-12T11:04:34Z</time>
      </trkpt>
      <trkpt lat="47.00862" lon="-1.31305">
        <ele>63.4</ele>
        <time>2015-04-12T11:04:39Z</time>
      </trkpt>
      <trkpt lat="47.00875" lon="-1.3128">
        <ele>64.8</ele>
        <time>2015-04-12T11:04:44Z</time>
      </trkpt>
      <trkpt lat="47.00887" lon="-1.3126">
        <ele>65.9</ele>
        <time>2015-04-12T11:04:48Z</time>
      </trkpt>
      <trkpt lat="47.00899" lon="-1.31238">
        <ele>67.5</ele>
        <time>2015-04-12T11:04:54Z</time>
      </trkpt>
      <trkpt lat="47.00911" lon="-1.31218">
        <ele>68.4</ele>
        <time>2015-04-12T11:04:59Z</time>
      </trkpt>
      <trkpt lat="47.00925" lon="-1.31196">
        <ele>69.5</ele>
        <time>2015-04-12T11:05:04Z</time>
      </trkpt>
      <trkpt lat="47.0094" lon="-1.31174">
        <ele>70.9</ele>
        <time>2015-04-12T11:05:09Z</time>
      </trkpt>
      <trkpt lat="47.00954" lon="-1.31152">
        <ele>72.5</ele>
        <time>2015-04-12T11:05:14Z</time>
      </trkpt>
      <trkpt lat="47.00968" lon="-1.31133">
        <ele>74.1</ele>
        <time>2015-04-12T11:05:19Z</time>
      </trkpt>
      <trkpt lat="47.00985" lon="-1.31113">
        <ele>76</ele>
        <time>2015-04-12T11:05:24Z</time>
      </trkpt>
      <trkpt lat="47.01" lon="-1.31094">
        <ele>76.8</ele>
        <time>2015-04-12T11:05:28Z</time>
      </trkpt>
      <trkpt lat="47.01016" lon="-1.31072">
        <ele>77.5</ele>
        <time>2015-04-12T11:05:33Z</time>
      </trkpt>
      <trkpt lat="47.01029" lon="-1.31049">
        <ele>77.5</ele>
        <time>2015-04-12T11:05:38Z</time>
      </trkpt>
      <trkpt lat="47.01016" lon="-1.31025">
        <ele>78.2</ele>
        <time>2015-04-12T11:05:45Z</time>
      </trkpt>
      <trkpt lat="47.00994" lon="-1.31017">
        <ele>79.8</ele>
        <time>2015-04-12T11:05:51Z</time>
      </trkpt>
      <trkpt lat="47.00975" lon="-1.31004">
        <ele>81.1</ele>
        <time>2015-04-12T11:05:56Z</time>
      </trkpt>
      <trkpt lat="47.00957" lon="-1.30987">
        <ele>82.2</ele>
        <time>2015-04-12T11:06:01Z</time>
      </trkpt>
      <trkpt lat="47.00938" lon="-1.30972">
        <ele>83.7</ele>
        <time>2015-04-12T11:06:06Z</time>
      </trkpt>
      <trkpt lat="47.0092" lon="-1.30956">
        <ele>85.3</ele>
        <time>2015-04-12T11:06:12Z</time>
      </trkpt>
      <trkpt lat="47.00908" lon="-1.30935">
        <ele>85.6</ele>
        <time>2015-04-12T11:06:16Z</time>
      </trkpt>
      <trkpt lat="47.00896" lon="-1.30915">
        <ele>86</ele>
        <time>2015-04-12T11:06:20Z</time>
      </trkpt>
      <trkpt lat="47.00886" lon="-1.30886">
        <ele>85.6</ele>
        <time>2015-04-12T11:06:25Z</time>
      </trkpt>
      <trkpt lat="47.00875" lon="-1.30858">
        <ele>85.3</ele>
        <time>2015-04-12T11:06:29Z</time>
      </trkpt>
      <trkpt lat="47.00859" lon="-1.30838">
        <ele>84.8</ele>
        <time>2015-04-12T11:06:34Z</time>
      </trkpt>
      <trkpt lat="47.00843" lon="-1.30821">
        <ele>84.6</ele>
        <time>2015-04-12T11:06:39Z</time>
      </trkpt>
      <trkpt lat="47.00825" lon="-1.30811">
        <ele>84.4</ele>
        <time>2015-04-12T11:06:44Z</time>
      </trkpt>
      <trkpt lat="47.00806" lon="-1.30796">
        <ele>84.2</ele>
        <time>2015-04-12T11:06:50Z</time>
      </trkpt>
      <trkpt lat="47.0079" lon="-1.3078">
        <ele>84.1</ele>
        <time>2015-04-12T11:06:55Z</time>
      </trkpt>
      <trkpt lat="47.00777" lon="-1.3076">
        <ele>83.8</ele>
        <time>2015-04-12T11:06:59Z</time>
      </trkpt>
      <trkpt lat="47.00761" lon="-1.3074">
        <ele>83.6</ele>
        <time>2015-04-12T11:07:03Z</time>
      </trkpt>
      <trkpt lat="47.00745" lon="-1.30724">
        <ele>83.4</ele>
        <time>2015-04-12T11:07:07Z</time>
      </trkpt>
      <trkpt lat="47.00722" lon="-1.30724">
        <ele>83.7</ele>
        <time>2015-04-12T11:07:12Z</time>
      </trkpt>
      <trkpt lat="47.00703" lon="-1.30721">
        <ele>84.4</ele>
        <time>2015-04-12T11:07:19Z</time>
      </trkpt>
      <trkpt lat="47.00692" lon="-1.30701">
        <ele>84.5</ele>
        <time>2015-04-12T11:07:27Z</time>
      </trkpt>
      <trkpt lat="47.00685" lon="-1.30676">
        <ele>84.3</ele>
        <time>2015-04-12T11:07:34Z</time>
      </trkpt>
      <trkpt lat="47.00675" lon="-1.30653">
        <ele>84</ele>
        <time>2015-04-12T11:07:42Z</time>
      </trkpt>
      <trkpt lat="47.00666" lon="-1.30626">
        <ele>84.7</ele>
        <time>2015-04-12T11:07:50Z</time>
      </trkpt>
      <trkpt lat="47.00661" lon="-1.30598">
        <ele>84.7</ele>
        <time>2015-04-12T11:07:55Z</time>
      </trkpt>
      <trkpt lat="47.00651" lon="-1.30574">
        <ele>85.1</ele>
        <time>2015-04-12T11:08:02Z</time>
      </trkpt>
      <trkpt lat="47.00645" lon="-1.30543">
        <ele>84.9</ele>
        <time>2015-04-12T11:08:08Z</time>
      </trkpt>
      <trkpt lat="47.00642" lon="-1.30517">
        <ele>84.6</ele>
        <time>2015-04-12T11:08:13Z</time>
      </trkpt>
      <trkpt lat="47.00627" lon="-1.30497">
        <ele>84.3</ele>
        <time>2015-04-12T11:08:20Z</time>
      </trkpt>
      <trkpt lat="47.00616" lon="-1.30476">
        <ele>83.9</ele>
        <time>2015-04-12T11:08:25Z</time>
      </trkpt>
      <trkpt lat="47.00615" lon="-1.30447">
        <ele>82.9</ele>
        <time>2015-04-12T11:08:31Z</time>
      </trkpt>
      <trkpt lat="47.00618" lon="-1.3042">
        <ele>82.8</ele>
        <time>2015-04-12T11:08:36Z</time>
      </trkpt>
      <trkpt lat="47.00615" lon="-1.30391">
        <ele>82.8</ele>
        <time>2015-04-12T11:08:42Z</time>
      </trkpt>
      <trkpt lat="47.00618" lon="-1.30363">
        <ele>81.3</ele>
        <time>2015-04-12T11:08:48Z</time>
      </trkpt>
      <trkpt lat="47.00635" lon="-1.30352">
        <ele>79.9</ele>
        <time>2015-04-12T11:08:56Z</time>
      </trkpt>
      <trkpt lat="47.00653" lon="-1.30352">
        <ele>80.3</ele>
        <time>2015-04-12T11:09:03Z</time>
      </trkpt>
      <trkpt lat="47.00671" lon="-1.30363">
        <ele>80.8</ele>
        <time>2015-04-12T11:09:11Z</time>
      </trkpt>
      <trkpt lat="47.0069" lon="-1.30374">
        <ele>81</ele>
        <time>2015-04-12T11:09:17Z</time>
      </trkpt>
      <trkpt lat="47.00709" lon="-1.3038">
        <ele>80.4</ele>
        <time>2015-04-12T11:09:23Z</time>
      </trkpt>
      <trkpt lat="47.00725" lon="-1.30394">
        <ele>80.5</ele>
        <time>2015-04-12T11:09:30Z</time>
      </trkpt>
      <trkpt lat="47.00738" lon="-1.30415">
        <ele>79.3</ele>
        <time>2015-04-12T11:09:37Z</time>
      </trkpt>
      <trkpt lat="47.0074" lon="-1.30443">
        <ele>78.5</ele>
        <time>2015-04-12T11:09:47Z</time>
      </trkpt>
      <trkpt lat="47.00739" lon="-1.30472">
        <ele>78.4</ele>
        <time>2015-04-12T11:09:56Z</time>
      </trkpt>
      <trkpt lat="47.00747" lon="-1.30496">
        <ele>78.4</ele>
        <time>2015-04-12T11:10:03Z</time>
      </trkpt>
      <trkpt lat="47.00749" lon="-1.30525">
        <ele>75.1</ele>
        <time>2015-04-12T11:10:11Z</time>
      </trkpt>
      <trkpt lat="47.00756" lon="-1.30553">
        <ele>74.5</ele>
        <time>2015-04-12T11:10:17Z</time>
      </trkpt>
      <trkpt lat="47.00773" lon="-1.30571">
        <ele>74.6</ele>
        <time>2015-04-12T11:10:24Z</time>
      </trkpt>
      <trkpt lat="47.0079" lon="-1.30584">
        <ele>75</ele>
        <time>2015-04-12T11:10:32Z</time>
      </trkpt>
      <trkpt lat="47.00807" lon="-1.306">
        <ele>75.8</ele>
        <time>2015-04-12T11:10:42Z</time>
      </trkpt>
      <trkpt lat="47.00822" lon="-1.30615">
        <ele>77.4</ele>
        <time>2015-04-12T11:10:50Z</time>
      </trkpt>
      <trkpt lat="47.00838" lon="-1.30631">
        <ele>78.8</ele>
        <time>2015-04-12T11:10:58Z</time>
      </trkpt>
      <trkpt lat="47.00857" lon="-1.3063">
        <ele>82</ele>
        <time>2015-04-12T11:11:15Z</time>
      </trkpt>
      <trkpt lat="47.00876" lon="-1.30637">
        <ele>83.4</ele>
        <time>2015-04-12T11:11:23Z</time>
      </trkpt>
      <trkpt lat="47.00896" lon="-1.30642">
        <ele>85</ele>
        <time>2015-04-12T11:11:32Z</time>
      </trkpt>
      <trkpt lat="47.00914" lon="-1.30638">
        <ele>86.1</ele>
        <time>2015-04-12T11:11:40Z</time>
      </trkpt>
      <trkpt lat="47.00932" lon="-1.30654">
        <ele>85.9</ele>
        <time>2015-04-12T11:11:46Z</time>
      </trkpt>
      <trkpt lat="47.00947" lon="-1.3067">
        <ele>86.2</ele>
        <time>2015-04-12T11:11:52Z</time>
      </trkpt>
      <trkpt lat="47.00964" lon="-1.30682">
        <ele>87.1</ele>
        <time>2015-04-12T11:11:58Z</time>
      </trkpt>
      <trkpt lat="47.0098" lon="-1.307">
        <ele>87.7</ele>
        <time>2015-04-12T11:12:05Z</time>
      </trkpt>
      <trkpt lat="47.00997" lon="-1.30715">
        <ele>88.5</ele>
        <time>2015-04-12T11:12:12Z</time>
      </trkpt>
      <trkpt lat="47.01014" lon="-1.30733">
        <ele>89.2</ele>
        <time>2015-04-12T11:12:18Z</time>
      </trkpt>
      <trkpt lat="47.0103" lon="-1.30749">
        <ele>90.3</ele>
        <time>2015-04-12T11:12:23Z</time>
      </trkpt>
      <trkpt lat="47.01045" lon="-1.30764">
        <ele>91.3</ele>
        <time>2015-04-12T11:12:28Z</time>
      </trkpt>
      <trkpt lat="47.01064" lon="-1.30778">
        <ele>92.5</ele>
        <time>2015-04-12T11:12:33Z</time>
      </trkpt>
      <trkpt lat="47.01081" lon="-1.30791">
        <ele>93</ele>
        <time>2015-04-12T11:12:38Z</time>
      </trkpt>
      <trkpt lat="47.01098" lon="-1.30809">
        <ele>93.7</ele>
        <time>2015-04-12T11:12:44Z</time>
      </trkpt>
      <trkpt lat="47.01116" lon="-1.30808">
        <ele>92.7</ele>
        <time>2015-04-12T11:13:01Z</time>
      </trkpt>
      <trkpt lat="47.01134" lon="-1.30812">
        <ele>83.1</ele>
        <time>2015-04-12T11:14:37Z</time>
      </trkpt>
      <trkpt lat="47.01149" lon="-1.30793">
        <ele>67.5</ele>
        <time>2015-04-12T11:16:06Z</time>
      </trkpt>
      <trkpt lat="47.01155" lon="-1.30766">
        <ele>66.7</ele>
        <time>2015-04-12T11:16:13Z</time>
      </trkpt>
      <trkpt lat="47.01162" lon="-1.3074">
        <ele>65.8</ele>
        <time>2015-04-12T11:16:19Z</time>
      </trkpt>
      <trkpt lat="47.01167" lon="-1.30714">
        <ele>65.3</ele>
        <time>2015-04-12T11:16:24Z</time>
      </trkpt>
      <trkpt lat="47.01175" lon="-1.30689">
        <ele>64.5</ele>
        <time>2015-04-12T11:16:28Z</time>
      </trkpt>
      <trkpt lat="47.01183" lon="-1.30658">
        <ele>63.4</ele>
        <time>2015-04-12T11:16:33Z</time>
      </trkpt>
      <trkpt lat="47.01191" lon="-1.3063">
        <ele>63.4</ele>
        <time>2015-04-12T11:16:38Z</time>
      </trkpt>
      <trkpt lat="47.012" lon="-1.30602">
        <ele>63.3</ele>
        <time>2015-04-12T11:16:43Z</time>
      </trkpt>
      <trkpt lat="47.01208" lon="-1.30575">
        <ele>62.9</ele>
        <time>2015-04-12T11:16:48Z</time>
      </trkpt>
      <trkpt lat="47.01218" lon="-1.30553">
        <ele>62.6</ele>
        <time>2015-04-12T11:16:52Z</time>
      </trkpt>
      <trkpt lat="47.01238" lon="-1.30545">
        <ele>62.1</ele>
        <time>2015-04-12T11:16:57Z</time>
      </trkpt>
      <trkpt lat="47.01258" lon="-1.30552">
        <ele>62.1</ele>
        <time>2015-04-12T11:17:02Z</time>
      </trkpt>
      <trkpt lat="47.01276" lon="-1.3056">
        <ele>62.2</ele>
        <time>2015-04-12T11:17:07Z</time>
      </trkpt>
      <trkpt lat="47.01292" lon="-1.30574">
        <ele>62.9</ele>
        <time>2015-04-12T11:17:13Z</time>
      </trkpt>
      <trkpt lat="47.01312" lon="-1.3058">
        <ele>63.6</ele>
        <time>2015-04-12T11:17:19Z</time>
      </trkpt>
      <trkpt lat="47.01332" lon="-1.30589">
        <ele>64.6</ele>
        <time>2015-04-12T11:17:25Z</time>
      </trkpt>
      <trkpt lat="47.0135" lon="-1.30599">
        <ele>65.3</ele>
        <time>2015-04-12T11:17:31Z</time>
      </trkpt>
      <trkpt lat="47.01369" lon="-1.30611">
        <ele>65.8</ele>
        <time>2015-04-12T11:17:36Z</time>
      </trkpt>
      <trkpt lat="47.01386" lon="-1.30623">
        <ele>66.9</ele>
        <time>2015-04-12T11:17:42Z</time>
      </trkpt>
      <trkpt lat="47.01404" lon="-1.30632">
        <ele>68.1</ele>
        <time>2015-04-12T11:17:47Z</time>
      </trkpt>
      <trkpt lat="47.01424" lon="-1.30646">
        <ele>69.2</ele>
        <time>2015-04-12T11:17:52Z</time>
      </trkpt>
      <trkpt lat="47.01441" lon="-1.3066">
        <ele>69.7</ele>
        <time>2015-04-12T11:17:57Z</time>
      </trkpt>
      <trkpt lat="47.01462" lon="-1.30667">
        <ele>69.7</ele>
        <time>2015-04-12T11:18:02Z</time>
      </trkpt>
      <trkpt lat="47.01479" lon="-1.30672">
        <ele>69.6</ele>
        <time>2015-04-12T11:18:06Z</time>
      </trkpt>
      <trkpt lat="47.015" lon="-1.30676">
        <ele>69.7</ele>
        <time>2015-04-12T11:18:11Z</time>
      </trkpt>
      <trkpt lat="47.01521" lon="-1.30678">
        <ele>67.7</ele>
        <time>2015-04-12T11:18:16Z</time>
      </trkpt>
      <trkpt lat="47.01543" lon="-1.30678">
        <ele>67</ele>
        <time>2015-04-12T11:18:21Z</time>
      </trkpt>
      <trkpt lat="47.01561" lon="-1.30681">
        <ele>66.1</ele>
        <time>2015-04-12T11:18:25Z</time>
      </trkpt>
      <trkpt lat="47.01583" lon="-1.30689">
        <ele>65.1</ele>
        <time>2015-04-12T11:18:29Z</time>
      </trkpt>
      <trkpt lat="47.01602" lon="-1.30696">
        <ele>65</ele>
        <time>2015-04-12T11:18:33Z</time>
      </trkpt>
      <trkpt lat="47.0162" lon="-1.30704">
        <ele>64.2</ele>
        <time>2015-04-12T11:18:37Z</time>
      </trkpt>
      <trkpt lat="47.0164" lon="-1.30713">
        <ele>64.3</ele>
        <time>2015-04-12T11:18:41Z</time>
      </trkpt>
      <trkpt lat="47.01658" lon="-1.30722">
        <ele>64.3</ele>
        <time>2015-04-12T11:18:45Z</time>
      </trkpt>
      <trkpt lat="47.01681" lon="-1.30731">
        <ele>64.5</ele>
        <time>2015-04-12T11:18:50Z</time>
      </trkpt>
      <trkpt lat="47.01699" lon="-1.30738">
        <ele>64.4</ele>
        <time>2015-04-12T11:18:54Z</time>
      </trkpt>
      <trkpt lat="47.01717" lon="-1.30749">
        <ele>64.1</ele>
        <time>2015-04-12T11:18:58Z</time>
      </trkpt>
      <trkpt lat="47.01737" lon="-1.30767">
        <ele>63.8</ele>
        <time>2015-04-12T11:19:02Z</time>
      </trkpt>
      <trkpt lat="47.01754" lon="-1.30787">
        <ele>63.6</ele>
        <time>2015-04-12T11:19:06Z</time>
      </trkpt>
      <trkpt lat="47.01767" lon="-1.3081">
        <ele>63.3</ele>
        <time>2015-04-12T11:19:10Z</time>
      </trkpt>
      <trkpt lat="47.01776" lon="-1.30837">
        <ele>63.1</ele>
        <time>2015-04-12T11:19:14Z</time>
      </trkpt>
      <trkpt lat="47.01784" lon="-1.30867">
        <ele>62.8</ele>
        <time>2015-04-12T11:19:18Z</time>
      </trkpt>
      <trkpt lat="47.0179" lon="-1.309">
        <ele>62.6</ele>
        <time>2015-04-12T11:19:22Z</time>
      </trkpt>
      <trkpt lat="47.01796" lon="-1.30926">
        <ele>62.9</ele>
        <time>2015-04-12T11:19:25Z</time>
      </trkpt>
      <trkpt lat="47.01802" lon="-1.30957">
        <ele>62.8</ele>
        <time>2015-04-12T11:19:29Z</time>
      </trkpt>
      <trkpt lat="47.01808" lon="-1.30986">
        <ele>62.8</ele>
        <time>2015-04-12T11:19:33Z</time>
      </trkpt>
      <trkpt lat="47.01797" lon="-1.31011">
        <ele>63.7</ele>
        <time>2015-04-12T11:19:40Z</time>
      </trkpt>
      <trkpt lat="47.01779" lon="-1.31021">
        <ele>64.3</ele>
        <time>2015-04-12T11:19:44Z</time>
      </trkpt>
      <trkpt lat="47.0176" lon="-1.3103">
        <ele>65.4</ele>
        <time>2015-04-12T11:19:48Z</time>
      </trkpt>
      <trkpt lat="47.01741" lon="-1.3104">
        <ele>66.3</ele>
        <time>2015-04-12T11:19:52Z</time>
      </trkpt>
      <trkpt lat="47.01732" lon="-1.31064">
        <ele>66.5</ele>
        <time>2015-04-12T11:19:57Z</time>
      </trkpt>
      <trkpt lat="47.01747" lon="-1.31088">
        <ele>66.8</ele>
        <time>2015-04-12T11:20:01Z</time>
      </trkpt>
      <trkpt lat="47.01761" lon="-1.31111">
        <ele>66.4</ele>
        <time>2015-04-12T11:20:05Z</time>
      </trkpt>
      <trkpt lat="47.01774" lon="-1.31137">
        <ele>66.1</ele>
        <time>2015-04-12T11:20:09Z</time>
      </trkpt>
      <trkpt lat="47.01786" lon="-1.31163">
        <ele>66</ele>
        <time>2015-04-12T11:20:13Z</time>
      </trkpt>
      <trkpt lat="47.01796" lon="-1.3119">
        <ele>66.3</ele>
        <time>2015-04-12T11:20:17Z</time>
      </trkpt>
      <trkpt lat="47.01806" lon="-1.31216">
        <ele>66</ele>
        <time>2015-04-12T11:20:21Z</time>
      </trkpt>
      <trkpt lat="47.01822" lon="-1.31237">
        <ele>66</ele>
        <time>2015-04-12T11:20:25Z</time>
      </trkpt>
      <trkpt lat="47.01839" lon="-1.31258">
        <ele>65.8</ele>
        <time>2015-04-12T11:20:29Z</time>
      </trkpt>
      <trkpt lat="47.01857" lon="-1.31277">
        <ele>66.2</ele>
        <time>2015-04-12T11:20:33Z</time>
      </trkpt>
      <trkpt lat="47.01875" lon="-1.31295">
        <ele>65.8</ele>
        <time>2015-04-12T11:20:37Z</time>
      </trkpt>
      <trkpt lat="47.01893" lon="-1.31315">
        <ele>64.9</ele>
        <time>2015-04-12T11:20:41Z</time>
      </trkpt>
      <trkpt lat="47.01912" lon="-1.31335">
        <ele>64.8</ele>
        <time>2015-04-12T11:20:45Z</time>
      </trkpt>
      <trkpt lat="47.01929" lon="-1.31355">
        <ele>65.1</ele>
        <time>2015-04-12T11:20:49Z</time>
      </trkpt>
      <trkpt lat="47.01945" lon="-1.31375">
        <ele>65.7</ele>
        <time>2015-04-12T11:20:53Z</time>
      </trkpt>
      <trkpt lat="47.01931" lon="-1.31395">
        <ele>65.7</ele>
        <time>2015-04-12T11:21:00Z</time>
      </trkpt>
      <trkpt lat="47.01914" lon="-1.3141">
        <ele>65</ele>
        <time>2015-04-12T11:21:05Z</time>
      </trkpt>
      <trkpt lat="47.01916" lon="-1.31437">
        <ele>64.6</ele>
        <time>2015-04-12T11:21:10Z</time>
      </trkpt>
      <trkpt lat="47.01927" lon="-1.31463">
        <ele>64.7</ele>
        <time>2015-04-12T11:21:14Z</time>
      </trkpt>
      <trkpt lat="47.01936" lon="-1.3149">
        <ele>64.6</ele>
        <time>2015-04-12T11:21:18Z</time>
      </trkpt>
      <trkpt lat="47.01923" lon="-1.31511">
        <ele>64.6</ele>
        <time>2015-04-12T11:21:23Z</time>
      </trkpt>
      <trkpt lat="47.01904" lon="-1.31523">
        <ele>64.7</ele>
        <time>2015-04-12T11:21:27Z</time>
      </trkpt>
      <trkpt lat="47.01885" lon="-1.31534">
        <ele>64.9</ele>
        <time>2015-04-12T11:21:31Z</time>
      </trkpt>
      <trkpt lat="47.01867" lon="-1.31546">
        <ele>65.3</ele>
        <time>2015-04-12T11:21:35Z</time>
      </trkpt>
      <trkpt lat="47.01847" lon="-1.31557">
        <ele>65.7</ele>
        <time>2015-04-12T11:21:39Z</time>
      </trkpt>
      <trkpt lat="47.01827" lon="-1.31566">
        <ele>66.2</ele>
        <time>2015-04-12T11:21:43Z</time>
      </trkpt>
      <trkpt lat="47.0181" lon="-1.31577">
        <ele>66.8</ele>
        <time>2015-04-12T11:21:47Z</time>
      </trkpt>
      <trkpt lat="47.01791" lon="-1.31587">
        <ele>66.5</ele>
        <time>2015-04-12T11:21:51Z</time>
      </trkpt>
      <trkpt lat="47.01771" lon="-1.31598">
        <ele>66.5</ele>
        <time>2015-04-12T11:21:55Z</time>
      </trkpt>
      <trkpt lat="47.0175" lon="-1.31611">
        <ele>66.5</ele>
        <time>2015-04-12T11:21:59Z</time>
      </trkpt>
      <trkpt lat="47.01729" lon="-1.31623">
        <ele>66.6</ele>
        <time>2015-04-12T11:22:03Z</time>
      </trkpt>
      <trkpt lat="47.0171" lon="-1.31616">
        <ele>65.5</ele>
        <time>2015-04-12T11:22:07Z</time>
      </trkpt>
      <trkpt lat="47.01693" lon="-1.31597">
        <ele>64.8</ele>
        <time>2015-04-12T11:22:11Z</time>
      </trkpt>
      <trkpt lat="47.01676" lon="-1.31616">
        <ele>65.8</ele>
        <time>2015-04-12T11:22:15Z</time>
      </trkpt>
      <trkpt lat="47.01661" lon="-1.31631">
        <ele>65.8</ele>
        <time>2015-04-12T11:22:18Z</time>
      </trkpt>
      <trkpt lat="47.01647" lon="-1.31648">
        <ele>65.8</ele>
        <time>2015-04-12T11:22:21Z</time>
      </trkpt>
      <trkpt lat="47.01629" lon="-1.31668">
        <ele>65.5</ele>
        <time>2015-04-12T11:22:25Z</time>
      </trkpt>
      <trkpt lat="47.01611" lon="-1.3169">
        <ele>64.6</ele>
        <time>2015-04-12T11:22:29Z</time>
      </trkpt>
      <trkpt lat="47.01607" lon="-1.31722">
        <ele>63.6</ele>
        <time>2015-04-12T11:22:33Z</time>
      </trkpt>
      <trkpt lat="47.01598" lon="-1.31752">
        <ele>63</ele>
        <time>2015-04-12T11:22:37Z</time>
      </trkpt>
      <trkpt lat="47.01585" lon="-1.31779">
        <ele>63.4</ele>
        <time>2015-04-12T11:22:41Z</time>
      </trkpt>
      <trkpt lat="47.01572" lon="-1.31806">
        <ele>63.8</ele>
        <time>2015-04-12T11:22:45Z</time>
      </trkpt>
      <trkpt lat="47.0156" lon="-1.31834">
        <ele>63.7</ele>
        <time>2015-04-12T11:22:49Z</time>
      </trkpt>
      <trkpt lat="47.01547" lon="-1.31862">
        <ele>62.9</ele>
        <time>2015-04-12T11:22:53Z</time>
      </trkpt>
      <trkpt lat="47.01532" lon="-1.31889">
        <ele>62.3</ele>
        <time>2015-04-12T11:22:57Z</time>
      </trkpt>
      <trkpt lat="47.01515" lon="-1.31908">
        <ele>61.9</ele>
        <time>2015-04-12T11:23:01Z</time>
      </trkpt>
      <trkpt lat="47.01495" lon="-1.31923">
        <ele>61.3</ele>
        <time>2015-04-12T11:23:05Z</time>
      </trkpt>
      <trkpt lat="47.01476" lon="-1.31944">
        <ele>61</ele>
        <time>2015-04-12T11:23:09Z</time>
      </trkpt>
      <trkpt lat="47.01461" lon="-1.3196">
        <ele>60.6</ele>
        <time>2015-04-12T11:23:12Z</time>
      </trkpt>
      <trkpt lat="47.01446" lon="-1.31979">
        <ele>59.3</ele>
        <time>2015-04-12T11:23:15Z</time>
      </trkpt>
      <trkpt lat="47.01429" lon="-1.31995">
        <ele>57.7</ele>
        <time>2015-04-12T11:23:19Z</time>
      </trkpt>
      <trkpt lat="47.01409" lon="-1.32012">
        <ele>57</ele>
        <time>2015-04-12T11:23:23Z</time>
      </trkpt>
      <trkpt lat="47.01391" lon="-1.32019">
        <ele>57.4</ele>
        <time>2015-04-12T11:23:26Z</time>
      </trkpt>
      <trkpt lat="47.01372" lon="-1.32026">
        <ele>57.4</ele>
        <time>2015-04-12T11:23:29Z</time>
      </trkpt>
      <trkpt lat="47.01351" lon="-1.32036">
        <ele>57.5</ele>
        <time>2015-04-12T11:23:32Z</time>
      </trkpt>
      <trkpt lat="47.0133" lon="-1.32046">
        <ele>57.7</ele>
        <time>2015-04-12T11:23:35Z</time>
      </trkpt>
      <trkpt lat="47.01312" lon="-1.32053">
        <ele>57.2</ele>
        <time>2015-04-12T11:23:38Z</time>
      </trkpt>
      <trkpt lat="47.01295" lon="-1.32064">
        <ele>56.5</ele>
        <time>2015-04-12T11:23:42Z</time>
      </trkpt>
      <trkpt lat="47.01277" lon="-1.32079">
        <ele>55.8</ele>
        <time>2015-04-12T11:23:46Z</time>
      </trkpt>
      <trkpt lat="47.01257" lon="-1.32092">
        <ele>55.3</ele>
        <time>2015-04-12T11:23:49Z</time>
      </trkpt>
      <trkpt lat="47.01238" lon="-1.32105">
        <ele>54.5</ele>
        <time>2015-04-12T11:23:53Z</time>
      </trkpt>
      <trkpt lat="47.01221" lon="-1.32118">
        <ele>53.6</ele>
        <time>2015-04-12T11:23:57Z</time>
      </trkpt>
      <trkpt lat="47.01206" lon="-1.32133">
        <ele>53</ele>
        <time>2015-04-12T11:24:01Z</time>
      </trkpt>
      <trkpt lat="47.0119" lon="-1.32153">
        <ele>51.9</ele>
        <time>2015-04-12T11:24:05Z</time>
      </trkpt>
      <trkpt lat="47.01173" lon="-1.32173">
        <ele>51.1</ele>
        <time>2015-04-12T11:24:09Z</time>
      </trkpt>
      <trkpt lat="47.01156" lon="-1.32195">
        <ele>50.3</ele>
        <time>2015-04-12T11:24:13Z</time>
      </trkpt>
      <trkpt lat="47.0114" lon="-1.3222">
        <ele>49.3</ele>
        <time>2015-04-12T11:24:17Z</time>
      </trkpt>
      <trkpt lat="47.01127" lon="-1.3224">
        <ele>48.5</ele>
        <time>2015-04-12T11:24:21Z</time>
      </trkpt>
      <trkpt lat="47.01111" lon="-1.32265">
        <ele>47.6</ele>
        <time>2015-04-12T11:24:25Z</time>
      </trkpt>
      <trkpt lat="47.01098" lon="-1.32283">
        <ele>47</ele>
        <time>2015-04-12T11:24:28Z</time>
      </trkpt>
      <trkpt lat="47.01083" lon="-1.32299">
        <ele>46.4</ele>
        <time>2015-04-12T11:24:31Z</time>
      </trkpt>
      <trkpt lat="47.01064" lon="-1.32317">
        <ele>45.7</ele>
        <time>2015-04-12T11:24:35Z</time>
      </trkpt>
      <trkpt lat="47.01046" lon="-1.32333">
        <ele>45.8</ele>
        <time>2015-04-12T11:24:38Z</time>
      </trkpt>
      <trkpt lat="47.01028" lon="-1.32345">
        <ele>45.5</ele>
        <time>2015-04-12T11:24:41Z</time>
      </trkpt>
      <trkpt lat="47.01006" lon="-1.32356">
        <ele>46.9</ele>
        <time>2015-04-12T11:24:45Z</time>
      </trkpt>
      <trkpt lat="47.00987" lon="-1.32366">
        <ele>48.3</ele>
        <time>2015-04-12T11:24:50Z</time>
      </trkpt>
      <trkpt lat="47.00978" lon="-1.32393">
        <ele>49.3</ele>
        <time>2015-04-12T11:24:57Z</time>
      </trkpt>
      <trkpt lat="47.00967" lon="-1.32414">
        <ele>49.2</ele>
        <time>2015-04-12T11:25:03Z</time>
      </trkpt>
      <trkpt lat="47.00956" lon="-1.32435">
        <ele>49.4</ele>
        <time>2015-04-12T11:25:09Z</time>
      </trkpt>
      <trkpt lat="47.00938" lon="-1.32449">
        <ele>52</ele>
        <time>2015-04-12T11:25:55Z</time>
      </trkpt>
      <trkpt lat="47.00926" lon="-1.3247">
        <ele>53.1</ele>
        <time>2015-04-12T11:26:02Z</time>
      </trkpt>
      <trkpt lat="47.00909" lon="-1.32491">
        <ele>53.2</ele>
        <time>2015-04-12T11:26:06Z</time>
      </trkpt>
      <trkpt lat="47.00893" lon="-1.32507">
        <ele>53.1</ele>
        <time>2015-04-12T11:26:10Z</time>
      </trkpt>
      <trkpt lat="47.00878" lon="-1.32526">
        <ele>53.5</ele>
        <time>2015-04-12T11:26:14Z</time>
      </trkpt>
      <trkpt lat="47.00862" lon="-1.32545">
        <ele>54</ele>
        <time>2015-04-12T11:26:18Z</time>
      </trkpt>
      <trkpt lat="47.00845" lon="-1.32564">
        <ele>54.1</ele>
        <time>2015-04-12T11:26:22Z</time>
      </trkpt>
      <trkpt lat="47.00829" lon="-1.32583">
        <ele>53.1</ele>
        <time>2015-04-12T11:26:26Z</time>
      </trkpt>
      <trkpt lat="47.00812" lon="-1.326">
        <ele>51.6</ele>
        <time>2015-04-12T11:26:30Z</time>
      </trkpt>
      <trkpt lat="47.00796" lon="-1.32619">
        <ele>50.8</ele>
        <time>2015-04-12T11:26:34Z</time>
      </trkpt>
      <trkpt lat="47.00776" lon="-1.32639">
        <ele>50.6</ele>
        <time>2015-04-12T11:26:38Z</time>
      </trkpt>
      <trkpt lat="47.00761" lon="-1.32663">
        <ele>49.3</ele>
        <time>2015-04-12T11:26:42Z</time>
      </trkpt>
      <trkpt lat="47.00752" lon="-1.32688">
        <ele>49.3</ele>
        <time>2015-04-12T11:26:46Z</time>
      </trkpt>
      <trkpt lat="47.00762" lon="-1.32714">
        <ele>48.1</ele>
        <time>2015-04-12T11:26:51Z</time>
      </trkpt>
      <trkpt lat="47.00776" lon="-1.32734">
        <ele>48.7</ele>
        <time>2015-04-12T11:26:56Z</time>
      </trkpt>
      <trkpt lat="47.00789" lon="-1.32755">
        <ele>46.9</ele>
        <time>2015-04-12T11:27:01Z</time>
      </trkpt>
      <trkpt lat="47.00802" lon="-1.3278">
        <ele>44.2</ele>
        <time>2015-04-12T11:27:06Z</time>
      </trkpt>
      <trkpt lat="47.00814" lon="-1.32804">
        <ele>43.3</ele>
        <time>2015-04-12T11:27:11Z</time>
      </trkpt>
      <trkpt lat="47.00825" lon="-1.32827">
        <ele>43.8</ele>
        <time>2015-04-12T11:27:16Z</time>
      </trkpt>
      <trkpt lat="47.00843" lon="-1.32823">
        <ele>43.4</ele>
        <time>2015-04-12T11:27:22Z</time>
      </trkpt>
      <trkpt lat="47.00864" lon="-1.32816">
        <ele>44</ele>
        <time>2015-04-12T11:27:27Z</time>
      </trkpt>
      <trkpt lat="47.00882" lon="-1.32812">
        <ele>44.8</ele>
        <time>2015-04-12T11:27:31Z</time>
      </trkpt>
      <trkpt lat="47.00892" lon="-1.32837">
        <ele>46.9</ele>
        <time>2015-04-12T11:27:37Z</time>
      </trkpt>
      <trkpt lat="47.00883" lon="-1.32866">
        <ele>47.8</ele>
        <time>2015-04-12T11:27:41Z</time>
      </trkpt>
      <trkpt lat="47.00878" lon="-1.32892">
        <ele>48.1</ele>
        <time>2015-04-12T11:27:45Z</time>
      </trkpt>
      <trkpt lat="47.00877" lon="-1.32923">
        <ele>48.1</ele>
        <time>2015-04-12T11:27:49Z</time>
      </trkpt>
      <trkpt lat="47.00877" lon="-1.32957">
        <ele>48.2</ele>
        <time>2015-04-12T11:27:53Z</time>
      </trkpt>
      <trkpt lat="47.00876" lon="-1.32991">
        <ele>47.8</ele>
        <time>2015-04-12T11:27:57Z</time>
      </trkpt>
      <trkpt lat="47.00875" lon="-1.33026">
        <ele>47.6</ele>
        <time>2015-04-12T11:28:01Z</time>
      </trkpt>
      <trkpt lat="47.00872" lon="-1.33052">
        <ele>47.9</ele>
        <time>2015-04-12T11:28:04Z</time>
      </trkpt>
      <trkpt lat="47.00871" lon="-1.3308">
        <ele>47.5</ele>
        <time>2015-04-12T11:28:07Z</time>
      </trkpt>
      <trkpt lat="47.00872" lon="-1.33108">
        <ele>47</ele>
        <time>2015-04-12T11:28:10Z</time>
      </trkpt>
      <trkpt lat="47.00874" lon="-1.33143">
        <ele>45.9</ele>
        <time>2015-04-12T11:28:14Z</time>
      </trkpt>
      <trkpt lat="47.00875" lon="-1.3317">
        <ele>45.1</ele>
        <time>2015-04-12T11:28:17Z</time>
      </trkpt>
      <trkpt lat="47.00875" lon="-1.33198">
        <ele>44.8</ele>
        <time>2015-04-12T11:28:20Z</time>
      </trkpt>
      <trkpt lat="47.00875" lon="-1.33226">
        <ele>44.3</ele>
        <time>2015-04-12T11:28:23Z</time>
      </trkpt>
      <trkpt lat="47.00875" lon="-1.33258">
        <ele>44.3</ele>
        <time>2015-04-12T11:28:27Z</time>
      </trkpt>
      <trkpt lat="47.00876" lon="-1.33288">
        <ele>43.9</ele>
        <time>2015-04-12T11:28:31Z</time>
      </trkpt>
      <trkpt lat="47.00879" lon="-1.33318">
        <ele>42.8</ele>
        <time>2015-04-12T11:28:35Z</time>
      </trkpt>
      <trkpt lat="47.00882" lon="-1.33348">
        <ele>44.3</ele>
        <time>2015-04-12T11:28:39Z</time>
      </trkpt>
      <trkpt lat="47.00886" lon="-1.33376">
        <ele>44.5</ele>
        <time>2015-04-12T11:28:43Z</time>
      </trkpt>
      <trkpt lat="47.00894" lon="-1.33403">
        <ele>45</ele>
        <time>2015-04-12T11:28:47Z</time>
      </trkpt>
      <trkpt lat="47.00901" lon="-1.33433">
        <ele>46.6</ele>
        <time>2015-04-12T11:28:51Z</time>
      </trkpt>
      <trkpt lat="47.00897" lon="-1.33463">
        <ele>47.2</ele>
        <time>2015-04-12T11:28:55Z</time>
      </trkpt>
      <trkpt lat="47.00886" lon="-1.33487">
        <ele>47.9</ele>
        <time>2015-04-12T11:28:59Z</time>
      </trkpt>
      <trkpt lat="47.00874" lon="-1.3351">
        <ele>48.4</ele>
        <time>2015-04-12T11:29:03Z</time>
      </trkpt>
      <trkpt lat="47.0086" lon="-1.33536">
        <ele>48.9</ele>
        <time>2015-04-12T11:29:08Z</time>
      </trkpt>
      <trkpt lat="47.00847" lon="-1.3356">
        <ele>49.7</ele>
        <time>2015-04-12T11:29:12Z</time>
      </trkpt>
      <trkpt lat="47.00837" lon="-1.33584">
        <ele>50.7</ele>
        <time>2015-04-12T11:29:16Z</time>
      </trkpt>
      <trkpt lat="47.00835" lon="-1.33615">
        <ele>50.3</ele>
        <time>2015-04-12T11:29:20Z</time>
      </trkpt>
      <trkpt lat="47.00826" lon="-1.33641">
        <ele>49.4</ele>
        <time>2015-04-12T11:29:25Z</time>
      </trkpt>
      <trkpt lat="47.00807" lon="-1.33638">
        <ele>46</ele>
        <time>2015-04-12T11:29:31Z</time>
      </trkpt>
      <trkpt lat="47.00788" lon="-1.33624">
        <ele>45.1</ele>
        <time>2015-04-12T11:29:37Z</time>
      </trkpt>
      <trkpt lat="47.0077" lon="-1.33622">
        <ele>45.1</ele>
        <time>2015-04-12T11:29:45Z</time>
      </trkpt>
      <trkpt lat="47.00753" lon="-1.33613">
        <ele>44.8</ele>
        <time>2015-04-12T11:29:54Z</time>
      </trkpt>
      <trkpt lat="47.0074" lon="-1.33632">
        <ele>44.2</ele>
        <time>2015-04-12T11:29:59Z</time>
      </trkpt>
      <trkpt lat="47.00734" lon="-1.33661">
        <ele>43.7</ele>
        <time>2015-04-12T11:30:04Z</time>
      </trkpt>
      <trkpt lat="47.00744" lon="-1.33689">
        <ele>43.3</ele>
        <time>2015-04-12T11:30:09Z</time>
      </trkpt>
      <trkpt lat="47.00757" lon="-1.33709">
        <ele>43.9</ele>
        <time>2015-04-12T11:30:13Z</time>
      </trkpt>
      <trkpt lat="47.00773" lon="-1.3373">
        <ele>44.8</ele>
        <time>2015-04-12T11:30:18Z</time>
      </trkpt>
      <trkpt lat="47.00774" lon="-1.33759">
        <ele>49.2</ele>
        <time>2015-04-12T11:31:26Z</time>
      </trkpt>
      <trkpt lat="47.00763" lon="-1.3378">
        <ele>49</ele>
        <time>2015-04-12T11:31:34Z</time>
      </trkpt>
      <trkpt lat="47.00765" lon="-1.33806">
        <ele>49</ele>
        <time>2015-04-12T11:31:41Z</time>
      </trkpt>
    </trkseg>
  </trk>
</gpx>